[[{"header":{"parameterUnit":"m.s-1","parameterCategory":1,"la1":31.0,"la2":29.5877,"lo1":-88.7671,"lo2":-86.6584,"dy":0.0162,"dx":0.0185,"nx":115,"ny":88,"refTime":"2023-11-16T18:00:00:Z","depth":0,"parameterNumber":2,"parameterNumberName":"U-component_of_WINDS"},"data":[0.0,0.0,0.0,0.0,0.0,0.0,0.0,0.0,0.0,0.0,0.0,0.0,0.0,0.0,0.0,0.0,0.0,0.0,0.0,0.0,0.0,0.0,0.0,0.0,0.0,0.0,0.0,0.0,0.0,0.0,0.0,0.0,0.0,0.0,0.0,0.0,0.0,0.0,0.0,0.0,0.0,0.0,0.0,0.0,0.0,0.0,0.0,0.0,0.0,0.0,0.0,0.0,0.0,0.0,0.0,0.0,0.0,0.0,0.0,0.0,0.0,0.0,0.0,0.0,0.0,0.0,0.0,0.0,0.0,0.0,0.0,0.0,0.0,0.0,0.0,0.0,0.0,0.0,0.0,0.0,0.0,0.0,0.0,0.0,0.0,0.0,0.0,0.0,0.0,0.0,0.0,0.0,0.0,0.0,0.0,0.0,0.0,0.0,0.0,0.0,0.0,0.0,0.0,0.0,0.0,0.0,0.0,0.0,0.0,0.0,0.0,0.0,0.0,0.0,0.0,0.0,0.0,0.0,0.0,0.0,0.0,0.0,0.0,0.0,0.0,0.0,0.0,0.0,0.0,0.0,0.0,0.0,0.0,0.0,0.0,0.0,0.0,0.0,0.0,0.0,0.0,0.0,0.0,0.0,0.0,0.0,0.0,0.0,0.0,0.0,0.0,0.0,0.0,0.0,0.0,0.0,0.0,0.0,0.0,0.0,0.0,0.0,0.0,0.0,0.0,0.0,0.0,0.0,0.0,0.0,0.0,0.0,0.0,0.0,0.0,0.0,0.0,0.0,0.0,0.0,0.0,0.0,0.0,0.0,0.0,0.0,0.0,0.0,0.0,0.0,0.0,0.0,0.0,0.0,0.0,0.0,0.0,0.0,0.0,0.0,0.0,0.0,0.0,0.0,0.0,0.0,0.0,0.0,0.0,0.0,0.0,0.0,0.0,0.0,0.0,0.0,0.0,0.0,0.0,0.0,0.0,0.0,0.0,0.0,0.0,0.0,0.0,0.0,0.0,0.0,0.0,0.0,0.0,0.0,0.0,0.0,0.0,0.0,0.0,0.0,0.0,0.0,0.0,0.0,0.0,0.0,0.0,0.0,0.0,0.0,0.0,0.0,0.0,0.0,0.0,0.0,0.0,0.0,0.0,0.0,0.0,0.0,0.0,0.0,0.0,0.0,0.0,0.0,0.0,0.0,0.0,0.0,0.0,0.0,0.0,0.0,0.0,0.0,0.0,0.0,0.0,0.0,0.0,0.0,0.0,0.0,0.0,0.0,0.0,0.0,0.0,0.0,0.0,0.0,0.0,0.0,0.0,0.0,0.0,0.0,0.0,0.0,0.0,0.0,0.0,0.0,0.0,0.0,0.0,0.0,0.0,0.0,0.0,0.0,0.0,0.0,0.0,0.0,0.0,0.0,0.0,0.0,0.0,0.0,0.0,0.0,0.0,0.0,0.0,0.0,0.0,0.0,0.0,0.0,0.0,0.0,0.0,0.0,0.0,0.0,0.0,0.0,0.0,0.0,0.0,0.0,0.0,0.0,0.0,0.0,0.0,0.0,0.0,0.0,0.0,0.0,0.0,0.0,0.0,0.0,0.0,0.0,0.0,0.0,0.0,0.0,0.0,0.0,0.0,0.0,0.0,0.0,0.0,0.0,0.0,0.0,0.0,0.0,0.0,0.0,0.0,0.0,0.0,0.0,0.0,0.0,0.0,0.0,0.0,0.0,0.0,0.0,0.0,0.0,0.0,0.0,0.0,0.0,0.0,0.0,0.0,0.0,0.0,0.0,0.0,0.0,0.0,0.0,0.0,0.0,0.0,0.0,0.0,0.0,0.0,0.0,0.0,0.0,0.0,0.0,0.0,0.0,0.0,0.0,0.0,0.0,0.0,0.0,0.0,0.0,0.0,0.0,0.0,0.0,0.0,0.0,0.0,0.0,0.0,0.0,0.0,0.0,0.0,0.0,0.0,0.0,0.0,0.0,0.0,0.0,0.0,0.0,0.0,0.0,0.0,0.0,0.0,0.0,0.0,0.0,0.0,0.0,0.0,0.0,0.0,0.0,0.0,0.0,0.0,0.0,0.0,0.0,0.0,0.0,0.0,0.0,0.0,0.0,0.0,0.0,0.0,0.0,0.0,0.0,0.0,0.0,0.0,0.0,0.0,0.0,0.0,0.0,0.0,0.0,0.0,0.0,0.0,0.0,0.0,0.0,0.0,0.0,0.0,0.0,0.0,0.0,0.0,0.0,0.0,0.0,0.0,0.0,0.0,0.0,0.0,0.0,0.0,0.0,0.0,0.0,0.0,0.0,0.0,0.0,0.0,0.0,0.0,0.0,0.0,0.0,0.0,0.0,0.0,0.0,0.0,0.0,0.0,0.0,0.0,0.0,0.0,0.0,0.0,0.0,0.0,0.0,0.0,0.0,0.0,0.0,0.0,0.0,0.0,0.0,0.0,0.0,0.0,0.0,0.0,0.0,0.0,0.0,0.0,0.0,0.0,0.0,0.0,0.0,0.0,0.0,0.0,0.0,0.0,0.0,0.0,0.0,0.0,0.0,0.0,0.0,0.0,0.0,0.0,0.0,0.0,0.0,0.0,0.0,0.0,0.0,0.0,0.0,0.0,0.0,0.0,0.0,0.0,0.0,0.0,0.0,0.0,0.0,0.0,0.0,0.0,0.0,0.0,0.0,0.0,0.0,0.0,0.0,0.0,0.0,0.0,0.0,0.0,0.0,0.0,0.0,0.0,0.0,0.0,0.0,0.0,0.0,0.0,0.0,0.0,0.0,0.0,0.0,0.0,0.0,0.0,0.0,0.0,0.0,0.0,0.0,0.0,0.0,0.0,0.0,0.0,0.0,0.0,0.0,0.0,0.0,0.0,0.0,0.0,0.0,0.0,0.0,0.0,0.0,0.0,0.0,0.0,0.0,0.0,0.0,0.0,0.0,0.0,0.0,0.0,0.0,0.0,0.0,0.0,0.0,0.0,0.0,0.0,0.0,0.0,0.0,0.0,0.0,0.0,0.0,0.0,0.0,0.0,0.0,0.0,0.0,0.0,0.0,0.0,0.0,0.0,0.0,0.0,0.0,0.0,0.0,0.0,0.0,0.0,0.0,0.0,0.0,0.0,0.0,0.0,0.0,0.0,0.0,0.0,0.0,0.0,0.0,0.0,0.0,0.0,0.0,0.0,0.0,0.0,0.0,0.0,0.0,0.0,0.0,0.0,0.0,0.0,0.0,0.0,0.0,0.0,0.0,0.0,0.0,0.0,0.0,0.0,0.0,0.0,0.0,0.0,0.0,0.0,0.0,0.0,0.0,0.0,0.0,0.0,0.0,0.0,0.0,0.0,0.0,0.0,0.0,0.0,0.0,0.0,0.0,0.0,0.0,0.0,0.0,0.0,0.0,0.0,0.0,0.0,0.0,0.0,0.0,0.0,0.0,0.0,0.0,0.0,0.0,0.0,0.0,0.0,0.0,0.0,0.0,0.0,0.0,0.0,0.0,0.0,0.0,0.0,0.0,0.0,0.0,0.0,0.0,0.0,0.0,0.0,0.0,0.0,0.0,0.0,0.0,0.0,0.0,0.0,0.0,0.0,0.0,0.0,0.0,0.0,0.0,0.0,0.0,0.0,0.0,0.0,0.0,0.0,0.0,0.0,0.0,0.0,0.0,0.0,0.0,0.0,0.0,0.0,0.0,0.0,0.0,0.0,0.0,0.0,0.0,0.0,0.0,0.0,0.0,0.0,0.0,0.0,0.0,0.0,0.0,0.0,0.0,0.0,0.0,0.0,0.0,0.0,0.0,0.0,0.0,0.0,0.0,0.0,0.0,0.0,0.0,0.0,0.0,0.0,0.0,0.0,0.0,0.0,0.0,0.0,0.0,0.0,0.0,0.0,0.0,0.0,0.0,0.0,0.0,0.0,0.0,0.0,0.0,0.0,0.0,0.0,0.0,0.0,0.0,0.0,0.0,0.0,0.0,0.0,0.0,0.0,0.0,0.0,0.0,0.0,0.0,0.0,0.0,0.0,0.0,0.0,0.0,0.0,0.0,0.0,0.0,0.0,0.0,0.0,0.0,0.0,0.0,0.0,0.0,0.0,0.0,0.0,0.0,0.0,0.0,0.0,0.0,0.0,0.0,0.0,0.0,0.0,0.0,0.0,0.0,0.0,0.0,0.0,0.0,0.0,0.0,0.0,0.0,0.0,0.0,0.0,0.0,0.0,0.0,0.0,0.0,0.0,0.0,0.0,0.0,0.0,0.0,0.0,0.0,3.6781,0.0,0.0,0.0,0.0,0.0,0.0,0.0,0.0,0.0,0.0,0.0,0.0,0.0,0.0,0.0,0.0,0.0,0.0,0.0,0.0,0.0,0.0,0.0,0.0,0.0,0.0,0.0,0.0,0.0,0.0,0.0,0.0,0.0,0.0,0.0,0.0,0.0,0.0,0.0,0.0,0.0,0.0,0.0,0.0,0.0,0.0,0.0,0.0,0.0,0.0,0.0,0.0,0.0,0.0,0.0,0.0,0.0,0.0,0.0,0.0,0.0,0.0,0.0,0.0,0.0,0.0,0.0,0.0,0.0,0.0,0.0,0.0,0.0,0.0,0.0,0.0,0.0,0.0,0.0,0.0,0.0,0.0,0.0,0.0,0.0,0.0,0.0,0.0,0.0,0.0,0.0,0.0,0.0,0.0,0.0,0.0,0.0,0.0,0.0,0.0,0.0,0.0,0.0,0.0,0.0,0.0,0.0,0.0,0.0,0.0,4.0315,3.995,3.995,3.9373,3.818,0.0,0.0,0.0,0.0,0.0,0.0,0.0,0.0,0.0,0.0,0.0,0.0,0.0,0.0,0.0,0.0,0.0,0.0,0.0,0.0,0.0,0.0,0.0,0.0,0.0,0.0,0.0,0.0,0.0,0.0,0.0,0.0,0.0,0.0,0.0,0.0,0.0,0.0,0.0,0.0,0.0,0.0,0.0,0.0,0.0,0.0,0.0,0.0,0.0,0.0,0.0,0.0,0.0,0.0,0.0,0.0,0.0,0.0,0.0,0.0,0.0,0.0,0.0,0.0,0.0,0.0,0.0,0.0,0.0,0.0,0.0,0.0,0.0,0.0,0.0,0.0,0.0,0.0,0.0,0.0,0.0,0.0,0.0,0.0,0.0,0.0,0.0,0.0,0.0,0.0,0.0,0.0,0.0,0.0,0.0,0.0,0.0,0.0,0.0,0.0,0.0,0.0,0.0,0.0,0.0,0.0,0.0,0.0,0.0,0.0,0.0,0.0,4.1181,4.0604,3.9588,0.0,0.0,0.0,0.0,0.0,0.0,0.0,0.0,0.0,0.0,0.0,0.0,0.0,0.0,0.0,0.0,0.0,0.0,0.0,0.0,0.0,0.0,0.0,0.0,0.0,0.0,0.0,0.0,0.0,0.0,0.0,0.0,0.0,0.0,0.0,0.0,0.0,0.0,0.0,0.0,0.0,0.0,0.0,0.0,0.0,0.0,0.0,0.0,0.0,0.0,0.0,0.0,0.0,0.0,0.0,0.0,0.0,0.0,0.0,0.0,0.0,0.0,0.0,0.0,0.0,0.0,0.0,0.0,0.0,0.0,0.0,0.0,0.0,0.0,0.0,0.0,0.0,0.0,0.0,0.0,0.0,0.0,0.0,0.0,0.0,0.0,0.0,0.0,0.0,0.0,0.0,0.0,0.0,0.0,0.0,0.0,0.0,0.0,0.0,0.0,0.0,0.0,0.0,0.0,0.0,0.0,0.0,0.0,0.0,0.0,4.1604,4.3855,4.322,0.0,4.0444,0.0,0.0,0.0,0.0,0.0,0.0,0.0,0.0,0.0,0.0,0.0,0.0,0.0,0.0,0.0,0.0,0.0,0.0,0.0,0.0,0.0,0.0,0.0,0.0,0.0,0.0,0.0,0.0,0.0,0.0,0.0,0.0,0.0,0.0,0.0,0.0,0.0,0.0,0.0,0.0,0.0,0.0,0.0,0.0,0.0,0.0,0.0,0.0,0.0,0.0,0.0,0.0,0.0,0.0,0.0,0.0,0.0,0.0,0.0,0.0,0.0,0.0,0.0,0.0,0.0,0.0,0.0,0.0,0.0,0.0,0.0,0.0,0.0,0.0,0.0,0.0,0.0,0.0,0.0,0.0,0.0,0.0,0.0,0.0,0.0,0.0,0.0,0.0,0.0,0.0,0.0,0.0,0.0,0.0,0.0,0.0,0.0,0.0,0.0,0.0,0.0,0.0,0.0,0.0,0.0,0.0,0.0,0.0,0.0,0.0,4.1485,4.3547,4.3258,4.1816,0.0,0.0,0.0,0.0,0.0,0.0,0.0,0.0,0.0,0.0,0.0,0.0,0.0,0.0,0.0,0.0,0.0,0.0,0.0,0.0,0.0,0.0,0.0,0.0,0.0,0.0,0.0,0.0,0.0,0.0,0.0,0.0,0.0,0.0,0.0,0.0,0.0,0.0,0.0,0.0,0.0,0.0,0.0,0.0,0.0,0.0,0.0,0.0,0.0,0.0,0.0,0.0,0.0,0.0,0.0,0.0,0.0,0.0,0.0,0.0,0.0,0.0,0.0,0.0,0.0,0.0,0.0,0.0,0.0,0.0,0.0,0.0,0.0,0.0,0.0,0.0,0.0,0.0,0.0,0.0,0.0,0.0,0.0,0.0,0.0,0.0,0.0,0.0,0.0,0.0,0.0,0.0,0.0,0.0,0.0,0.0,0.0,0.0,0.0,0.0,0.0,0.0,0.0,0.0,0.0,0.0,0.0,0.0,0.0,0.0,4.1013,4.1796,4.3624,4.2874,4.1239,3.8762,0.0,0.0,0.0,0.0,0.0,0.0,0.0,0.0,0.0,0.0,0.0,0.0,0.0,0.0,0.0,0.0,0.0,0.0,0.0,0.0,0.0,0.0,0.0,0.0,0.0,0.0,0.0,0.0,0.0,0.0,0.0,0.0,0.0,0.0,0.0,0.0,0.0,0.0,0.0,0.0,0.0,0.0,0.0,0.0,0.0,0.0,0.0,0.0,0.0,0.0,0.0,0.0,0.0,0.0,0.0,0.0,0.0,0.0,0.0,0.0,0.0,0.0,0.0,0.0,0.0,0.0,0.0,0.0,0.0,0.0,0.0,0.0,0.0,0.0,0.0,0.0,0.0,0.0,0.0,0.0,0.0,0.0,0.0,0.0,0.0,0.0,0.0,0.0,0.0,0.0,0.0,0.0,0.0,0.0,0.0,0.0,0.0,0.0,0.0,0.0,0.0,0.0,0.0,0.0,0.0,0.0,0.0,0.0,4.5803,4.3271,4.2904,4.524,4.2316,4.0531,0.0,0.0,0.0,0.0,0.0,0.0,0.0,0.0,0.0,0.0,0.0,0.0,0.0,0.0,0.0,0.0,0.0,0.0,0.0,0.0,0.0,0.0,0.0,0.0,0.0,0.0,0.0,0.0,0.0,0.0,0.0,0.0,0.0,0.0,0.0,0.0,0.0,0.0,0.0,0.0,0.0,0.0,0.0,0.0,0.0,0.0,0.0,0.0,0.0,0.0,0.0,0.0,0.0,0.0,0.0,0.0,0.0,0.0,0.0,0.0,0.0,0.0,0.0,0.0,0.0,0.0,0.0,0.0,0.0,0.0,0.0,0.0,0.0,0.0,0.0,0.0,0.0,0.0,0.0,0.0,0.0,0.0,0.0,0.0,0.0,0.0,0.0,0.0,0.0,0.0,0.0,0.0,0.0,0.0,0.0,0.0,0.0,0.0,0.0,0.0,0.0,0.0,0.0,0.0,0.0,0.0,0.0,0.0,0.0,4.0219,4.1231,4.2225,4.3085,4.197,4.0835,0.0,0.0,0.0,0.0,0.0,0.0,0.0,0.0,0.0,0.0,0.0,0.0,0.0,0.0,0.0,0.0,0.0,0.0,0.0,0.0,0.0,0.0,0.0,0.0,0.0,0.0,0.0,0.0,0.0,0.0,0.0,0.0,0.0,0.0,0.0,0.0,0.0,0.0,0.0,0.0,0.0,0.0,0.0,0.0,0.0,0.0,0.0,0.0,0.0,0.0,0.0,0.0,0.0,0.0,0.0,0.0,0.0,0.0,0.0,0.0,0.0,0.0,0.0,0.0,0.0,0.0,0.0,0.0,0.0,0.0,0.0,0.0,0.0,0.0,0.0,0.0,0.0,0.0,0.0,0.0,0.0,0.0,0.0,0.0,0.0,0.0,0.0,0.0,0.0,0.0,0.0,0.0,0.0,0.0,0.0,0.0,0.0,0.0,0.0,0.0,0.0,0.0,0.0,0.0,0.0,0.0,0.0,0.0,0.0,3.7974,0.0,4.2203,4.2181,4.1412,4.0335,0.0,0.0,0.0,0.0,0.0,0.0,0.0,0.0,0.0,0.0,0.0,0.0,0.0,0.0,0.0,0.0,0.0,0.0,0.0,0.0,0.0,0.0,0.0,0.0,0.0,0.0,0.0,0.0,0.0,0.0,0.0,0.0,0.0,0.0,0.0,0.0,0.0,0.0,0.0,0.0,0.0,0.0,0.0,0.0,0.0,0.0,0.0,0.0,0.0,0.0,0.0,0.0,0.0,0.0,0.0,0.0,0.0,0.0,0.0,0.0,0.0,0.0,0.0,0.0,0.0,0.0,0.0,0.0,0.0,0.0,0.0,0.0,0.0,0.0,0.0,0.0,0.0,0.0,0.0,0.0,0.0,0.0,0.0,0.0,0.0,0.0,0.0,0.0,0.0,0.0,0.0,0.0,0.0,0.0,0.0,0.0,0.0,0.0,0.0,0.0,0.0,0.0,0.0,0.0,0.0,0.0,0.0,0.0,3.7009,4.0281,4.2021,4.2919,4.3047,4.0681,3.8931,0.0,0.0,0.0,0.0,0.0,0.0,0.0,0.0,0.0,0.0,0.0,0.0,0.0,0.0,0.0,0.0,0.0,0.0,0.0,0.0,0.0,0.0,0.0,0.0,0.0,0.0,0.0,0.0,0.0,0.0,0.0,0.0,0.0,0.0,0.0,0.0,0.0,0.0,0.0,0.0,0.0,0.0,0.0,0.0,0.0,0.0,0.0,0.0,0.0,0.0,0.0,0.0,0.0,0.0,0.0,0.0,0.0,0.0,0.0,0.0,0.0,0.0,0.0,0.0,0.0,0.0,0.0,0.0,0.0,0.0,0.0,0.0,0.0,0.0,0.0,0.0,0.0,0.0,0.0,0.0,0.0,0.0,0.0,0.0,0.0,0.0,0.0,0.0,0.0,0.0,0.0,0.0,0.0,0.0,0.0,0.0,0.0,0.0,0.0,0.0,0.0,0.0,0.0,0.0,0.0,0.0,0.0,0.0,0.0,3.8687,4.0383,4.2415,4.4547,4.0642,3.9373,0.0,0.0,0.0,0.0,0.0,0.0,0.0,0.0,0.0,0.0,0.0,0.0,0.0,0.0,0.0,0.0,0.0,0.0,0.0,0.0,0.0,0.0,0.0,0.0,0.0,0.0,0.0,0.0,0.0,0.0,0.0,0.0,0.0,0.0,0.0,0.0,0.0,0.0,0.0,0.0,0.0,0.0,0.0,0.0,0.0,0.0,0.0,0.0,0.0,0.0,0.0,0.0,0.0,0.0,0.0,0.0,0.0,0.0,0.0,0.0,0.0,0.0,0.0,0.0,0.0,0.0,0.0,0.0,0.0,0.0,0.0,0.0,0.0,0.0,0.0,0.0,0.0,0.0,0.0,0.0,0.0,0.0,0.0,0.0,0.0,0.0,0.0,0.0,0.0,0.0,0.0,0.0,0.0,0.0,0.0,0.0,0.0,0.0,0.0,0.0,0.0,0.0,0.0,0.0,0.0,0.0,0.0,0.0,0.0,3.9799,4.088,4.247,4.4605,4.1258,4.0123,4.1527,0.0,0.0,0.0,0.0,0.0,0.0,0.0,0.0,0.0,0.0,0.0,0.0,0.0,0.0,0.0,0.0,0.0,0.0,0.0,0.0,0.0,0.0,0.0,0.0,0.0,0.0,0.0,0.0,0.0,0.0,0.0,0.0,0.0,0.0,0.0,0.0,0.0,0.0,0.0,0.0,0.0,0.0,0.0,0.0,0.0,0.0,0.0,0.0,0.0,0.0,0.0,0.0,0.0,0.0,0.0,0.0,0.0,0.0,0.0,0.0,0.0,0.0,0.0,0.0,0.0,0.0,0.0,0.0,0.0,0.0,0.0,0.0,0.0,0.0,0.0,0.0,0.0,0.0,0.0,0.0,0.0,0.0,0.0,0.0,0.0,0.0,0.0,0.0,0.0,0.0,0.0,0.0,0.0,0.0,0.0,0.0,0.0,0.0,0.0,0.0,0.0,0.0,0.0,0.0,0.0,0.0,0.0,0.0,4.3118,4.338,4.3547,4.3547,4.245,4.1143,0.0,0.0,0.0,0.0,0.0,0.0,0.0,0.0,0.0,0.0,0.0,0.0,0.0,0.0,0.0,0.0,0.0,0.0,0.0,0.0,0.0,0.0,0.0,0.0,0.0,0.0,0.0,0.0,0.0,0.0,0.0,0.0,0.0,0.0,0.0,0.0,0.0,0.0,0.0,0.0,0.0,0.0,0.0,0.0,0.0,0.0,0.0,0.0,0.0,0.0,0.0,0.0,0.0,0.0,0.0,0.0,0.0,0.0,0.0,0.0,0.0,0.0,0.0,0.0,0.0,0.0,0.0,0.0,0.0,0.0,0.0,0.0,0.0,0.0,0.0,0.0,0.0,0.0,0.0,0.0,0.0,0.0,0.0,0.0,0.0,0.0,0.0,0.0,0.0,0.0,0.0,0.0,0.0,0.0,0.0,0.0,0.0,0.0,0.0,0.0,0.0,0.0,0.0,0.0,0.0,0.0,0.0,0.0,0.0,4.5819,4.7702,4.8413,4.7702,4.4509,4.2835,0.0,0.0,0.0,0.0,0.0,0.0,0.0,0.0,0.0,0.0,0.0,0.0,0.0,0.0,0.0,0.0,0.0,0.0,0.0,0.0,0.0,0.0,0.0,0.0,0.0,0.0,0.0,0.0,0.0,0.0,0.0,0.0,0.0,0.0,0.0,0.0,0.0,0.0,0.0,0.0,0.0,0.0,0.0,0.0,0.0,0.0,0.0,0.0,0.0,0.0,0.0,0.0,0.0,0.0,0.0,0.0,0.0,0.0,0.0,0.0,0.0,0.0,0.0,0.0,0.0,0.0,0.0,0.0,0.0,0.0,0.0,0.0,0.0,0.0,0.0,0.0,0.0,0.0,0.0,0.0,0.0,0.0,0.0,0.0,0.0,0.0,0.0,0.0,0.0,0.0,0.0,0.0,0.0,0.0,0.0,0.0,0.0,0.0,0.0,0.0,0.0,0.0,0.0,0.0,0.0,0.0,0.0,0.0,4.5784,4.8375,5.1298,5.2414,5.1568,4.8144,4.549,0.0,0.0,0.0,0.0,0.0,0.0,0.0,0.0,0.0,0.0,0.0,0.0,0.0,0.0,0.0,0.0,0.0,0.0,0.0,0.0,0.0,0.0,0.0,0.0,0.0,0.0,0.0,0.0,0.0,0.0,0.0,0.0,0.0,0.0,0.0,0.0,0.0,0.0,0.0,0.0,0.0,0.0,0.0,0.0,0.0,0.0,0.0,0.0,0.0,0.0,0.0,0.0,0.0,0.0,0.0,0.0,0.0,0.0,0.0,0.0,0.0,0.0,0.0,0.0,0.0,0.0,0.0,0.0,0.0,0.0,0.0,0.0,0.0,0.0,0.0,0.0,0.0,0.0,0.0,0.0,0.0,0.0,0.0,0.0,0.0,0.0,0.0,0.0,0.0,0.0,0.0,0.0,0.0,0.0,0.0,0.0,0.0,0.0,0.0,0.0,0.0,0.0,0.0,0.0,0.0,0.0,0.0,0.0,4.8124,5.0753,5.4007,5.5338,5.4587,5.2087,4.8394,0.0,0.0,0.0,0.0,0.0,0.0,0.0,0.0,0.0,0.0,0.0,0.0,0.0,0.0,0.0,0.0,0.0,0.0,0.0,0.0,0.0,0.0,0.0,0.0,0.0,0.0,0.0,0.0,0.0,0.0,0.0,0.0,0.0,0.0,0.0,0.0,0.0,0.0,0.0,0.0,0.0,0.0,0.0,0.0,0.0,0.0,0.0,0.0,0.0,0.0,0.0,0.0,0.0,0.0,0.0,0.0,0.0,0.0,0.0,0.0,0.0,0.0,0.0,0.0,0.0,0.0,0.0,0.0,0.0,0.0,0.0,0.0,0.0,0.0,0.0,0.0,0.0,0.0,0.0,0.0,0.0,0.0,0.0,0.0,0.0,0.0,0.0,0.0,0.0,0.0,0.0,0.0,0.0,0.0,0.0,0.0,0.0,0.0,0.0,0.0,0.0,0.0,0.0,0.0,0.0,0.0,0.0,0.0,4.9355,5.2546,5.4645,5.5607,5.5415,5.2356,4.8913,0.0,0.0,0.0,0.0,0.0,0.0,0.0,0.0,0.0,0.0,0.0,0.0,0.0,0.0,0.0,0.0,0.0,0.0,0.0,0.0,0.0,0.0,0.0,0.0,0.0,0.0,0.0,0.0,0.0,0.0,0.0,0.0,0.0,0.0,0.0,0.0,0.0,0.0,0.0,0.0,0.0,0.0,0.0,0.0,0.0,0.0,0.0,0.0,4.031,0.0,0.0,0.0,0.0,0.0,0.0,0.0,0.0,0.0,0.0,0.0,0.0,0.0,0.0,0.0,0.0,0.0,0.0,0.0,0.0,0.0,0.0,0.0,0.0,0.0,0.0,0.0,0.0,0.0,0.0,0.0,0.0,0.0,0.0,0.0,0.0,0.0,0.0,0.0,0.0,0.0,0.0,0.0,0.0,0.0,0.0,0.0,0.0,0.0,0.0,0.0,0.0,0.0,0.0,0.0,0.0,0.0,0.0,0.0,4.9951,5.3661,5.5816,5.6722,5.6222,5.3414,5.0087,0.0,0.0,0.0,0.0,0.0,0.0,0.0,0.0,0.0,0.0,0.0,0.0,0.0,0.0,0.0,0.0,0.0,0.0,0.0,0.0,0.0,0.0,0.0,0.0,0.0,0.0,0.0,0.0,0.0,0.0,0.0,0.0,0.0,0.0,0.0,0.0,0.0,0.0,0.0,0.0,0.0,0.0,0.0,0.0,0.0,0.0,0.0,0.0,0.0,0.0,0.0,0.0,0.0,0.0,0.0,0.0,0.0,0.0,0.0,0.0,0.0,0.0,0.0,0.0,0.0,0.0,0.0,0.0,0.0,0.0,0.0,0.0,0.0,0.0,0.0,0.0,0.0,0.0,0.0,0.0,0.0,0.0,0.0,0.0,0.0,0.0,0.0,0.0,0.0,0.0,0.0,0.0,0.0,0.0,0.0,0.0,0.0,0.0,0.0,0.0,0.0,0.0,0.0,0.0,0.0,0.0,0.0,4.7242,5.0335,5.4446,5.6758,5.755,5.678,5.4203,5.101,4.7278,0.0,0.0,0.0,0.0,0.0,0.0,0.0,0.0,0.0,0.0,0.0,0.0,0.0,0.0,0.0,0.0,0.0,0.0,0.0,0.0,0.0,0.0,0.0,0.0,0.0,0.0,0.0,0.0,0.0,0.0,0.0,0.0,0.0,0.0,0.0,0.0,0.0,0.0,3.796,3.9582,0.0,0.0,0.0,0.0,0.0,0.0,0.0,0.0,4.0705,0.0,0.0,0.0,0.0,0.0,0.0,0.0,0.0,0.0,0.0,0.0,0.0,0.0,0.0,0.0,0.0,0.0,0.0,0.0,0.0,0.0,0.0,0.0,0.0,0.0,0.0,0.0,0.0,0.0,0.0,0.0,0.0,0.0,0.0,0.0,0.0,0.0,0.0,0.0,0.0,0.0,0.0,0.0,0.0,0.0,0.0,0.0,0.0,0.0,0.0,0.0,0.0,0.0,0.0,0.0,0.0,4.9351,4.9278,5.1241,5.5357,5.5915,5.6049,5.5818,5.2799,5.0106,4.7971,0.0,0.0,0.0,0.0,0.0,0.0,0.0,0.0,0.0,0.0,0.0,0.0,0.0,0.0,0.0,0.0,0.0,0.0,0.0,0.0,0.0,0.0,0.0,0.0,0.0,0.0,0.0,0.0,0.0,0.0,0.0,0.0,0.0,0.0,0.0,0.0,0.0,0.0,0.0,4.1323,4.2144,0.0,0.0,0.0,0.0,0.0,0.0,0.0,0.0,4.1138,0.0,0.0,0.0,0.0,0.0,0.0,0.0,0.0,0.0,0.0,0.0,0.0,0.0,0.0,0.0,0.0,0.0,0.0,0.0,0.0,0.0,0.0,0.0,0.0,0.0,0.0,0.0,0.0,0.0,0.0,0.0,0.0,0.0,0.0,0.0,0.0,0.0,0.0,0.0,0.0,0.0,0.0,0.0,0.0,0.0,0.0,0.0,0.0,0.0,0.0,0.0,0.0,0.0,0.0,0.0,4.9428,4.9548,5.1433,5.553,5.6148,5.5974,5.5068,5.2222,4.9875,0.0,0.0,0.0,0.0,0.0,0.0,0.0,0.0,0.0,0.0,0.0,0.0,0.0,0.0,0.0,0.0,0.0,0.0,0.0,0.0,0.0,0.0,0.0,0.0,0.0,0.0,0.0,0.0,0.0,0.0,0.0,0.0,0.0,0.0,0.0,0.0,0.0,0.0,0.0,0.0,4.1475,4.2412,4.1166,0.0,0.0,0.0,0.0,0.0,0.0,4.108,4.1283,0.0,0.0,0.0,0.0,0.0,0.0,0.0,0.0,0.0,0.0,0.0,0.0,0.0,0.0,0.0,0.0,0.0,0.0,0.0,0.0,0.0,0.0,0.0,0.0,0.0,0.0,0.0,0.0,0.0,0.0,0.0,0.0,0.0,0.0,0.0,0.0,0.0,0.0,0.0,0.0,0.0,0.0,0.0,0.0,0.0,0.0,0.0,0.0,0.0,0.0,0.0,0.0,0.0,0.0,0.0,4.8738,4.9413,5.153,5.528,5.6302,5.6013,5.4511,5.2029,4.9875,0.0,0.0,0.0,0.0,0.0,0.0,0.0,0.0,0.0,0.0,0.0,0.0,0.0,0.0,0.0,0.0,0.0,0.0,0.0,0.0,0.0,0.0,0.0,0.0,0.0,0.0,0.0,0.0,0.0,0.0,0.0,0.0,0.0,0.0,0.0,0.0,0.0,0.0,0.0,0.0,0.0,4.3005,4.1165,4.2506,0.0,0.0,0.0,0.0,4.0605,4.192,0.0,0.0,0.0,0.0,0.0,0.0,0.0,0.0,0.0,0.0,0.0,0.0,0.0,0.0,0.0,0.0,0.0,0.0,0.0,0.0,0.0,0.0,0.0,0.0,0.0,0.0,0.0,0.0,0.0,0.0,0.0,0.0,0.0,0.0,0.0,0.0,0.0,0.0,0.0,0.0,0.0,0.0,0.0,0.0,0.0,0.0,0.0,0.0,0.0,0.0,0.0,0.0,0.0,0.0,0.0,0.0,4.8067,4.974,5.1876,5.4511,5.5415,5.5415,5.4491,5.2029,4.9875,0.0,0.0,0.0,0.0,0.0,0.0,0.0,0.0,0.0,0.0,0.0,0.0,0.0,0.0,0.0,0.0,0.0,0.0,0.0,0.0,0.0,0.0,0.0,0.0,0.0,0.0,0.0,0.0,0.0,0.0,0.0,0.0,0.0,0.0,0.0,0.0,0.0,0.0,0.0,0.0,0.0,4.5381,4.2946,4.4767,4.5457,0.0,0.0,4.4995,4.4784,4.6223,0.0,0.0,0.0,0.0,0.0,0.0,0.0,0.0,0.0,0.0,0.0,0.0,0.0,0.0,0.0,0.0,0.0,0.0,0.0,0.0,0.0,0.0,0.0,0.0,0.0,0.0,0.0,0.0,0.0,0.0,0.0,0.0,0.0,0.0,0.0,0.0,0.0,0.0,0.0,0.0,0.0,0.0,0.0,0.0,0.0,0.0,0.0,0.0,0.0,0.0,0.0,0.0,0.0,0.0,0.0,4.4783,4.8546,4.9529,5.1183,5.3645,5.4107,5.3664,5.2356,4.9875,4.8182,0.0,0.0,0.0,0.0,0.0,0.0,0.0,0.0,0.0,0.0,0.0,0.0,0.0,0.0,0.0,0.0,0.0,0.0,0.0,0.0,0.0,0.0,0.0,0.0,0.0,0.0,0.0,0.0,0.0,0.0,0.0,0.0,0.0,0.0,0.0,0.0,0.0,0.0,0.0,0.0,0.0,0.0,4.3961,4.5898,0.0,0.0,0.0,4.6646,4.5648,0.0,0.0,0.0,0.0,0.0,0.0,0.0,0.0,0.0,0.0,0.0,0.0,0.0,0.0,0.0,0.0,0.0,0.0,0.0,0.0,0.0,0.0,0.0,0.0,0.0,0.0,0.0,0.0,0.0,0.0,0.0,0.0,0.0,0.0,0.0,0.0,0.0,0.0,0.0,0.0,0.0,0.0,0.0,0.0,0.0,0.0,0.0,0.0,0.0,0.0,0.0,0.0,0.0,0.0,0.0,0.0,0.0,4.8815,4.924,5.0529,5.2779,5.3107,5.2415,5.0721,4.8413,0.0,0.0,0.0,0.0,0.0,0.0,0.0,0.0,0.0,0.0,0.0,0.0,0.0,0.0,0.0,0.0,0.0,0.0,0.0,0.0,0.0,0.0,0.0,0.0,0.0,0.0,0.0,3.4611,0.0,0.0,0.0,0.0,0.0,0.0,0.0,0.0,0.0,0.0,0.0,0.0,0.0,0.0,4.6532,4.513,4.73,4.8606,0.0,0.0,4.8529,4.7031,4.7741,4.7336,0.0,0.0,0.0,0.0,0.0,0.0,0.0,0.0,0.0,0.0,0.0,0.0,0.0,0.0,0.0,0.0,0.0,0.0,0.0,0.0,0.0,0.0,0.0,0.0,0.0,0.0,0.0,0.0,0.0,0.0,0.0,0.0,0.0,0.0,0.0,0.0,0.0,0.0,0.0,0.0,0.0,0.0,0.0,0.0,0.0,0.0,0.0,0.0,0.0,0.0,0.0,0.0,0.0,0.0,0.0,4.8126,4.899,5.0221,5.1952,5.2762,5.2396,5.0741,4.8971,4.7663,0.0,0.0,0.0,0.0,0.0,0.0,0.0,0.0,0.0,0.0,0.0,0.0,0.0,0.0,0.0,0.0,0.0,0.0,0.0,0.0,0.0,0.0,0.0,0.0,0.0,0.0,0.0,0.0,0.0,0.0,0.0,0.0,0.0,0.0,0.0,0.0,0.0,0.0,0.0,0.0,0.0,4.7607,4.6743,4.9489,5.1603,0.0,0.0,5.1353,5.0471,5.1664,5.0837,4.5143,0.0,0.0,0.0,0.0,0.0,0.0,0.0,0.0,0.0,0.0,0.0,0.0,0.0,0.0,0.0,0.0,0.0,0.0,0.0,0.0,0.0,0.0,0.0,0.0,0.0,0.0,0.0,0.0,0.0,0.0,0.0,0.0,0.0,0.0,0.0,0.0,0.0,0.0,0.0,0.0,0.0,0.0,0.0,0.0,0.0,0.0,0.0,0.0,0.0,0.0,0.0,0.0,0.0,4.5895,4.8049,4.8433,4.9433,5.1068,5.1491,5.0837,4.9144,4.7971,4.6721,0.0,0.0,0.0,0.0,0.0,0.0,0.0,0.0,0.0,0.0,0.0,0.0,0.0,0.0,0.0,0.0,0.0,0.0,0.0,0.0,0.0,0.0,0.0,0.0,0.0,0.0,0.0,0.0,3.6983,3.7224,3.7777,0.0,0.0,0.0,0.0,0.0,0.0,0.0,0.0,0.0,0.0,4.9489,4.924,5.1202,0.0,0.0,5.1913,5.1625,5.0818,5.0779,4.974,4.6432,4.4874,0.0,0.0,0.0,0.0,0.0,0.0,0.0,0.0,0.0,0.0,0.0,0.0,0.0,0.0,0.0,0.0,0.0,0.0,0.0,0.0,0.0,0.0,0.0,0.0,0.0,0.0,0.0,0.0,0.0,0.0,0.0,0.0,0.0,0.0,0.0,0.0,0.0,0.0,0.0,0.0,0.0,0.0,0.0,0.0,0.0,0.0,0.0,0.0,0.0,0.0,0.0,0.0,4.5799,4.8068,4.8106,4.8952,5.0644,5.0683,4.9856,4.8182,4.7317,4.6201,0.0,0.0,0.0,0.0,0.0,0.0,0.0,0.0,0.0,0.0,0.0,0.0,0.0,0.0,0.0,0.0,0.0,0.0,0.0,0.0,0.0,0.0,0.0,0.0,0.0,0.0,0.0,0.0,3.7959,3.8334,3.9165,0.0,0.0,0.0,0.0,0.0,0.0,0.0,0.0,0.0,0.0,5.0432,5.0991,5.2299,5.3087,5.2722,5.2241,5.1702,5.1144,5.0337,4.9048,4.6874,0.0,0.0,0.0,0.0,0.0,0.0,0.0,0.0,0.0,0.0,0.0,0.0,0.0,0.0,0.0,0.0,0.0,0.0,0.0,0.0,0.0,0.0,0.0,0.0,0.0,0.0,0.0,0.0,0.0,0.0,0.0,0.0,0.0,0.0,0.0,0.0,0.0,0.0,0.0,0.0,0.0,0.0,0.0,0.0,0.0,0.0,0.0,0.0,0.0,0.0,0.0,0.0,0.0,4.6394,4.8067,4.8105,4.8952,5.0625,5.0683,4.9875,4.8163,4.7317,4.649,4.5586,0.0,0.0,0.0,0.0,0.0,0.0,0.0,0.0,0.0,0.0,0.0,0.0,0.0,0.0,0.0,0.0,0.0,0.0,0.0,0.0,0.0,0.0,0.0,0.0,0.0,0.0,3.8142,3.8027,3.8377,0.0,0.0,0.0,0.0,0.0,0.0,0.0,0.0,0.0,0.0,4.8241,4.9951,5.1625,5.2626,5.3453,5.4241,5.2972,5.1875,5.1818,5.1144,4.9529,0.0,0.0,0.0,0.0,0.0,0.0,0.0,0.0,0.0,0.0,0.0,0.0,0.0,0.0,0.0,0.0,0.0,0.0,0.0,0.0,0.0,0.0,0.0,0.0,0.0,0.0,0.0,0.0,4.6144,0.0,0.0,0.0,0.0,0.0,0.0,0.0,0.0,0.0,0.0,0.0,4.5064,4.5131,0.0,0.0,0.0,0.0,0.0,0.0,0.0,0.0,0.0,0.0,0.0,0.0,4.6413,4.8009,4.8105,4.8952,5.0625,5.0683,4.9875,4.8163,4.7836,4.7028,4.5643,0.0,0.0,0.0,0.0,0.0,0.0,0.0,0.0,0.0,0.0,0.0,0.0,0.0,0.0,0.0,0.0,0.0,0.0,0.0,0.0,0.0,0.0,0.0,0.0,0.0,4.0004,0.0,0.0,0.0,0.0,0.0,0.0,0.0,0.0,0.0,0.0,0.0,4.4592,4.6551,4.8798,5.0625,5.176,5.2645,5.3318,0.0,0.0,0.0,0.0,0.0,0.0,0.0,0.0,0.0,0.0,0.0,0.0,0.0,0.0,4.8068,4.5225,4.4477,4.444,4.4959,0.0,0.0,0.0,0.0,0.0,0.0,0.0,0.0,0.0,0.0,0.0,0.0,0.0,0.0,0.0,0.0,4.6085,0.0,0.0,0.0,0.0,0.0,0.0,0.0,0.0,4.5733,4.5944,4.6477,4.5995,4.5878,0.0,4.6002,4.5512,0.0,0.0,0.0,0.0,0.0,0.0,0.0,0.0,4.6463,4.8144,4.8158,4.8816,5.0256,5.0278,4.9432,4.7759,4.7394,4.6567,4.5182,4.4893,4.4605,0.0,0.0,0.0,0.0,0.0,0.0,0.0,0.0,0.0,0.0,0.0,0.0,0.0,0.0,0.0,0.0,0.0,0.0,0.0,0.0,0.0,0.0,0.0,4.0604,0.0,0.0,0.0,0.0,0.0,0.0,0.0,0.0,0.0,4.5167,4.4937,4.5723,4.8241,4.9529,5.0741,5.2164,0.0,0.0,0.0,0.0,0.0,0.0,0.0,5.0721,5.0702,5.0491,5.051,5.1029,5.1375,5.1279,5.0414,0.0,0.0,4.7069,4.6281,4.6243,4.6762,4.7549,4.8222,4.8432,4.8759,4.9048,0.0,0.0,0.0,0.0,0.0,0.0,0.0,0.0,4.6374,4.6843,0.0,4.669,0.0,0.0,0.0,0.0,0.0,0.0,0.0,0.0,4.715,4.7623,4.7623,4.7604,4.7198,4.6413,4.6242,4.5703,4.4871,4.4709,0.0,0.0,0.0,0.0,0.0,0.0,4.6592,4.8402,4.8292,4.8636,4.9629,4.9502,4.8624,4.699,4.6067,4.524,4.4432,4.5143,4.5201,4.4393,4.5143,0.0,0.0,0.0,0.0,0.0,0.0,0.0,0.0,0.0,0.0,0.0,0.0,0.0,0.0,0.0,0.0,0.0,0.0,0.0,0.0,4.0585,0.0,0.0,0.0,0.0,0.0,0.0,0.0,0.0,0.0,0.0,4.6951,4.6259,4.7182,5.1164,0.0,0.0,0.0,0.0,5.3549,5.4414,5.453,5.4222,5.3395,5.4568,5.4472,5.1414,0.0,0.0,5.2279,5.2683,5.2953,5.2125,5.2029,5.1741,5.0991,5.0048,4.949,4.9529,5.026,5.0529,4.9856,5.0414,5.0683,4.9212,0.0,0.0,0.0,0.0,4.8096,4.8447,4.8915,4.7744,4.7686,4.8369,4.6924,0.0,0.0,0.0,0.0,0.0,0.0,4.6903,4.7072,4.7989,4.8415,4.8447,4.8466,4.8291,4.7998,4.7333,4.654,4.5578,4.4994,4.4997,4.5507,0.0,0.0,0.0,0.0,4.7326,4.8433,4.8948,4.962,5.0534,4.9787,4.8584,4.6932,4.6047,4.547,4.524,4.547,4.549,4.522,4.547,0.0,0.0,0.0,0.0,0.0,0.0,0.0,0.0,0.0,0.0,0.0,0.0,0.0,0.0,0.0,0.0,0.0,0.0,0.0,4.2277,4.2354,4.245,0.0,0.0,0.0,0.0,0.0,0.0,0.0,0.0,0.0,4.9316,4.8297,4.7836,0.0,0.0,5.0798,5.2106,5.3337,5.4414,5.5241,0.0,0.0,0.0,5.4893,5.472,5.4318,5.4895,5.4991,5.3953,5.3972,5.4049,5.3799,5.376,5.3837,5.4126,5.3087,5.2164,5.2202,5.3241,5.3953,5.328,5.326,5.3318,5.294,5.1297,5.0262,4.9836,4.9836,4.9829,4.9946,5.0028,4.9032,4.8876,4.9228,4.7881,4.7295,4.7256,4.6807,0.0,0.0,0.0,4.8037,4.8482,4.9006,4.9455,4.9794,4.9425,4.9211,4.9126,4.821,4.7456,4.6911,4.6085,4.5938,4.6376,0.0,0.0,4.6076,4.6824,4.766,4.86,4.9265,4.987,5.0428,4.9434,4.8256,4.6971,4.6394,4.5951,4.5605,4.5586,4.5586,4.5586,4.5586,4.5355,0.0,0.0,0.0,0.0,0.0,0.0,0.0,0.0,0.0,0.0,0.0,4.2989,4.1643,0.0,0.0,0.0,4.2008,4.2643,4.3489,4.3297,0.0,0.0,0.0,0.0,0.0,0.0,0.0,4.6448,4.7663,4.8856,5.0028,5.0144,5.001,4.9663,5.024,5.1221,5.2722,0.0,5.5491,5.6973,5.7206,5.7206,5.7203,5.7107,5.7143,5.7627,5.7126,5.6742,5.6549,5.6242,5.6011,5.6011,5.5992,5.6165,5.6646,5.6126,5.5184,5.4049,5.5049,5.5799,5.4741,5.4741,5.4895,5.6996,5.5391,5.2936,5.1804,5.1609,5.1605,5.1156,5.0414,5.034,5.0262,5.0145,4.9286,4.888,4.874,4.79,0.0,0.0,4.8798,4.9267,5.0106,5.0165,5.0633,5.1351,5.044,5.0004,4.9972,4.8907,4.845,4.8502,4.7584,4.7164,4.7264,4.5838,4.5552,4.6386,4.7022,4.7848,4.8873,4.9434,4.974,4.9742,4.8681,4.7721,4.6932,4.6836,4.6413,4.5643,4.5586,4.5586,4.5586,4.5586,4.5547,4.5509,0.0,0.0,0.0,0.0,0.0,0.0,0.0,0.0,0.0,0.0,0.0,0.0,0.0,0.0,0.0,4.3162,0.0,4.4335,4.3739,0.0,0.0,0.0,4.3912,4.5528,4.5701,4.6355,4.8009,0.0,0.0,0.0,0.0,5.2914,5.2106,5.1414,5.1837,5.4184,5.5299,5.6742,5.8896,5.9396,5.9473,5.9261,5.9838,6.0242,6.0223,5.9358,5.8473,5.8973,5.8646,5.83,5.83,5.8377,5.8415,5.8473,5.8896,5.8531,5.5415,5.6126,5.6722,5.5241,5.5338,5.5568,5.8558,5.8085,5.6821,5.5162,5.3381,5.3381,5.3264,5.301,5.239,5.1707,5.1023,5.0184,4.9427,4.8782,4.8564,4.858,4.8837,4.9481,4.9891,5.0145,5.0789,5.1199,5.1371,5.1044,5.0828,5.0665,4.9763,4.9261,4.9163,4.8381,4.8068,4.8165,4.7911,4.7562,4.7177,4.7995,4.8874,4.9774,5.0357,5.0286,4.95,4.8585,4.7721,4.6932,4.6259,4.5797,4.5605,4.5586,4.5586,4.5586,4.5586,4.5297,4.4643,4.522,0.0,0.0,0.0,0.0,0.0,0.0,0.0,0.0,0.0,4.4662,4.3201,0.0,4.3756,0.0,4.3662,4.4355,4.5201,4.5124,0.0,0.0,4.5105,4.5432,4.6471,4.6605,4.7221,4.8913,5.0048,5.0856,5.126,5.2414,5.3126,5.2933,5.3299,5.3818,5.4472,5.6376,5.7877,5.8492,5.9104,5.9488,5.955,5.9646,5.9838,5.98,5.8973,5.8396,5.855,5.8434,5.8492,5.9069,5.9204,5.9454,5.9992,5.9877,5.9031,5.778,5.8223,5.8396,5.6761,5.653,5.6395,6.0017,5.9627,5.9163,5.7914,5.6235,5.547,5.4943,5.4552,5.4068,5.3366,5.2507,5.1648,5.0988,5.052,5.0126,5.0165,5.0575,5.1023,5.1258,5.1277,5.1765,5.1765,5.139,5.1258,5.1171,5.1086,5.0487,5.0194,5.0067,4.9329,4.9021,4.9116,4.8841,4.8669,4.8625,4.9118,4.9618,5.0102,5.0699,5.0689,5.0067,4.9163,4.8279,4.7451,4.6624,4.599,4.5605,4.5586,4.5586,4.5586,4.5586,4.5374,4.4913,4.5336,4.5182,0.0,0.0,0.0,0.0,0.0,0.0,0.0,0.0,0.0,0.0,0.0,4.4699,0.0,4.4605,0.0,4.5547,4.5586,4.5586,4.5586,4.5932,4.6509,4.7355,4.7778,4.8529,4.9817,5.1048,5.1837,5.1952,5.3318,5.401,5.3337,5.426,5.503,5.5164,5.6626,5.7838,5.8242,5.8992,5.9642,6.0012,6.0089,5.9954,5.9569,5.9127,5.8723,5.8396,5.8607,5.8877,5.8973,5.9242,5.9511,5.9646,5.9338,5.8704,5.805,5.8069,5.7838,5.6684,5.6395,5.6242,6.1271,6.0564,6.0447,5.9944,5.9124,5.7465,5.6313,5.563,5.5513,5.4966,5.4108,5.3249,5.2858,5.2819,5.2078,5.2156,5.2858,5.2878,5.2858,5.2878,5.2858,5.2468,5.1722,5.159,5.1481,5.1364,5.1233,5.112,5.0984,5.0296,4.9985,5.0031,4.9373,4.9439,5.0223,5.0282,5.0262,5.0239,5.0743,5.0956,5.0894,4.9798,4.8875,4.8125,4.7221,4.6374,4.5624,4.5586,4.5586,4.5586,4.5586,4.5586,4.5586,4.5586,4.5586,0.0,4.5586,0.0,0.0,0.0,0.0,0.0,0.0,0.0,0.0,4.5586,4.5586,4.5586,4.5586,4.5586,4.5586,4.5586,4.5624,4.5759,4.6432,4.7259,4.8163,4.8952,4.974,5.0587,5.2164,5.2895,5.2318,5.4203,5.5088,5.3991,5.4761,5.5588,5.5742,5.6453,5.73,5.805,5.8819,5.9454,6.0127,6.0569,6.0473,5.9723,5.9473,5.9223,5.8415,5.8838,5.9108,5.8569,5.8858,5.9088,5.8415,5.8261,5.7896,5.7203,5.6992,5.6646,5.5972,5.5761,5.5684,6.1603,6.1388,6.07,6.029,6.0002,5.83,5.748,5.7289,5.6626,5.5864,5.5005,5.4127,5.3756,5.3737,5.358,5.3584,5.376,5.3756,5.3752,5.3752,5.3756,5.3678,5.3498,5.3384,5.2948,5.2258,5.2115,5.1687,5.0991,5.0856,5.0839,5.0951,5.0801,5.0887,0.0,0.0,0.0,0.0,5.0996,5.0966,5.0844,4.9234,4.8279,4.8067,4.6624,0.0,4.5605,4.5586,4.5586,4.5586,4.5586,0.0,0.0,0.0,0.0,0.0,0.0,0.0,0.0,0.0,0.0,0.0,4.5509,4.5586,4.5586,4.5586,4.5586,4.5586,4.5586,4.5586,4.5586,4.5586,4.5874,4.6567,4.6817,4.749,4.8933,4.9317,4.974,5.0606,5.2183,5.3145,5.3087,5.4568,5.5549,5.5222,5.5491,5.5684,5.5684,5.6415,5.7011,5.728,5.8011,5.8569,5.8739,5.9915,6.0339,5.9742,5.9511,5.9146,5.8415,5.8338,5.8511,5.8242,5.8434,5.8492,5.828,5.7742,5.7184,5.7011,5.6434,5.5895,5.5722,5.5684,5.5684,6.1701,0.0,6.1213,6.1037,0.0,5.9646,5.8846,5.8363,5.7133,5.6352,5.5923,5.5474,5.5044,5.4654,5.4635,5.44,5.399,5.399,5.3771,5.3362,5.3346,5.3346,5.3346,5.3284,5.3264,5.3229,5.3169,5.2688,5.1878,5.1824,5.1648,5.1297,5.1297,5.1336,5.1394,5.1394,5.1355,5.1297,5.1164,5.1083,5.0977,4.918,4.8208,4.815,0.0,0.0,0.0,0.0,0.0,0.0,0.0,0.0,0.0,0.0,0.0,4.5586,4.5586,4.5586,4.5586,4.5586,4.5586,4.5586,4.5586,4.5586,4.5586,4.5586,4.5586,4.5586,4.5586,4.5586,4.5586,4.5586,4.5951,4.6797,4.7259,4.8009,4.9183,4.9779,5.0202,5.0741,5.2183,5.3203,5.3222,5.4645,5.5626,5.5684,5.5684,5.5684,5.5722,5.6069,5.6453,5.6896,5.7319,5.7819,5.828,5.8915,5.9281,5.8492,5.8261,5.7915,5.7165,5.7357,5.755,5.7184,5.7338,5.755,5.7088,5.6626,5.6357,5.6319,5.5992,5.5703,5.5684,5.5684,5.5684,6.1701,6.1701,6.1701,6.1701,6.1642,6.0778,5.9905,5.8987,0.0,0.0,0.0,5.6606,5.6216,5.5548,5.5684,5.5274,5.4474,5.4596,5.4225,5.3405,5.3385,5.3385,5.3405,5.3385,5.3678,5.4225,5.4244,5.3776,5.2956,5.2917,5.2565,5.1902,5.1707,5.155,5.1394,5.1394,5.1394,5.139,5.1278,5.1206,5.1161,4.9329,4.8319,4.8309,4.6568,4.562,4.5586,4.5586,4.5586,4.5586,4.5586,4.5586,4.5586,4.5586,4.5586,4.5586,4.5586,4.5586,4.5586,4.5586,4.5586,4.5586,4.5586,4.5586,4.5586,4.5586,4.5586,4.5586,4.5586,4.5586,4.5586,4.574,4.6182,4.7028,4.7836,4.8682,4.9529,5.024,5.0644,5.0837,5.201,5.2953,5.2991,5.4395,5.5472,5.5491,5.5588,5.5684,5.5684,5.5722,5.5992,5.6549,5.6896,5.73,5.7857,5.828,5.7934,5.7319,5.7088,5.6684,5.6069,5.628,5.6415,5.5953,5.6319,5.6415,5.5876,5.578,5.5684,5.5684,5.5684,5.5684,5.5684,5.5684,5.5684,6.1701,6.1701,6.1701,6.1701,6.1642,6.0759,5.99,5.8968,5.7328,5.6606,5.6606,5.6606,5.6547,5.6469,5.7133,5.7016,5.6294,5.6942,5.6825,0.0,5.604,5.6059,5.6059,5.604,5.5728,5.5142,5.5123,5.4674,5.3889,5.3815,5.376,5.3526,5.2897,5.2136,5.1472,5.1394,5.1394,5.1394,5.1258,5.1222,5.1176,4.942,4.8412,4.8232,4.6675,4.5712,4.5603,4.5605,4.5586,4.5586,4.5586,4.5586,4.5586,4.5586,4.5586,4.5586,4.5586,4.5586,4.5586,4.5586,4.5586,4.5586,4.5586,4.5586,4.5586,4.5586,4.5586,4.5586,4.5586,4.5586,4.5643,4.6259,4.7009,4.7836,4.8702,4.9548,5.0356,5.0587,5.0683,5.0721,5.1491,5.2125,5.2318,5.3626,5.4664,5.4761,5.5184,5.5645,5.5607,5.5684,5.5742,5.5953,5.653,5.6992,5.7203,5.7838,5.7742,5.7146,5.6934,5.6626,5.5838,5.5838,5.5915,5.5722,5.5876,5.5857,5.5684,5.5684,5.5684,5.5684,5.5684,5.5684,5.5684,5.5684,5.5684,6.1701,6.1701,6.1701,6.1701,6.1622,6.0759,6.0173,5.971,5.8499,5.7953,5.7953,5.7953,5.7953,5.7992,5.8343,5.805,5.7265,5.7641,5.7113,5.5942,5.5884,5.5903,5.5903,5.5903,5.5923,5.6001,5.6012,5.5563,5.4771,5.4713,5.4232,5.3302,5.2417,5.1785,5.1453,5.1882,5.1863,5.1414,5.1352,5.1302,5.1283,5.0007,4.9245,4.911,4.7829,4.6866,4.6317,4.6297,4.6086,4.5605,4.5586,4.5586,4.5586,4.5586,4.5586,4.5586,4.5586,4.5586,4.5586,4.5586,4.5586,4.5586,4.5586,4.5586,4.5586,4.5586,4.5586,4.5586,4.5586,4.5797,4.6259,4.6663,4.7394,4.8682,4.9183,4.974,5.051,5.0683,5.0683,5.076,5.1414,5.1914,5.1914,5.301,5.378,5.3857,5.4511,5.503,5.5088,5.5453,5.5684,5.5722,5.6049,5.6261,5.6319,5.6588,5.6684,5.6319,5.628,5.6126,5.5742,5.5684,5.5684,5.5684,5.5684,5.5684,5.5684,5.5684,5.5684,5.5684,5.5684,5.5684,5.5684,5.5684,5.5684,6.1701,6.1701,6.1701,6.1701,6.1642,6.0974,6.07,6.0622,5.9963,5.969,5.9651,5.928,5.9104,5.9104,5.93,5.8909,5.8202,5.83,5.7597,5.6235,5.5962,5.5864,5.5806,5.5517,5.5657,5.6247,5.6312,5.596,5.5368,5.5497,5.4724,5.3095,5.2303,5.1902,5.1726,5.2351,5.237,5.1726,5.1492,5.1394,5.1375,5.0497,4.9948,4.978,4.8895,4.8034,4.727,4.7041,4.6619,4.5951,4.5701,4.5586,4.5586,4.5586,4.5603,4.5637,4.562,4.5586,4.5586,4.5586,4.5586,4.5586,4.5586,4.5586,4.5586,4.5586,4.5586,4.5586,4.5586,4.5951,4.6721,4.7105,4.7778,4.9202,4.9586,4.9971,5.0567,5.0683,5.0683,5.076,5.126,5.1606,5.1779,5.2375,5.3068,5.3587,5.4087,5.4511,5.478,5.5338,5.5645,5.5684,5.5684,5.5742,5.5684,5.5742,5.578,5.5684,5.5722,5.5742,5.5684,5.5684,5.5684,5.5684,5.5684,5.5684,5.5684,5.5684,5.5684,5.5684,5.5684,5.5684,5.5684,5.5684,5.5684,6.1701,6.1701,6.1701,6.1701,6.1681,6.1603,6.1544,6.1544,6.1466,6.1466,6.1232,5.9807,5.9163,5.9222,5.9963,5.9822,5.9119,5.9802,5.9607,5.8675,5.7933,5.7601,5.7469,5.6097,5.5347,5.5545,5.557,5.5631,5.5585,5.6158,5.5606,5.4052,5.3806,5.3327,5.2683,5.2663,5.2663,5.2565,5.1804,5.1394,5.1355,5.0551,5.0034,4.9976,4.9142,4.8506,4.8179,4.7448,4.7001,4.6738,4.6028,4.5605,4.5605,4.5605,4.5671,4.5757,4.5668,4.5586,4.5586,4.5586,4.5603,4.5586,4.5586,4.5586,4.5586,4.5586,4.5586,4.5586,4.5586,4.599,4.6817,4.7528,4.8355,4.9375,5.0087,5.0625,5.0664,5.0683,5.0683,5.0683,5.0818,5.0798,5.0971,5.1568,5.2587,5.3664,5.3991,5.4434,5.5068,5.5395,5.5626,5.5665,5.5684,5.5684,5.5684,5.5684,5.5684,5.5684,5.5684,5.5684,5.5684,5.5684,5.5684,5.5684,5.5684,5.5684,5.5684,5.5684,5.5684,5.5684,5.5684,5.5684,5.5684,5.5684,5.5684,6.1704,6.1701,6.1701,6.1701,6.1701,6.1701,6.1701,6.1701,6.1713,6.1713,6.1642,6.092,6.0627,6.0666,6.1017,6.0954,6.0661,6.1013,6.07,5.9885,5.9475,5.9104,5.8601,5.7981,5.7608,5.7539,5.7106,5.7109,5.75,5.7459,5.6749,5.5606,5.5029,5.4322,5.3522,5.3463,5.3229,5.2722,5.2839,5.2448,5.1472,5.1043,5.0806,5.0692,5.0346,4.9828,4.9232,4.8773,4.8319,4.7739,4.6848,4.6355,4.6355,4.5957,4.5742,4.58,4.5789,4.5713,4.5603,4.5668,4.5684,4.5603,4.5586,4.5586,4.5586,4.5586,4.5586,4.5586,4.5586,4.6124,4.7375,4.7913,4.8644,4.9894,5.0491,5.0683,5.0683,5.0683,5.0683,5.0683,5.0683,5.0683,5.0721,5.0991,5.1471,5.2222,5.2626,5.3376,5.4107,5.4645,5.5164,5.5568,5.5684,5.5684,5.5684,5.5684,5.5684,5.5684,5.5684,5.5684,5.5684,5.5684,5.5684,5.5684,5.5684,5.5684,5.5684,5.5684,5.5684,5.5684,5.5684,5.5684,5.5684,5.5684,5.5684,6.1912,6.1717,6.1705,6.1701,6.1701,6.1701,6.1705,6.1717,6.1701,6.1713,6.1701,6.1701,6.1705,6.1717,6.1717,6.1713,6.1701,6.1701,6.1369,6.0764,6.0534,5.9968,5.9226,5.8671,5.837,5.8105,5.7676,5.8086,5.8965,5.8318,5.7552,5.6917,5.6286,5.5673,5.5103,5.5025,5.4498,5.36,5.4264,5.3854,5.2409,5.2351,5.2079,5.1356,5.1252,5.0911,5.0237,4.9897,4.9414,4.8715,4.7793,4.7289,4.727,4.6766,4.6505,4.6519,4.6374,4.6352,4.6383,4.6448,4.6336,4.6053,4.5967,4.5836,4.5643,4.5586,4.5586,4.5586,4.5586,4.6278,4.7798,4.8105,4.8856,5.0414,5.0683,5.0683,5.0683,5.0683,5.0683,5.0683,5.0683,5.0683,5.0683,5.0721,5.0894,5.1241,5.1664,5.2222,5.3087,5.3991,5.4741,5.528,5.5511,5.5684,5.5684,5.5684,5.5684,5.5684,5.5684,5.5684,5.5684,5.5684,5.5684,5.5684,5.5684,5.5684,5.5684,5.5684,5.5684,5.5684,5.5684,5.5684,5.5684,5.5684,5.5684,6.2461,6.1758,6.1717,6.172,6.172,6.1701,6.1704,6.1698,6.1701,6.1701,6.1701,6.1701,6.1704,6.1698,6.1717,6.1711,6.1705,6.1701,6.1681,6.1486,6.0803,5.9999,5.9104,5.7534,5.6465,5.6484,5.6953,5.7812,5.916,5.8443,5.7893,5.787,5.7767,5.7656,5.7489,5.7387,5.6762,5.5435,5.5962,5.563,5.4225,5.4693,5.3912,5.1854,5.1429,5.1327,5.1055,5.0377,4.9915,4.9737,4.8786,4.8237,4.8217,4.8174,4.8141,4.8211,4.7687,4.7618,4.8133,4.8102,4.7748,4.712,4.6805,4.6451,4.5682,4.5586,4.5586,4.5586,4.5586,4.6278,4.7702,4.8067,4.8836,5.0414,5.0683,5.0683,5.0683,5.0683,5.0683,5.0683,5.0683,5.0683,5.0683,5.0683,5.101,5.1471,5.1818,5.2145,5.2933,5.3857,5.4318,5.4684,5.5164,5.5684,5.5684,5.5684,5.5684,5.5684,5.5684,5.5684,5.5684,5.5684,5.5684,5.5684,5.5684,5.5684,5.5684,5.5684,5.5684,5.5684,5.5684,5.5684,5.5684,5.5684,5.5684,6.2812,6.248,6.1931,6.2006,6.2455,6.1948,6.1716,6.1699,6.1716,6.1713,6.1713,6.1699,6.1716,6.1699,6.1711,6.1713,6.1701,6.1701,6.1701,6.1661,6.1377,6.1076,6.0756,6.0137,5.9726,5.9433,5.916,5.9336,5.9922,6.0173,6.0037,5.957,5.9472,5.921,5.864,5.8065,5.7465,5.7016,5.725,5.6801,5.5825,5.6469,5.5923,5.399,5.28,5.1932,5.1347,5.0959,5.0758,5.0694,4.9776,4.9239,4.9213,4.8796,4.8574,4.86,4.8431,4.836,4.8467,4.8448,4.8057,4.7207,4.6979,4.6567,4.5817,4.5586,4.5586,4.5586,4.5586,4.6163,4.7086,4.7798,4.8798,5.0298,5.0683,5.0644,5.0683,5.0683,5.0683,5.0683,5.0683,5.0683,5.0683,5.0683,5.0798,5.1048,5.1144,5.1529,5.2164,5.2683,5.3299,5.4222,5.4722,5.5107,5.5684,5.5684,5.5684,5.5684,5.5684,5.5684,5.5684,5.5607,5.5588,5.5645,5.5665,5.5626,5.5607,5.5684,5.5684,5.5684,5.5684,5.5684,5.5684,5.5684,5.5684,6.2832,6.2539,6.2246,6.2285,6.25,6.1953,6.1699,6.1699,6.1699,6.1699,6.1699,6.1699,6.1699,6.164,6.1408,6.1291,6.133,6.1544,6.1549,6.1287,6.1276,6.1135,6.0918,6.0898,6.0898,6.082,6.0586,6.0527,6.0859,6.1406,6.1387,6.0859,6.082,6.0524,5.9917,5.9339,5.8851,5.8402,5.848,5.8128,5.725,5.7797,5.7562,5.6196,5.4927,5.3502,5.196,5.2005,5.1785,5.1271,5.0625,5.0237,5.0189,4.9526,4.9243,4.949,4.9328,4.9299,4.9414,4.9382,4.898,4.8044,4.7577,4.6981,4.614,4.5757,4.5605,4.5624,4.5932,4.6374,4.7221,4.8048,4.8894,4.9779,5.0106,5.0144,4.9933,5.0106,5.0375,5.0625,5.0683,5.0683,5.0683,5.0683,5.0702,5.0683,5.0683,5.0971,5.1375,5.2087,5.2626,5.3876,5.4626,5.5145,5.5568,5.5684,5.5684,5.5684,5.5684,5.5684,5.5626,5.5549,5.553,5.5588,5.5588,5.553,5.5568,5.5665,5.5684,5.5684,5.5684,5.5684,5.5684,5.5684,5.5684,6.2539,6.1992,6.2637,6.2519,6.1973,6.1758,6.1699,6.1699,6.1699,6.1699,6.1699,6.166,6.1543,6.1465,6.0741,6.0388,6.0525,6.1198,6.1115,6.0465,6.0412,6.0025,5.9453,5.957,5.9668,5.9726,6.0156,6.0879,6.1582,6.166,6.164,6.166,6.1582,6.1484,6.1631,6.1299,6.0666,5.9631,5.9846,5.9475,5.8168,5.8753,5.8753,5.7855,5.7699,5.6235,5.3112,5.3635,5.3342,5.1952,5.1518,5.1281,5.1145,5.0408,5.0334,5.0908,5.0532,5.0551,5.1132,5.1057,5.0509,4.9612,4.8819,4.789,4.7022,4.6277,4.5855,4.6009,4.6509,4.7201,4.7971,4.8759,4.9067,4.8432,4.9221,4.9394,4.8779,4.899,4.976,5.0491,5.0683,5.0683,5.0683,5.0683,5.0683,5.0683,5.0702,5.0798,5.1125,5.2068,5.2953,5.3587,5.4395,5.5222,5.5491,5.5684,5.5684,5.5684,5.5684,5.5684,5.5588,5.5491,5.5472,5.5511,5.5415,5.5376,5.5607,5.5684,5.5684,5.5684,5.5684,5.5684,5.5684,5.5684,5.5684,6.3379,6.2637,6.2871,6.2871,6.2519,6.1953,6.1699,6.1699,6.1699,6.1699,6.1601,6.1074,6.0801,6.0625,5.994,5.9607,5.9651,6.0398,6.0364,5.9732,5.9622,5.9512,5.9394,5.9805,6.0351,6.0859,6.1152,6.1426,6.164,6.1699,6.1699,6.1699,6.1699,6.1699,6.167,6.1674,6.1076,6.0256,6.0861,6.0451,5.9007,6.0119,6.0139,5.9007,5.9827,5.9124,5.643,5.5942,5.5532,5.4888,5.4367,5.3498,5.2347,5.1405,5.1099,5.1312,5.116,5.1063,5.1312,5.1265,5.0844,5.0072,4.9465,4.879,4.8004,4.7507,4.7258,4.7278,4.7567,4.7874,4.8182,4.8875,4.924,4.9029,4.976,4.9875,4.9183,4.9683,5.0317,5.0606,5.0683,5.0683,5.0683,5.0683,5.0683,5.0683,5.0683,5.0818,5.1471,5.1991,5.2914,5.3895,5.4664,5.5241,5.553,5.5684,5.5684,5.5684,5.5684,5.5684,5.5588,5.5338,5.5357,5.5376,5.5261,5.5376,5.5607,5.5684,5.5684,5.5684,5.5684,5.5684,5.5684,5.5684,5.5684,6.4082,6.3086,6.334,6.3066,6.2519,6.1894,6.1699,6.1699,6.1699,6.1699,6.1621,6.1504,6.1367,6.125,6.0833,6.063,6.063,6.0858,6.0623,6.0105,5.9744,5.9805,6.0195,6.0976,6.1387,6.164,6.1699,6.1699,6.1699,6.1699,6.1699,6.1699,6.1716,6.1518,6.1316,6.1499,6.1174,6.0198,6.0393,6.0041,5.9124,5.9671,5.9729,5.8968,5.9983,6.0002,5.8753,5.7972,5.725,5.6665,5.6059,5.4966,5.3346,5.2644,5.2097,5.1511,5.1394,5.1394,5.139,5.1327,5.1076,5.0494,5.0022,4.9514,4.8846,4.8503,4.8169,4.8124,4.8375,4.8586,4.8721,4.9375,4.9702,4.9413,4.9798,4.9952,4.9548,4.9875,5.0356,5.0529,5.0683,5.0683,5.0683,5.0683,5.0683,5.0683,5.0702,5.0991,5.1702,5.2202,5.3241,5.4184,5.4857,5.5299,5.5607,5.5684,5.5684,5.5684,5.5684,5.5684,5.5645,5.5203,5.5011,5.5145,5.5126,5.5453,5.5684,5.5684,5.5684,5.5684,5.5684,5.5684,5.5684,5.5684,5.5684,6.4609,6.3262,6.4023,6.3457,6.2129,6.2012,6.2051,6.1953,6.1973,6.2031,6.2129,6.2519,6.2832,6.291,6.248,6.2363,6.2734,6.207,6.1758,6.1523,6.1152,6.1113,6.1504,6.2265,6.2461,6.2129,6.1933,6.1855,6.1933,6.1777,6.1699,6.1699,6.1687,6.1264,6.0803,6.1221,6.0686,5.9261,5.9163,5.8812,5.7875,5.805,5.8011,5.7953,5.8812,5.9514,5.9749,5.9202,5.8226,5.6918,5.6704,5.5923,5.4537,5.4147,5.3424,5.196,5.159,5.1511,5.1472,5.139,5.1313,5.1089,5.0513,4.9964,4.9666,4.9125,4.8701,4.8605,4.9086,4.949,4.9606,5.0106,5.0202,4.9644,4.9606,4.9529,4.951,4.9586,5.0029,5.0529,5.0683,5.0683,5.0683,5.0683,5.0721,5.0856,5.0914,5.1356,5.2222,5.3029,5.3645,5.4395,5.5184,5.5395,5.5684,5.5684,5.5684,5.5684,5.5684,5.5684,5.5684,5.528,5.5011,5.5107,5.5184,5.5511,5.5684,5.5684,5.5684,5.5684,5.5684,5.5684,5.5684,5.5684,5.5684,6.4941,6.4082,6.4883,6.4609,6.3672,6.3613,6.3594,6.3613,6.3574,6.3496,6.3555,6.3164,6.3105,6.2949,6.2422,6.2051,6.2344,6.2598,6.2656,6.2734,6.3183,6.2539,6.2051,6.2598,6.3242,6.3398,6.291,6.2656,6.2598,6.2051,6.1797,6.1699,6.1782,6.1315,6.0597,6.0768,5.9788,5.8499,5.8831,5.8363,5.7348,5.8128,5.8421,5.7914,5.8616,5.9124,5.9417,5.9241,5.8636,5.7621,5.748,5.7055,5.5962,5.5845,5.5103,5.36,5.3229,5.2683,5.1726,5.1433,5.1386,5.1338,5.1005,5.0811,5.0649,5.0378,5.0159,5.0087,5.026,5.0317,5.0356,5.0529,5.051,5.0356,4.9837,4.9683,5.0144,5.0356,5.0491,5.0664,5.0683,5.0683,5.0683,5.0779,5.0952,5.1375,5.1664,5.2068,5.3126,5.3549,5.403,5.4914,5.5568,5.5626,5.5684,5.5684,5.5684,5.5684,5.5684,5.5684,5.5684,5.5549,5.5472,5.5511,5.5453,5.5665,5.5684,5.5684,5.5684,5.5684,5.5684,5.5684,5.5684,5.5684,5.5684,6.5625,6.4883,6.539,6.5098,6.4355,6.4297,6.4297,6.4297,6.4297,6.4297,6.4258,6.4219,6.4101,6.4043,6.3965,6.3906,6.3965,6.4394,6.4629,6.4726,6.5156,6.4414,6.3398,6.3672,6.418,6.418,6.3808,6.3594,6.3398,6.2656,6.248,6.2715,6.2436,6.1974,6.1642,6.1427,6.0432,5.8851,5.8812,5.8304,5.686,5.7504,5.7699,5.7426,5.7836,5.805,5.8082,5.8348,5.8421,5.8402,5.8597,5.8226,5.684,5.7309,5.6665,5.4791,5.4556,5.3912,5.2761,5.2175,5.1746,5.1468,5.1302,5.1218,5.1063,5.102,5.0887,5.0754,5.074,5.0702,5.0683,5.0683,5.0683,5.0587,5.024,5.0164,5.0664,5.0644,5.0683,5.0683,5.0683,5.0683,5.0721,5.0971,5.1395,5.1837,5.226,5.3087,5.4049,5.4164,5.4376,5.5145,5.5453,5.5357,5.5588,5.5684,5.5684,5.5684,5.5684,5.5684,5.5684,5.5684,5.5665,5.5645,5.5684,5.5684,5.5684,5.5684,5.5684,5.5684,5.5684,5.5684,5.5684,5.5684,5.5684,6.6445,6.5723,6.5723,6.5293,6.4707,6.459,6.4765,6.4629,6.4726,6.4726,6.4844,6.543,6.5586,6.5781,6.6035,6.6719,6.668,6.6445,6.6601,6.6562,6.6562,6.584,6.4805,6.5215,6.5273,6.4863,6.4551,6.4433,6.4219,6.3555,6.3555,6.375,6.3379,6.308,6.2729,6.2798,6.1583,5.969,5.93,5.8675,5.7445,5.7367,5.7348,5.7094,5.6844,5.6891,5.6976,5.734,5.7933,5.8773,5.9651,5.8734,5.7153,5.8265,5.7863,5.6185,5.5654,5.524,5.4381,5.3659,5.2858,5.2351,5.2195,5.1625,5.1635,5.1618,5.1648,5.1183,5.0911,5.0856,5.0683,5.0683,5.0683,5.0702,5.0702,5.0818,5.0702,5.0683,5.0683,5.0721,5.0721,5.0837,5.1029,5.1471,5.2106,5.2799,5.3106,5.3664,5.4203,5.4184,5.453,5.5126,5.5164,5.4934,5.5299,5.5684,5.5684,5.5684,5.5684,5.5684,5.5684,5.5684,5.5684,5.5684,5.5684,5.5684,5.5684,5.5684,5.5684,5.5684,5.5684,5.5684,5.5684,5.5684,5.5684,6.6777,6.6621,6.6621,6.6523,6.6348,6.6348,6.6308,6.6289,6.6289,6.6191,6.6348,6.6523,6.6582,6.6601,6.6777,6.6894,6.6894,6.6894,6.6894,6.6894,6.6894,6.6758,6.6308,6.6504,6.6445,6.6094,6.5586,6.5351,6.5117,6.4531,6.4101,6.4277,6.4219,6.3709,6.3227,6.3208,6.211,6.0451,6.0139,5.9592,5.8753,5.8402,5.8128,5.7582,5.6973,5.6666,5.6627,5.6774,5.6957,5.7289,5.7855,5.807,5.7762,5.8492,5.8407,5.7591,5.7187,5.686,5.6177,5.5708,5.5337,5.4478,5.463,5.4577,5.2477,5.333,5.3145,5.2295,5.1721,5.1472,5.1126,5.0798,5.101,5.1222,5.151,5.1548,5.0914,5.076,5.0856,5.0875,5.1298,5.1645,5.1683,5.2414,5.3068,5.3703,5.4049,5.4299,5.4318,5.4318,5.4664,5.5184,5.4914,5.4799,5.5357,5.5684,5.5684,5.5684,5.5684,5.5684,5.5684,5.5684,5.5684,5.5684,5.5684,5.5684,5.5684,5.5684,5.5684,5.5684,5.5684,5.5684,5.5684,5.5684,5.5684,6.5918,6.6289,6.6289,6.6523,6.6855,6.6894,6.6894,6.6894,6.6894,6.6894,6.6894,6.6894,6.6894,6.6894,6.6894,6.6894,6.6894,6.6894,6.6894,6.6894,6.6894,6.6894,6.6894,6.6894,6.6894,6.6816,6.6465,6.623,6.5976,6.541,6.5137,6.543,6.5134,6.5029,6.4733,6.4403,6.3633,6.2364,6.1369,6.0588,5.9846,5.928,5.8968,5.8348,5.7698,5.7356,5.7828,5.6985,5.6939,5.7109,5.7254,5.7274,5.7532,5.8437,5.8643,5.8104,5.8317,5.7988,5.7411,5.7133,5.6762,5.602,5.6391,5.5753,5.4723,5.4907,5.4527,5.3676,5.3083,5.2575,5.2566,5.2624,5.2665,5.3069,5.3395,5.3299,5.2606,5.2145,5.1684,5.1568,5.2029,5.2375,5.276,5.3337,5.3722,5.4241,5.4818,5.5049,5.4876,5.4857,5.4857,5.503,5.4741,5.4799,5.5415,5.5684,5.5684,5.5684,5.5684,5.5684,5.5684,5.5684,5.5684,5.5684,5.5684,5.5684,5.5684,5.5684,5.5684,5.5684,5.5684,5.5684,5.5684,5.5684,5.5684,6.5019,6.5801,6.5801,6.6152,6.666,6.668,6.6523,6.6445,6.6523,6.6269,6.6484,6.6504,6.6348,6.664,6.664,6.6738,6.6875,6.6894,6.6894,6.6894,6.6894,6.6894,6.6894,6.6894,6.6758,6.6738,6.6504,6.6465,6.6113,6.5996,6.5723,6.6387,6.6181,6.6,6.6468,6.6165,6.5077,6.3867,6.2794,6.1642,6.0725,5.9978,5.9631,5.9187,5.8534,5.8372,5.8574,5.7949,5.7421,5.796,5.7262,5.6872,5.7129,5.7796,5.8674,5.791,5.8613,5.8784,5.857,5.8402,5.8226,5.7289,5.7445,5.7153,5.6728,5.6393,5.6074,5.5434,5.4855,5.4477,5.4874,5.4658,5.4975,5.5402,5.5688,5.5511,5.4818,5.407,5.3491,5.2414,5.2837,5.3318,5.3664,5.4126,5.4434,5.4761,5.5318,5.5607,5.5376,5.5184,5.5049,5.4914,5.4626,5.4876,5.5472,5.5684,5.5684,5.5684,5.5684,5.5684,5.5684,5.5684,5.5684,5.5684,5.5684,5.5684,5.5684,5.5684,5.5684,5.5684,5.5684,5.5684,5.5684,5.5684,5.5684,6.5898,6.668,6.668,6.6367,6.5859,6.584,6.5469,6.4785,6.4863,6.4746,6.4805,6.4765,6.5273,6.5703,6.584,6.6211,6.6758,6.6894,6.6894,6.6894,6.6894,6.6894,6.6894,6.6875,6.6543,6.5957,6.584,6.5625,6.5273,6.5273,6.5762,6.5957,6.6387,6.6777,6.6793,6.6624,6.5741,6.4589,6.375,6.2755,6.172,6.1154,6.0739,6.0178,5.9363,5.9146,5.9198,5.9004,5.8847,5.888,5.8141,5.7781,5.7613,5.7472,5.748,5.7871,5.8574,5.9061,5.9478,6.0401,6.0412,6.0178,6.0119,5.9397,5.8509,5.8455,5.8114,5.734,5.6835,5.655,5.5961,5.6132,5.593,5.6152,5.6618,5.6631,5.6034,5.5859,5.5416,5.3994,5.4148,5.428,5.453,5.4761,5.5011,5.5184,5.5453,5.5472,5.5164,5.4972,5.4818,5.4684,5.453,5.4991,5.5549,5.5645,5.5684,5.5684,5.5684,5.5684,5.5684,5.5684,5.5684,5.5684,5.5684,5.5684,5.5684,5.5684,5.5684,5.5684,5.5684,5.5684,5.5684,5.5684,5.5684,6.5019,6.6211,6.623,6.5976,6.5644,6.5605,6.5098,6.4375,6.4297,6.4297,6.4297,6.4336,6.4785,6.543,6.5605,6.6094,6.6719,6.6894,6.6894,6.6894,6.6894,6.6894,6.6894,6.6894,6.6367,6.584,6.5586,6.541,6.5058,6.539,6.5781,6.6308,6.6738,6.6894,6.675,6.6367,6.5848,6.4926,6.4121,6.3321,6.2384,6.2013,6.1427,6.0998,6.0334,6.0069,6.0281,5.9472,5.9433,5.9547,5.9006,5.866,5.8336,5.7851,5.7246,5.7461,5.8086,5.8885,5.9678,6.0522,6.0861,6.1134,6.1486,6.0939,5.9841,5.967,5.9664,5.8819,5.8363,5.8305,5.8295,5.8129,5.8337,5.8657,5.8836,5.8491,5.8143,5.814,5.7079,5.5712,5.546,5.5343,5.5145,5.5376,5.5607,5.5684,5.5744,5.5476,5.5131,5.5033,5.4975,5.503,5.503,5.5261,5.5722,5.5799,5.5742,5.5703,5.5818,5.5818,5.5684,5.5684,5.5684,5.5684,5.5684,5.5684,5.5684,5.5684,5.5684,5.5684,5.5684,5.5684,5.5684,5.5684,5.5684,6.4433,6.584,6.5664,6.5508,6.5332,6.5137,6.4531,6.3887,6.3711,6.3808,6.4023,6.3887,6.4394,6.541,6.5879,6.6289,6.6894,6.6894,6.6894,6.6894,6.6894,6.6894,6.6894,6.6797,6.6445,6.5723,6.5605,6.5508,6.5215,6.5469,6.5996,6.6367,6.668,6.6894,6.6758,6.6406,6.5899,6.5199,6.4375,6.3535,6.3106,6.2462,6.1974,6.1876,6.1119,6.0983,6.128,6.0524,6.0215,6.0293,5.9954,5.9449,5.9292,5.8628,5.7851,5.7363,5.7656,5.8203,5.8841,5.9644,6.0354,6.0686,6.1056,6.0705,6.0412,5.9998,6.0173,5.9729,5.9666,5.9839,6.0161,6.038,6.0447,6.0501,6.0511,6.0433,5.9498,5.9041,5.8664,5.764,5.6927,5.6541,5.6422,5.6541,5.6885,5.6406,5.6425,5.6054,5.5745,5.5577,5.5557,5.5649,5.5684,5.5742,5.5934,5.6069,5.5915,5.5703,5.5972,5.6165,5.5915,5.5684,5.5684,5.5684,5.5684,5.5684,5.5684,5.5684,5.5684,5.5684,5.5684,5.5684,5.5684,5.5684,5.5684,6.5859,6.668,6.5918,6.5176,6.4433,6.3769,6.289,6.2148,6.2168,6.2461,6.3105,6.2558,6.3437,6.5234,6.6387,6.6758,6.6875,6.6894,6.6894,6.6894,6.6894,6.6894,6.6894,6.6894,6.6484,6.5898,6.5742,6.5137,6.5098,6.5469,6.5683,6.6015,6.664,6.6894,6.6855,6.6504,6.6348,6.5707,6.5292,6.4789,6.4067,6.3243,6.2911,6.2544,6.2065,6.1564,6.1694,6.123,6.1328,6.1367,6.0723,6.0293,6.0135,5.9506,5.9101,5.8711,5.8379,5.7949,5.8301,5.8873,5.9397,5.969,5.9671,5.9397,5.9651,6.0041,6.0471,6.1447,6.1291,6.1208,6.1244,6.13,6.1023,6.0544,6.0229,5.9749,5.9166,5.9144,5.8874,5.8925,5.7998,5.7909,5.7873,5.8017,5.8105,5.754,5.7005,5.6625,5.6242,5.5993,5.5884,5.5885,5.6132,5.6228,5.6136,5.627,5.6111,5.5822,5.5972,5.6299,5.5992,5.5684,5.5684,5.5684,5.5684,5.5684,5.5684,5.5684,5.5684,5.5684,5.5684,5.5684,5.5684,5.5684,5.5684,6.6113,6.6855,6.6484,6.5547,6.4316,6.3887,6.2949,6.1894,6.1719,6.1894,6.2168,6.1914,6.289,6.4902,6.623,6.6875,6.6894,6.6894,6.6894,6.6894,6.6894,6.6894,6.6894,6.6894,6.6601,6.6426,6.6328,6.6308,6.5859,6.5605,6.5762,6.6328,6.668,6.6894,6.6836,6.6406,6.5989,6.5531,6.5121,6.4677,6.429,6.3915,6.3496,6.3028,6.2658,6.2234,6.1855,6.1719,6.1992,6.209,6.1601,6.1445,6.1402,6.0723,5.9863,5.9746,5.8574,5.8203,5.8594,5.8555,5.873,5.905,5.9183,5.9378,5.9651,5.9749,6.0315,6.1564,6.1681,6.1661,6.1486,6.1172,6.077,6.0274,5.964,5.9279,5.8851,5.8817,5.8791,5.8978,5.9118,5.8867,5.8687,5.8702,5.8396,5.7618,5.7164,5.6841,5.6412,5.6001,5.5954,5.5979,5.6309,5.6656,5.6482,5.642,5.629,5.6039,5.5782,5.5994,5.5857,5.5684,5.5684,5.5684,5.5684,5.5684,5.5684,5.5684,5.5684,5.5684,5.5684,5.5684,5.5684,5.5684,5.5684,6.5664,6.625,6.6465,6.5801,6.4629,6.4414,6.3594,6.2461,6.2148,6.2168,6.2402,6.2676,6.3515,6.4687,6.6152,6.6894,6.6894,6.6894,6.6894,6.6894,6.6894,6.6894,6.6894,6.6894,6.6894,6.6894,6.6777,6.6719,6.6601,6.6406,6.6328,6.6875,6.6836,6.6894,6.6738,6.6439,6.6075,6.6014,6.5524,6.5202,6.5029,6.4778,6.4301,6.3833,6.338,6.293,6.2207,6.2383,6.2832,6.2617,6.2402,6.2305,6.248,6.1523,6.0801,6.0469,5.9473,5.918,5.9219,5.9055,5.8772,5.925,5.9436,5.9651,5.971,5.9456,5.9417,6.0783,6.0842,6.09,6.09,6.0349,5.992,5.9455,5.8981,5.8747,5.8571,5.8546,5.8501,5.8538,5.8788,5.9211,5.9104,5.9132,5.8654,5.7745,5.7266,5.7006,5.6608,5.6146,5.6136,5.6203,5.6604,5.6861,5.6504,5.6401,5.6321,5.6251,5.6,5.5803,5.5744,5.5724,5.5684,5.5684,5.5684,5.5684,5.5684,5.5684,5.5684,5.5684,5.5684,5.5684,5.5684,5.5684,5.5684,6.4414,6.4551,6.5371,6.5566,6.5312,6.4629,6.4238,6.3594,6.3105,6.3242,6.3789,6.4765,6.498,6.5664,6.6308,6.6894,6.6894,6.6894,6.6894,6.6894,6.6894,6.6894,6.6894,6.6894,6.6894,6.6894,6.6894,6.6894,6.6875,6.6758,6.6758,6.6894,6.6894,6.6894,6.6855,6.6699,6.6601,6.6602,6.6376,6.6423,6.6226,6.5905,6.5394,6.5141,6.4552,6.3828,6.3027,6.3496,6.375,6.332,6.3066,6.3086,6.3183,6.2246,6.168,6.1348,6.0469,6.039,6.0664,5.968,5.948,6.0432,6.0803,6.0119,5.9905,5.9436,5.9378,5.9905,6.0412,5.9983,5.9749,5.9202,5.9143,5.8827,5.8563,5.8275,5.8182,5.8256,5.822,5.8139,5.8426,5.8949,5.9137,5.9116,5.873,5.7827,5.726,5.6975,5.6816,5.6475,5.6461,5.6582,5.6977,5.697,5.6401,5.6354,5.6625,5.6471,5.6172,5.5962,5.5805,5.5765,5.5705,5.5684,5.5684,5.5684,5.5684,5.5684,5.5684,5.5684,5.5684,5.5684,5.5684,5.5684,5.5684,6.3808,6.4336,6.4668,6.4492,6.4062,6.4785,6.418,6.289,6.291,6.3144,6.3594,6.4394,6.5098,6.5723,6.6465,6.6894,6.6894,6.6894,6.6894,6.6894,6.6894,6.6894,6.6894,6.6894,6.6894,6.6894,6.6894,6.6894,6.6894,6.6972,6.6914,6.6894,6.6953,6.6894,6.6894,6.6894,6.6894,6.6889,6.6904,6.6906,6.6836,6.6639,6.6139,6.5551,6.5414,6.4658,6.4004,6.4121,6.4336,6.4375,6.4043,6.4121,6.414,6.3164,6.2598,6.2324,6.1289,6.1348,6.2012,6.0762,6.0262,6.1076,6.1349,6.1056,6.067,6.0666,6.1037,6.1174,6.0842,6.049,6.0666,5.9827,5.9007,5.8577,5.8343,5.8168,5.8168,5.846,5.8265,5.8319,5.8499,5.8841,5.8939,5.8983,5.8499,5.7947,5.7411,5.7026,5.7018,5.6971,5.7006,5.6981,5.7313,5.7225,5.669,5.6814,5.6991,5.6675,5.6327,5.6094,5.5866,5.5806,5.5766,5.5726,5.5684,5.5684,5.5684,5.5684,5.5684,5.5705,5.5705,5.5684,5.5684,5.5722,5.5838,6.2949,6.3535,6.3808,6.3711,6.3574,6.4687,6.4219,6.2754,6.2851,6.3183,6.3418,6.4082,6.4961,6.5918,6.6562,6.6894,6.6894,6.6894,6.6894,6.6894,6.6894,6.6894,6.6894,6.6894,6.6894,6.6894,6.6894,6.6894,6.6914,6.7148,6.7109,6.707,6.7148,6.7207,6.6894,6.6894,6.6894,6.6894,6.689,6.6904,6.6894,6.6836,6.6699,6.6094,6.6008,6.5531,6.5058,6.5078,6.5273,6.5234,6.5078,6.5058,6.4863,6.4394,6.3574,6.289,6.2324,6.1973,6.2578,6.2793,6.207,6.2644,6.3006,6.265,6.2252,6.2076,6.213,6.211,6.1876,6.1701,6.1661,6.0666,6.0159,6.0022,5.9827,5.9631,5.9397,5.9436,5.8909,5.8558,5.8773,5.8948,5.8987,5.9085,5.8983,5.8587,5.8319,5.8011,5.7924,5.7835,5.7718,5.7648,5.7636,5.7395,5.708,5.6952,5.6807,5.6569,5.6262,5.6084,5.5922,5.5847,5.5807,5.5766,5.5745,5.5724,5.5703,5.5742,5.5744,5.5726,5.5782,5.5938,5.5857,5.5934,5.6203,6.1797,6.1855,6.2695,6.3457,6.4004,6.4297,6.4199,6.3613,6.3144,6.3359,6.4062,6.4316,6.5254,6.6465,6.6855,6.6894,6.6894,6.6894,6.6894,6.6894,6.7109,6.6992,6.6953,6.6972,6.707,6.6933,6.7051,6.7148,6.7031,6.7617,6.7539,6.7324,6.7461,6.75,6.6933,6.6894,6.6894,6.6894,6.6894,6.6894,6.6894,6.6894,6.6777,6.6716,6.6647,6.6184,6.5879,6.6074,6.6152,6.582,6.5723,6.5683,6.5605,6.4863,6.4316,6.414,6.3379,6.3379,6.4101,6.4883,6.4648,6.4197,6.4421,6.407,6.3252,6.2891,6.2618,6.2403,6.1857,6.172,6.1661,6.1505,6.1252,6.1076,6.0783,6.0959,6.0705,6.0959,6.0588,5.9768,5.9319,5.9163,5.9183,5.9222,5.9358,5.9241,5.9143,5.8972,5.8757,5.8582,5.8387,5.832,5.8195,5.8059,5.7711,5.6962,5.6608,5.6398,5.6251,5.6141,5.6007,5.5923,5.5885,5.5845,5.5784,5.5782,5.578,5.5799,5.6167,5.6554,5.6228,5.6228,5.6169,5.6319,5.6742,6.1699,6.1719,6.2012,6.2305,6.2734,6.3828,6.3691,6.2656,6.2363,6.2949,6.4101,6.4297,6.5273,6.6465,6.6894,6.6894,6.6894,6.6894,6.6894,6.6953,6.7402,6.7285,6.7207,6.7344,6.7402,6.7207,6.7344,6.7695,6.7793,6.8164,6.8086,6.7871,6.7656,6.7148,6.6953,6.6894,6.6894,6.6894,6.6894,6.6894,6.6894,6.6894,6.6894,6.6894,6.6894,6.6719,6.6406,6.6797,6.664,6.6387,6.6328,6.6348,6.625,6.5586,6.5176,6.498,6.4355,6.3984,6.4277,6.4629,6.5195,6.5385,6.509,6.4565,6.3902,6.3275,6.2876,6.254,6.2169,6.2013,6.1676,6.1091,6.0803,6.0842,6.092,6.174,6.2013,6.2735,6.2774,6.1583,6.0842,6.0334,6.0139,6.0198,6.0256,6.0061,5.9944,5.9507,5.9241,5.9097,5.8941,5.894,5.8864,5.8764,5.8428,5.7731,5.7367,5.7324,5.6853,5.6319,5.6201,5.6353,5.6212,5.631,5.6076,5.5878,5.6359,5.6821,5.7283,5.7497,5.7364,5.6999,5.6783,5.7146,5.7723,6.1699,6.1699,6.1699,6.1894,6.2246,6.3047,6.2851,6.2187,6.2207,6.3125,6.4492,6.4805,6.5527,6.6582,6.6894,6.6894,6.6894,6.6894,6.6894,6.7012,6.7793,6.7519,6.7402,6.7656,6.7519,6.7383,6.7715,6.8164,6.8144,6.8476,6.8613,6.8476,6.8027,6.7832,6.75,6.7187,6.6894,6.6894,6.6894,6.6894,6.6894,6.6894,6.6894,6.6894,6.6894,6.6855,6.6875,6.6894,6.6894,6.6894,6.6894,6.6894,6.668,6.6445,6.6035,6.582,6.5293,6.4844,6.4824,6.4394,6.5215,6.6516,6.5209,6.4411,6.4257,6.3803,6.3611,6.3291,6.2744,6.2607,6.2315,6.1573,6.1514,6.1612,6.1954,6.2818,6.3106,6.377,6.3633,6.254,6.1896,6.1466,6.1037,6.1271,6.133,6.1056,6.0764,6.0269,5.9852,5.9832,5.9729,5.9643,5.9548,5.9405,5.9123,5.859,5.8308,5.8265,5.7726,5.7092,5.7311,5.7591,5.7182,5.6888,5.7042,5.7251,5.7536,5.7959,5.8308,5.8655,5.8828,5.8346,5.7629,5.7995,5.8668,6.1719,6.1699,6.1699,6.2168,6.2715,6.2168,6.2246,6.2949,6.2969,6.3926,6.5547,6.5488,6.6015,6.6738,6.6894,6.6894,6.6894,6.6894,6.7012,6.7226,6.789,6.7519,6.7539,6.7773,6.7578,6.748,6.7812,6.8535,6.8398,6.8847,6.9219,6.9199,6.8711,6.8437,6.7988,6.7422,6.7109,6.7129,6.6972,6.7051,6.7148,6.6972,6.6914,6.6894,6.6894,6.6894,6.6894,6.6894,6.6894,6.6894,6.6894,6.6894,6.6875,6.6894,6.6894,6.666,6.5996,6.5742,6.5351,6.4785,6.498,6.6015,6.5144,6.4524,6.4137,6.3845,6.3373,6.3403,6.3142,6.352,6.362,6.3445,6.3286,6.34,6.3505,6.3818,6.3891,6.395,6.3696,6.3145,6.2676,6.2189,6.1622,6.1701,6.1701,6.1544,6.1271,6.1241,6.0923,6.1033,6.0854,6.0476,6.0342,6.0077,5.9738,5.9421,5.9211,5.9132,5.8831,5.837,5.8626,5.8593,5.8173,5.7996,5.8356,5.8566,5.8597,5.8866,5.9216,5.9565,5.9837,5.9367,5.8575,5.9061,5.9661,6.2265,6.1719,6.1699,6.1855,6.2012,6.1816,6.2207,6.2949,6.3008,6.3984,6.5605,6.5605,6.6094,6.6855,6.6894,6.6894,6.6894,6.6992,6.7383,6.7715,6.7969,6.7949,6.7969,6.7969,6.7637,6.7695,6.8164,6.9023,6.916,6.9492,6.9492,6.9316,6.8808,6.8594,6.8398,6.7695,6.7676,6.748,6.7246,6.7226,6.7324,6.7148,6.7012,6.6894,6.6894,6.6894,6.6894,6.6894,6.6894,6.6894,6.6894,6.6894,6.6894,6.6894,6.6894,6.6894,6.6562,6.6308,6.5723,6.5371,6.5351,6.5371,6.4687,6.4473,6.4016,6.3492,6.2851,6.2949,6.289,6.292,6.293,6.291,6.291,6.2969,6.3144,6.3442,6.3556,6.3794,6.3544,6.3197,6.2768,6.2247,6.1759,6.1701,6.1701,6.1701,6.1701,6.1705,6.1701,6.1715,6.1425,6.0991,6.1017,6.0733,6.069,6.0436,6.0206,5.9976,5.9694,5.9412,5.9281,5.9172,5.897,5.9055,5.932,5.9418,5.9441,5.9714,6.0031,6.0322,6.0555,6.0068,5.9752,6.0066,6.0297,6.2187,6.1738,6.1699,6.1699,6.1758,6.207,6.2539,6.2949,6.2988,6.3984,6.5508,6.5605,6.6074,6.6797,6.6894,6.6894,6.6894,6.6914,6.7148,6.7441,6.8027,6.7832,6.7871,6.8027,6.791,6.8047,6.8613,6.9531,6.9883,7.0254,7.0351,6.9433,6.8672,6.9101,6.9199,6.8906,6.8672,6.8222,6.7773,6.7441,6.7324,6.7265,6.7012,6.6972,6.6972,6.6933,6.6914,6.6933,6.6894,6.6894,6.6894,6.6894,6.6894,6.6894,6.6894,6.6894,6.6836,6.6621,6.6269,6.6172,6.5781,6.539,6.498,6.4863,6.4273,6.3651,6.2949,6.2539,6.2109,6.1777,6.1758,6.1738,6.1758,6.1777,6.2207,6.2637,6.3037,6.347,6.3298,6.2973,6.2498,6.1978,6.1701,6.1701,6.1701,6.1701,6.1701,6.1701,6.1717,6.1713,6.1327,6.0837,6.1177,6.1369,6.1291,6.1159,6.0991,6.0799,6.0749,6.0447,6.0104,6.0093,6.0208,6.0244,6.0266,6.0282,6.021,6.0478,6.0789,6.0983,6.0983,6.0571,6.0294,6.0448,6.066,6.1777,6.1699,6.1699,6.1699,6.1816,6.248,6.2793,6.289,6.2812,6.3848,6.5234,6.5566,6.6015,6.6562,6.6777,6.6894,6.6894,6.6914,6.709,6.7012,6.7598,6.7676,6.7695,6.7754,6.8008,6.8437,6.914,7.0117,7.0762,7.082,7.0312,6.9687,7.0508,7.0605,6.9824,6.9785,6.959,6.9297,6.834,6.7617,6.7402,6.7187,6.7031,6.7187,6.7168,6.709,6.7031,6.6972,6.6894,6.6894,6.6894,6.6894,6.6894,6.6894,6.6894,6.6894,6.6894,6.6836,6.6719,6.666,6.6719,6.6445,6.6191,6.584,6.5176,6.4062,6.3301,6.293,6.2637,6.2265,6.2168,6.1855,6.1699,6.1699,6.1933,6.2246,6.2539,6.2812,6.2709,6.242,6.2201,6.174,6.1701,6.1701,6.1705,6.1705,6.1701,6.1701,6.1717,6.1713,6.1406,6.0898,6.125,6.1562,6.133,6.1276,6.1541,6.1541,6.1456,6.1388,6.0968,6.1178,6.1561,6.1281,6.0917,6.1005,6.1054,6.1126,6.1094,6.1113,6.1059,6.0962,6.0899,6.0883,6.086,6.2305,6.1699,6.1699,6.1699,6.1719,6.1914,6.2031,6.2012,6.2012,6.2988,6.4492,6.5234,6.5703,6.6015,6.6582,6.6816,6.6894,6.6933,6.7305,6.7363,6.7598,6.7754,6.7832,6.8125,6.8301,6.8711,6.9551,7.0762,7.1269,7.0879,7.0371,7.0332,7.0781,7.0312,7.0312,7.0293,6.9961,7.0078,6.9238,6.8594,6.8633,6.8262,6.8086,6.8242,6.8301,6.7851,6.7637,6.7226,6.7051,6.6894,6.6894,6.6894,6.6894,6.6894,6.6894,6.6894,6.6894,6.6894,6.6894,6.6894,6.6894,6.6894,6.666,6.664,6.6055,6.4765,6.3965,6.3711,6.3301,6.289,6.248,6.207,6.1699,6.1699,6.1719,6.1894,6.209,6.209,6.209,6.1963,6.1826,6.1764,6.172,6.1705,6.1709,6.1709,6.1701,6.1705,6.1697,6.1699,6.1699,6.1367,6.1445,6.1601,6.1387,6.1373,6.1616,6.1717,6.1592,6.1647,6.1701,6.1694,6.1665,6.1635,6.1486,6.1436,6.1359,6.1292,6.1272,6.1235,6.119,6.1092,6.1106,6.1136,6.1055,6.2148,6.1719,6.1699,6.1699,6.1699,6.1699,6.1699,6.1699,6.1699,6.2226,6.3183,6.4043,6.4844,6.5449,6.6152,6.6699,6.6836,6.6894,6.707,6.7285,6.7637,6.789,6.8144,6.8515,6.916,6.957,7.0566,7.1504,7.1719,7.1387,7.0957,7.0801,7.041,7.0527,7.0781,7.0254,7.0176,7.0625,6.9883,6.9726,6.9785,6.9336,6.8652,6.8789,6.8515,6.8262,6.8105,6.7754,6.7871,6.7754,6.7793,6.7187,6.7051,6.6894,6.6894,6.6894,6.6894,6.6894,6.6914,6.6953,6.6953,6.6972,6.6894,6.6777,6.6777,6.5644,6.5234,6.4863,6.3457,6.289,6.2617,6.2226,6.1855,6.1699,6.1699,6.1797,6.1855,6.1855,6.1869,6.1822,6.1744,6.174,6.1701,6.1701,6.1705,6.1713,6.1709,6.1699,6.1699,6.1699,6.1699,6.1699,6.1699,6.1699,6.1601,6.1583,6.1666,6.1705,6.1709,6.1705,6.1701,6.1701,6.169,6.167,6.1648,6.1603,6.151,6.1627,6.1417,6.1305,6.1272,6.122,6.1292,6.1386,6.1383,6.1719,6.1699,6.1699,6.1699,6.1699,6.1699,6.1699,6.1699,6.1699,6.1797,6.2168,6.2851,6.3984,6.4961,6.5801,6.6308,6.668,6.6855,6.6972,6.7148,6.7598,6.7637,6.8105,6.8847,6.9707,7.0488,7.1308,7.1699,7.1933,7.1484,7.1113,7.1035,7.1308,7.164,7.1055,7.0742,7.0762,7.0762,7.0449,7.0293,7.0176,7.0058,6.9512,6.8945,6.8555,6.8515,6.8535,6.8535,6.8887,6.8828,6.8652,6.8008,6.748,6.7265,6.7012,6.7031,6.7187,6.7207,6.7187,6.7246,6.7187,6.7109,6.6992,6.6894,6.6894,6.668,6.6269,6.5527,6.4121,6.3379,6.3125,6.2539,6.2168,6.2109,6.2109,6.1992,6.1973,6.1933,6.1877,6.1866,6.174,6.174,6.174,6.174,6.1725,6.1713,6.1738,6.1719,6.1699,6.1699,6.1699,6.1699,6.1699,6.1699,6.1701,6.1701,6.1701,6.1701,6.1705,6.1701,6.1705,6.1701,6.1723,6.1748,6.172,6.1969,6.2128,6.2263,6.1948,6.1712,6.1792,6.1861,6.1519,6.1598,6.1705,6.1699,6.1699,6.1699,6.1699,6.1699,6.1699,6.1699,6.1699,6.1719,6.207,6.2637,6.291,6.3652,6.4648,6.6133,6.6797,6.6797,6.6894,6.6894,6.7012,6.7363,6.7285,6.7851,6.9316,7.0371,7.1074,7.1465,7.1387,7.1836,7.1426,7.1308,7.168,7.1738,7.1875,7.1719,7.1367,7.0957,7.1055,7.0976,7.0742,7.1191,7.1133,7.1015,7.0722,7.0586,7.0371,7.0078,6.9512,6.9375,6.9297,6.9297,6.873,6.8262,6.791,6.7695,6.7558,6.7695,6.789,6.793,6.7949,6.793,6.7695,6.75,6.6992,6.6953,6.6875,6.6601,6.6523,6.5469,6.5,6.4531,6.3379,6.2832,6.332,6.3535,6.3144,6.293,6.2695,6.2495,6.2189,6.1837,6.1857,6.1876,6.1837,6.1764,6.1795,6.1909,6.1894,6.1953,6.1855,6.1777,6.1738,6.1738,6.1701,6.1701,6.1701,6.1701,6.1701,6.1759,6.1837,6.1822,6.172,6.1759,6.224,6.2525,6.2794,6.2889,6.2877,6.2935,6.2785,6.2746,6.2635,6.2187,6.1997,6.2263]},{"header":{"parameterUnit":"m.s-1","parameterCategory":1,"la1":31.0,"la2":29.5877,"lo1":-88.7671,"lo2":-86.6584,"dy":0.0162,"dx":0.0185,"nx":115,"ny":88,"refTime":"2023-11-16T18:00:00:Z","depth":0,"parameterNumber":3,"parameterNumberName":"V-component_of_WINDS"},"data":[0.0,0.0,0.0,0.0,0.0,0.0,0.0,0.0,0.0,0.0,0.0,0.0,0.0,0.0,0.0,0.0,0.0,0.0,0.0,0.0,0.0,0.0,0.0,0.0,0.0,0.0,0.0,0.0,0.0,0.0,0.0,0.0,0.0,0.0,0.0,0.0,0.0,0.0,0.0,0.0,0.0,0.0,0.0,0.0,0.0,0.0,0.0,0.0,0.0,0.0,0.0,0.0,0.0,0.0,0.0,0.0,0.0,0.0,0.0,0.0,0.0,0.0,0.0,0.0,0.0,0.0,0.0,0.0,0.0,0.0,0.0,0.0,0.0,0.0,0.0,0.0,0.0,0.0,0.0,0.0,0.0,0.0,0.0,0.0,0.0,0.0,0.0,0.0,0.0,0.0,0.0,0.0,0.0,0.0,0.0,0.0,0.0,0.0,0.0,0.0,0.0,0.0,0.0,0.0,0.0,0.0,0.0,0.0,0.0,0.0,0.0,0.0,0.0,0.0,0.0,0.0,0.0,0.0,0.0,0.0,0.0,0.0,0.0,0.0,0.0,0.0,0.0,0.0,0.0,0.0,0.0,0.0,0.0,0.0,0.0,0.0,0.0,0.0,0.0,0.0,0.0,0.0,0.0,0.0,0.0,0.0,0.0,0.0,0.0,0.0,0.0,0.0,0.0,0.0,0.0,0.0,0.0,0.0,0.0,0.0,0.0,0.0,0.0,0.0,0.0,0.0,0.0,0.0,0.0,0.0,0.0,0.0,0.0,0.0,0.0,0.0,0.0,0.0,0.0,0.0,0.0,0.0,0.0,0.0,0.0,0.0,0.0,0.0,0.0,0.0,0.0,0.0,0.0,0.0,0.0,0.0,0.0,0.0,0.0,0.0,0.0,0.0,0.0,0.0,0.0,0.0,0.0,0.0,0.0,0.0,0.0,0.0,0.0,0.0,0.0,0.0,0.0,0.0,0.0,0.0,0.0,0.0,0.0,0.0,0.0,0.0,0.0,0.0,0.0,0.0,0.0,0.0,0.0,0.0,0.0,0.0,0.0,0.0,0.0,0.0,0.0,0.0,0.0,0.0,0.0,0.0,0.0,0.0,0.0,0.0,0.0,0.0,0.0,0.0,0.0,0.0,0.0,0.0,0.0,0.0,0.0,0.0,0.0,0.0,0.0,0.0,0.0,0.0,0.0,0.0,0.0,0.0,0.0,0.0,0.0,0.0,0.0,0.0,0.0,0.0,0.0,0.0,0.0,0.0,0.0,0.0,0.0,0.0,0.0,0.0,0.0,0.0,0.0,0.0,0.0,0.0,0.0,0.0,0.0,0.0,0.0,0.0,0.0,0.0,0.0,0.0,0.0,0.0,0.0,0.0,0.0,0.0,0.0,0.0,0.0,0.0,0.0,0.0,0.0,0.0,0.0,0.0,0.0,0.0,0.0,0.0,0.0,0.0,0.0,0.0,0.0,0.0,0.0,0.0,0.0,0.0,0.0,0.0,0.0,0.0,0.0,0.0,0.0,0.0,0.0,0.0,0.0,0.0,0.0,0.0,0.0,0.0,0.0,0.0,0.0,0.0,0.0,0.0,0.0,0.0,0.0,0.0,0.0,0.0,0.0,0.0,0.0,0.0,0.0,0.0,0.0,0.0,0.0,0.0,0.0,0.0,0.0,0.0,0.0,0.0,0.0,0.0,0.0,0.0,0.0,0.0,0.0,0.0,0.0,0.0,0.0,0.0,0.0,0.0,0.0,0.0,0.0,0.0,0.0,0.0,0.0,0.0,0.0,0.0,0.0,0.0,0.0,0.0,0.0,0.0,0.0,0.0,0.0,0.0,0.0,0.0,0.0,0.0,0.0,0.0,0.0,0.0,0.0,0.0,0.0,0.0,0.0,0.0,0.0,0.0,0.0,0.0,0.0,0.0,0.0,0.0,0.0,0.0,0.0,0.0,0.0,0.0,0.0,0.0,0.0,0.0,0.0,0.0,0.0,0.0,0.0,0.0,0.0,0.0,0.0,0.0,0.0,0.0,0.0,0.0,0.0,0.0,0.0,0.0,0.0,0.0,0.0,0.0,0.0,0.0,0.0,0.0,0.0,0.0,0.0,0.0,0.0,0.0,0.0,0.0,0.0,0.0,0.0,0.0,0.0,0.0,0.0,0.0,0.0,0.0,0.0,0.0,0.0,0.0,0.0,0.0,0.0,0.0,0.0,0.0,0.0,0.0,0.0,0.0,0.0,0.0,0.0,0.0,0.0,0.0,0.0,0.0,0.0,0.0,0.0,0.0,0.0,0.0,0.0,0.0,0.0,0.0,0.0,0.0,0.0,0.0,0.0,0.0,0.0,0.0,0.0,0.0,0.0,0.0,0.0,0.0,0.0,0.0,0.0,0.0,0.0,0.0,0.0,0.0,0.0,0.0,0.0,0.0,0.0,0.0,0.0,0.0,0.0,0.0,0.0,0.0,0.0,0.0,0.0,0.0,0.0,0.0,0.0,0.0,0.0,0.0,0.0,0.0,0.0,0.0,0.0,0.0,0.0,0.0,0.0,0.0,0.0,0.0,0.0,0.0,0.0,0.0,0.0,0.0,0.0,0.0,0.0,0.0,0.0,0.0,0.0,0.0,0.0,0.0,0.0,0.0,0.0,0.0,0.0,0.0,0.0,0.0,0.0,0.0,0.0,0.0,0.0,0.0,0.0,0.0,0.0,0.0,0.0,0.0,0.0,0.0,0.0,0.0,0.0,0.0,0.0,0.0,0.0,0.0,0.0,0.0,0.0,0.0,0.0,0.0,0.0,0.0,0.0,0.0,0.0,0.0,0.0,0.0,0.0,0.0,0.0,0.0,0.0,0.0,0.0,0.0,0.0,0.0,0.0,0.0,0.0,0.0,0.0,0.0,0.0,0.0,0.0,0.0,0.0,0.0,0.0,0.0,0.0,0.0,0.0,0.0,0.0,0.0,0.0,0.0,0.0,0.0,0.0,0.0,0.0,0.0,0.0,0.0,0.0,0.0,0.0,0.0,0.0,0.0,0.0,0.0,0.0,0.0,0.0,0.0,0.0,0.0,0.0,0.0,0.0,0.0,0.0,0.0,0.0,0.0,0.0,0.0,0.0,0.0,0.0,0.0,0.0,0.0,0.0,0.0,0.0,0.0,0.0,0.0,0.0,0.0,0.0,0.0,0.0,0.0,0.0,0.0,0.0,0.0,0.0,0.0,0.0,0.0,0.0,0.0,0.0,0.0,0.0,0.0,0.0,0.0,0.0,0.0,0.0,0.0,0.0,0.0,0.0,0.0,0.0,0.0,0.0,0.0,0.0,0.0,0.0,0.0,0.0,0.0,0.0,0.0,0.0,0.0,0.0,0.0,0.0,0.0,0.0,0.0,0.0,0.0,0.0,0.0,0.0,0.0,0.0,0.0,0.0,0.0,0.0,0.0,0.0,0.0,0.0,0.0,0.0,0.0,0.0,0.0,0.0,0.0,0.0,0.0,0.0,0.0,0.0,0.0,0.0,0.0,0.0,0.0,0.0,0.0,0.0,0.0,0.0,0.0,0.0,0.0,0.0,0.0,0.0,0.0,0.0,0.0,0.0,0.0,0.0,0.0,0.0,0.0,0.0,0.0,0.0,0.0,0.0,0.0,0.0,0.0,0.0,0.0,0.0,0.0,0.0,0.0,0.0,0.0,0.0,0.0,0.0,0.0,0.0,0.0,0.0,0.0,0.0,0.0,0.0,0.0,0.0,0.0,0.0,0.0,0.0,0.0,0.0,0.0,0.0,0.0,0.0,0.0,0.0,0.0,0.0,0.0,0.0,0.0,0.0,0.0,0.0,0.0,0.0,0.0,0.0,0.0,0.0,0.0,0.0,0.0,0.0,0.0,0.0,0.0,0.0,0.0,0.0,0.0,0.0,0.0,0.0,0.0,0.0,0.0,0.0,0.0,0.0,0.0,0.0,0.0,0.0,0.0,0.0,0.0,0.0,0.0,0.0,0.0,0.0,0.0,0.0,0.0,0.0,0.0,0.0,0.0,0.0,0.0,0.0,0.0,0.0,0.0,0.0,0.0,0.0,0.0,0.0,0.0,0.0,0.0,0.0,0.0,0.0,0.0,0.0,0.0,0.0,0.0,0.0,0.0,0.0,0.0,0.0,0.0,0.0,0.0,0.0,0.0,0.0,0.0,0.0,0.0,0.0,0.0,0.0,0.0,0.0,0.0,0.0,0.0,0.0,0.0,0.0,0.0,0.0,0.0,0.0,0.0,0.0,0.0,0.0,0.0,-0.6568,0.0,0.0,0.0,0.0,0.0,0.0,0.0,0.0,0.0,0.0,0.0,0.0,0.0,0.0,0.0,0.0,0.0,0.0,0.0,0.0,0.0,0.0,0.0,0.0,0.0,0.0,0.0,0.0,0.0,0.0,0.0,0.0,0.0,0.0,0.0,0.0,0.0,0.0,0.0,0.0,0.0,0.0,0.0,0.0,0.0,0.0,0.0,0.0,0.0,0.0,0.0,0.0,0.0,0.0,0.0,0.0,0.0,0.0,0.0,0.0,0.0,0.0,0.0,0.0,0.0,0.0,0.0,0.0,0.0,0.0,0.0,0.0,0.0,0.0,0.0,0.0,0.0,0.0,0.0,0.0,0.0,0.0,0.0,0.0,0.0,0.0,0.0,0.0,0.0,0.0,0.0,0.0,0.0,0.0,0.0,0.0,0.0,0.0,0.0,0.0,0.0,0.0,0.0,0.0,0.0,0.0,0.0,0.0,0.0,0.0,-0.7109,-0.7044,-0.7044,-0.6943,-0.6732,0.0,0.0,0.0,0.0,0.0,0.0,0.0,0.0,0.0,0.0,0.0,0.0,0.0,0.0,0.0,0.0,0.0,0.0,0.0,0.0,0.0,0.0,0.0,0.0,0.0,0.0,0.0,0.0,0.0,0.0,0.0,0.0,0.0,0.0,0.0,0.0,0.0,0.0,0.0,0.0,0.0,0.0,0.0,0.0,0.0,0.0,0.0,0.0,0.0,0.0,0.0,0.0,0.0,0.0,0.0,0.0,0.0,0.0,0.0,0.0,0.0,0.0,0.0,0.0,0.0,0.0,0.0,0.0,0.0,0.0,0.0,0.0,0.0,0.0,0.0,0.0,0.0,0.0,0.0,0.0,0.0,0.0,0.0,0.0,0.0,0.0,0.0,0.0,0.0,0.0,0.0,0.0,0.0,0.0,0.0,0.0,0.0,0.0,0.0,0.0,0.0,0.0,0.0,0.0,0.0,0.0,0.0,0.0,0.0,0.0,0.0,0.0,-0.7261,-0.716,-0.707,0.0,0.0,0.0,0.0,0.0,0.0,0.0,0.0,0.0,0.0,0.0,0.0,0.0,0.0,0.0,0.0,0.0,0.0,0.0,0.0,0.0,0.0,0.0,0.0,0.0,0.0,0.0,0.0,0.0,0.0,0.0,0.0,0.0,0.0,0.0,0.0,0.0,0.0,0.0,0.0,0.0,0.0,0.0,0.0,0.0,0.0,0.0,0.0,0.0,0.0,0.0,0.0,0.0,0.0,0.0,0.0,0.0,0.0,0.0,0.0,0.0,0.0,0.0,0.0,0.0,0.0,0.0,0.0,0.0,0.0,0.0,0.0,0.0,0.0,0.0,0.0,0.0,0.0,0.0,0.0,0.0,0.0,0.0,0.0,0.0,0.0,0.0,0.0,0.0,0.0,0.0,0.0,0.0,0.0,0.0,0.0,0.0,0.0,0.0,0.0,0.0,0.0,0.0,0.0,0.0,0.0,0.0,0.0,0.0,0.0,-0.7336,-0.7733,-0.7621,0.0,-0.7496,0.0,0.0,0.0,0.0,0.0,0.0,0.0,0.0,0.0,0.0,0.0,0.0,0.0,0.0,0.0,0.0,0.0,0.0,0.0,0.0,0.0,0.0,0.0,0.0,0.0,0.0,0.0,0.0,0.0,0.0,0.0,0.0,0.0,0.0,0.0,0.0,0.0,0.0,0.0,0.0,0.0,0.0,0.0,0.0,0.0,0.0,0.0,0.0,0.0,0.0,0.0,0.0,0.0,0.0,0.0,0.0,0.0,0.0,0.0,0.0,0.0,0.0,0.0,0.0,0.0,0.0,0.0,0.0,0.0,0.0,0.0,0.0,0.0,0.0,0.0,0.0,0.0,0.0,0.0,0.0,0.0,0.0,0.0,0.0,0.0,0.0,0.0,0.0,0.0,0.0,0.0,0.0,0.0,0.0,0.0,0.0,0.0,0.0,0.0,0.0,0.0,0.0,0.0,0.0,0.0,0.0,0.0,0.0,0.0,0.0,-0.7876,-0.7678,-0.7628,-0.7373,0.0,0.0,0.0,0.0,0.0,0.0,0.0,0.0,0.0,0.0,0.0,0.0,0.0,0.0,0.0,0.0,0.0,0.0,0.0,0.0,0.0,0.0,0.0,0.0,0.0,0.0,0.0,0.0,0.0,0.0,0.0,0.0,0.0,0.0,0.0,0.0,0.0,0.0,0.0,0.0,0.0,0.0,0.0,0.0,0.0,0.0,0.0,0.0,0.0,0.0,0.0,0.0,0.0,0.0,0.0,0.0,0.0,0.0,0.0,0.0,0.0,0.0,0.0,0.0,0.0,0.0,0.0,0.0,0.0,0.0,0.0,0.0,0.0,0.0,0.0,0.0,0.0,0.0,0.0,0.0,0.0,0.0,0.0,0.0,0.0,0.0,0.0,0.0,0.0,0.0,0.0,0.0,0.0,0.0,0.0,0.0,0.0,0.0,0.0,0.0,0.0,0.0,0.0,0.0,0.0,0.0,0.0,0.0,0.0,0.0,-0.8158,-0.8124,-0.7692,-0.756,-0.7272,-0.6922,0.0,0.0,0.0,0.0,0.0,0.0,0.0,0.0,0.0,0.0,0.0,0.0,0.0,0.0,0.0,0.0,0.0,0.0,0.0,0.0,0.0,0.0,0.0,0.0,0.0,0.0,0.0,0.0,0.0,0.0,0.0,0.0,0.0,0.0,0.0,0.0,0.0,0.0,0.0,0.0,0.0,0.0,0.0,0.0,0.0,0.0,0.0,0.0,0.0,0.0,0.0,0.0,0.0,0.0,0.0,0.0,0.0,0.0,0.0,0.0,0.0,0.0,0.0,0.0,0.0,0.0,0.0,0.0,0.0,0.0,0.0,0.0,0.0,0.0,0.0,0.0,0.0,0.0,0.0,0.0,0.0,0.0,0.0,0.0,0.0,0.0,0.0,0.0,0.0,0.0,0.0,0.0,0.0,0.0,0.0,0.0,0.0,0.0,0.0,0.0,0.0,0.0,0.0,0.0,0.0,0.0,0.0,0.0,-0.8903,-0.8313,-0.8049,-0.7977,-0.7461,-0.7238,0.0,0.0,0.0,0.0,0.0,0.0,0.0,0.0,0.0,0.0,0.0,0.0,0.0,0.0,0.0,0.0,0.0,0.0,0.0,0.0,0.0,0.0,0.0,0.0,0.0,0.0,0.0,0.0,0.0,0.0,0.0,0.0,0.0,0.0,0.0,0.0,0.0,0.0,0.0,0.0,0.0,0.0,0.0,0.0,0.0,0.0,0.0,0.0,0.0,0.0,0.0,0.0,0.0,0.0,0.0,0.0,0.0,0.0,0.0,0.0,0.0,0.0,0.0,0.0,0.0,0.0,0.0,0.0,0.0,0.0,0.0,0.0,0.0,0.0,0.0,0.0,0.0,0.0,0.0,0.0,0.0,0.0,0.0,0.0,0.0,0.0,0.0,0.0,0.0,0.0,0.0,0.0,0.0,0.0,0.0,0.0,0.0,0.0,0.0,0.0,0.0,0.0,0.0,0.0,0.0,0.0,0.0,0.0,0.0,-0.7636,-0.7642,-0.7636,-0.7597,-0.74,-0.72,0.0,0.0,0.0,0.0,0.0,0.0,0.0,0.0,0.0,0.0,0.0,0.0,0.0,0.0,0.0,0.0,0.0,0.0,0.0,0.0,0.0,0.0,0.0,0.0,0.0,0.0,0.0,0.0,0.0,0.0,0.0,0.0,0.0,0.0,0.0,0.0,0.0,0.0,0.0,0.0,0.0,0.0,0.0,0.0,0.0,0.0,0.0,0.0,0.0,0.0,0.0,0.0,0.0,0.0,0.0,0.0,0.0,0.0,0.0,0.0,0.0,0.0,0.0,0.0,0.0,0.0,0.0,0.0,0.0,0.0,0.0,0.0,0.0,0.0,0.0,0.0,0.0,0.0,0.0,0.0,0.0,0.0,0.0,0.0,0.0,0.0,0.0,0.0,0.0,0.0,0.0,0.0,0.0,0.0,0.0,0.0,0.0,0.0,0.0,0.0,0.0,0.0,0.0,0.0,0.0,0.0,0.0,0.0,0.0,-0.721,0.0,-0.7537,-0.7438,-0.7302,-0.7112,0.0,0.0,0.0,0.0,0.0,0.0,0.0,0.0,0.0,0.0,0.0,0.0,0.0,0.0,0.0,0.0,0.0,0.0,0.0,0.0,0.0,0.0,0.0,0.0,0.0,0.0,0.0,0.0,0.0,0.0,0.0,0.0,0.0,0.0,0.0,0.0,0.0,0.0,0.0,0.0,0.0,0.0,0.0,0.0,0.0,0.0,0.0,0.0,0.0,0.0,0.0,0.0,0.0,0.0,0.0,0.0,0.0,0.0,0.0,0.0,0.0,0.0,0.0,0.0,0.0,0.0,0.0,0.0,0.0,0.0,0.0,0.0,0.0,0.0,0.0,0.0,0.0,0.0,0.0,0.0,0.0,0.0,0.0,0.0,0.0,0.0,0.0,0.0,0.0,0.0,0.0,0.0,0.0,0.0,0.0,0.0,0.0,0.0,0.0,0.0,0.0,0.0,0.0,0.0,0.0,0.0,0.0,0.0,-0.7362,-0.783,-0.7883,-0.7858,-0.759,-0.7173,-0.6865,0.0,0.0,0.0,0.0,0.0,0.0,0.0,0.0,0.0,0.0,0.0,0.0,0.0,0.0,0.0,0.0,0.0,0.0,0.0,0.0,0.0,0.0,0.0,0.0,0.0,0.0,0.0,0.0,0.0,0.0,0.0,0.0,0.0,0.0,0.0,0.0,0.0,0.0,0.0,0.0,0.0,0.0,0.0,0.0,0.0,0.0,0.0,0.0,0.0,0.0,0.0,0.0,0.0,0.0,0.0,0.0,0.0,0.0,0.0,0.0,0.0,0.0,0.0,0.0,0.0,0.0,0.0,0.0,0.0,0.0,0.0,0.0,0.0,0.0,0.0,0.0,0.0,0.0,0.0,0.0,0.0,0.0,0.0,0.0,0.0,0.0,0.0,0.0,0.0,0.0,0.0,0.0,0.0,0.0,0.0,0.0,0.0,0.0,0.0,0.0,0.0,0.0,0.0,0.0,0.0,0.0,0.0,0.0,0.0,-0.7432,-0.7394,-0.7574,-0.7855,-0.7166,-0.6943,0.0,0.0,0.0,0.0,0.0,0.0,0.0,0.0,0.0,0.0,0.0,0.0,0.0,0.0,0.0,0.0,0.0,0.0,0.0,0.0,0.0,0.0,0.0,0.0,0.0,0.0,0.0,0.0,0.0,0.0,0.0,0.0,0.0,0.0,0.0,0.0,0.0,0.0,0.0,0.0,0.0,0.0,0.0,0.0,0.0,0.0,0.0,0.0,0.0,0.0,0.0,0.0,0.0,0.0,0.0,0.0,0.0,0.0,0.0,0.0,0.0,0.0,0.0,0.0,0.0,0.0,0.0,0.0,0.0,0.0,0.0,0.0,0.0,0.0,0.0,0.0,0.0,0.0,0.0,0.0,0.0,0.0,0.0,0.0,0.0,0.0,0.0,0.0,0.0,0.0,0.0,0.0,0.0,0.0,0.0,0.0,0.0,0.0,0.0,0.0,0.0,0.0,0.0,0.0,0.0,0.0,0.0,0.0,0.0,-0.7646,-0.7392,-0.7489,-0.7865,-0.7275,-0.7075,-0.7322,0.0,0.0,0.0,0.0,0.0,0.0,0.0,0.0,0.0,0.0,0.0,0.0,0.0,0.0,0.0,0.0,0.0,0.0,0.0,0.0,0.0,0.0,0.0,0.0,0.0,0.0,0.0,0.0,0.0,0.0,0.0,0.0,0.0,0.0,0.0,0.0,0.0,0.0,0.0,0.0,0.0,0.0,0.0,0.0,0.0,0.0,0.0,0.0,0.0,0.0,0.0,0.0,0.0,0.0,0.0,0.0,0.0,0.0,0.0,0.0,0.0,0.0,0.0,0.0,0.0,0.0,0.0,0.0,0.0,0.0,0.0,0.0,0.0,0.0,0.0,0.0,0.0,0.0,0.0,0.0,0.0,0.0,0.0,0.0,0.0,0.0,0.0,0.0,0.0,0.0,0.0,0.0,0.0,0.0,0.0,0.0,0.0,0.0,0.0,0.0,0.0,0.0,0.0,0.0,0.0,0.0,0.0,0.0,-0.8284,-0.7942,-0.7678,-0.7678,-0.7485,-0.7255,0.0,0.0,0.0,0.0,0.0,0.0,0.0,0.0,0.0,0.0,0.0,0.0,0.0,0.0,0.0,0.0,0.0,0.0,0.0,0.0,0.0,0.0,0.0,0.0,0.0,0.0,0.0,0.0,0.0,0.0,0.0,0.0,0.0,0.0,0.0,0.0,0.0,0.0,0.0,0.0,0.0,0.0,0.0,0.0,0.0,0.0,0.0,0.0,0.0,0.0,0.0,0.0,0.0,0.0,0.0,0.0,0.0,0.0,0.0,0.0,0.0,0.0,0.0,0.0,0.0,0.0,0.0,0.0,0.0,0.0,0.0,0.0,0.0,0.0,0.0,0.0,0.0,0.0,0.0,0.0,0.0,0.0,0.0,0.0,0.0,0.0,0.0,0.0,0.0,0.0,0.0,0.0,0.0,0.0,0.0,0.0,0.0,0.0,0.0,0.0,0.0,0.0,0.0,0.0,0.0,0.0,0.0,0.0,0.0,-0.8285,-0.8519,-0.8537,-0.8411,-0.7848,-0.7553,0.0,0.0,0.0,0.0,0.0,0.0,0.0,0.0,0.0,0.0,0.0,0.0,0.0,0.0,0.0,0.0,0.0,0.0,0.0,0.0,0.0,0.0,0.0,0.0,0.0,0.0,0.0,0.0,0.0,0.0,0.0,0.0,0.0,0.0,0.0,0.0,0.0,0.0,0.0,0.0,0.0,0.0,0.0,0.0,0.0,0.0,0.0,0.0,0.0,0.0,0.0,0.0,0.0,0.0,0.0,0.0,0.0,0.0,0.0,0.0,0.0,0.0,0.0,0.0,0.0,0.0,0.0,0.0,0.0,0.0,0.0,0.0,0.0,0.0,0.0,0.0,0.0,0.0,0.0,0.0,0.0,0.0,0.0,0.0,0.0,0.0,0.0,0.0,0.0,0.0,0.0,0.0,0.0,0.0,0.0,0.0,0.0,0.0,0.0,0.0,0.0,0.0,0.0,0.0,0.0,0.0,0.0,0.0,-0.8692,-0.8857,-0.9161,-0.9242,-0.9093,-0.8489,-0.8021,0.0,0.0,0.0,0.0,0.0,0.0,0.0,0.0,0.0,0.0,0.0,0.0,0.0,0.0,0.0,0.0,0.0,0.0,0.0,0.0,0.0,0.0,0.0,0.0,0.0,0.0,0.0,0.0,0.0,0.0,0.0,0.0,0.0,0.0,0.0,0.0,0.0,0.0,0.0,0.0,0.0,0.0,0.0,0.0,0.0,0.0,0.0,0.0,0.0,0.0,0.0,0.0,0.0,0.0,0.0,0.0,0.0,0.0,0.0,0.0,0.0,0.0,0.0,0.0,0.0,0.0,0.0,0.0,0.0,0.0,0.0,0.0,0.0,0.0,0.0,0.0,0.0,0.0,0.0,0.0,0.0,0.0,0.0,0.0,0.0,0.0,0.0,0.0,0.0,0.0,0.0,0.0,0.0,0.0,0.0,0.0,0.0,0.0,0.0,0.0,0.0,0.0,0.0,0.0,0.0,0.0,0.0,0.0,-0.9245,-0.9636,-0.9766,-0.9758,-0.9625,-0.9184,-0.8533,0.0,0.0,0.0,0.0,0.0,0.0,0.0,0.0,0.0,0.0,0.0,0.0,0.0,0.0,0.0,0.0,0.0,0.0,0.0,0.0,0.0,0.0,0.0,0.0,0.0,0.0,0.0,0.0,0.0,0.0,0.0,0.0,0.0,0.0,0.0,0.0,0.0,0.0,0.0,0.0,0.0,0.0,0.0,0.0,0.0,0.0,0.0,0.0,0.0,0.0,0.0,0.0,0.0,0.0,0.0,0.0,0.0,0.0,0.0,0.0,0.0,0.0,0.0,0.0,0.0,0.0,0.0,0.0,0.0,0.0,0.0,0.0,0.0,0.0,0.0,0.0,0.0,0.0,0.0,0.0,0.0,0.0,0.0,0.0,0.0,0.0,0.0,0.0,0.0,0.0,0.0,0.0,0.0,0.0,0.0,0.0,0.0,0.0,0.0,0.0,0.0,0.0,0.0,0.0,0.0,0.0,0.0,0.0,-0.9036,-0.9502,-0.9635,-0.9805,-0.9771,-0.9232,-0.8625,0.0,0.0,0.0,0.0,0.0,0.0,0.0,0.0,0.0,0.0,0.0,0.0,0.0,0.0,0.0,0.0,0.0,0.0,0.0,0.0,0.0,0.0,0.0,0.0,0.0,0.0,0.0,0.0,0.0,0.0,0.0,0.0,0.0,0.0,0.0,0.0,0.0,0.0,0.0,0.0,0.0,0.0,0.0,0.0,0.0,0.0,0.0,0.0,-0.8568,0.0,0.0,0.0,0.0,0.0,0.0,0.0,0.0,0.0,0.0,0.0,0.0,0.0,0.0,0.0,0.0,0.0,0.0,0.0,0.0,0.0,0.0,0.0,0.0,0.0,0.0,0.0,0.0,0.0,0.0,0.0,0.0,0.0,0.0,0.0,0.0,0.0,0.0,0.0,0.0,0.0,0.0,0.0,0.0,0.0,0.0,0.0,0.0,0.0,0.0,0.0,0.0,0.0,0.0,0.0,0.0,0.0,0.0,0.0,-0.9033,-0.9703,-0.9967,-1.0002,-0.9914,-0.9418,-0.8832,0.0,0.0,0.0,0.0,0.0,0.0,0.0,0.0,0.0,0.0,0.0,0.0,0.0,0.0,0.0,0.0,0.0,0.0,0.0,0.0,0.0,0.0,0.0,0.0,0.0,0.0,0.0,0.0,0.0,0.0,0.0,0.0,0.0,0.0,0.0,0.0,0.0,0.0,0.0,0.0,0.0,0.0,0.0,0.0,0.0,0.0,0.0,0.0,0.0,0.0,0.0,0.0,0.0,0.0,0.0,0.0,0.0,0.0,0.0,0.0,0.0,0.0,0.0,0.0,0.0,0.0,0.0,0.0,0.0,0.0,0.0,0.0,0.0,0.0,0.0,0.0,0.0,0.0,0.0,0.0,0.0,0.0,0.0,0.0,0.0,0.0,0.0,0.0,0.0,0.0,0.0,0.0,0.0,0.0,0.0,0.0,0.0,0.0,0.0,0.0,0.0,0.0,0.0,0.0,0.0,0.0,0.0,-0.8756,-0.9216,-0.9968,-1.0136,-1.0148,-1.0012,-0.9557,-0.8994,-0.8336,0.0,0.0,0.0,0.0,0.0,0.0,0.0,0.0,0.0,0.0,0.0,0.0,0.0,0.0,0.0,0.0,0.0,0.0,0.0,0.0,0.0,0.0,0.0,0.0,0.0,0.0,0.0,0.0,0.0,0.0,0.0,0.0,0.0,0.0,0.0,0.0,0.0,0.0,-0.8069,-0.8233,0.0,0.0,0.0,0.0,0.0,0.0,0.0,0.0,-0.8004,0.0,0.0,0.0,0.0,0.0,0.0,0.0,0.0,0.0,0.0,0.0,0.0,0.0,0.0,0.0,0.0,0.0,0.0,0.0,0.0,0.0,0.0,0.0,0.0,0.0,0.0,0.0,0.0,0.0,0.0,0.0,0.0,0.0,0.0,0.0,0.0,0.0,0.0,0.0,0.0,0.0,0.0,0.0,0.0,0.0,0.0,0.0,0.0,0.0,0.0,0.0,0.0,0.0,0.0,0.0,0.0,-0.9481,-0.9022,-0.9035,-0.9761,-0.9859,-0.9883,-0.9842,-0.931,-0.8835,-0.8459,0.0,0.0,0.0,0.0,0.0,0.0,0.0,0.0,0.0,0.0,0.0,0.0,0.0,0.0,0.0,0.0,0.0,0.0,0.0,0.0,0.0,0.0,0.0,0.0,0.0,0.0,0.0,0.0,0.0,0.0,0.0,0.0,0.0,0.0,0.0,0.0,0.0,0.0,0.0,-0.8595,-0.8574,0.0,0.0,0.0,0.0,0.0,0.0,0.0,0.0,-0.7717,0.0,0.0,0.0,0.0,0.0,0.0,0.0,0.0,0.0,0.0,0.0,0.0,0.0,0.0,0.0,0.0,0.0,0.0,0.0,0.0,0.0,0.0,0.0,0.0,0.0,0.0,0.0,0.0,0.0,0.0,0.0,0.0,0.0,0.0,0.0,0.0,0.0,0.0,0.0,0.0,0.0,0.0,0.0,0.0,0.0,0.0,0.0,0.0,0.0,0.0,0.0,0.0,0.0,0.0,0.0,-0.9496,-0.8848,-0.8953,-0.9791,-0.9774,-0.9744,-0.971,-0.9208,-0.8794,0.0,0.0,0.0,0.0,0.0,0.0,0.0,0.0,0.0,0.0,0.0,0.0,0.0,0.0,0.0,0.0,0.0,0.0,0.0,0.0,0.0,0.0,0.0,0.0,0.0,0.0,0.0,0.0,0.0,0.0,0.0,0.0,0.0,0.0,0.0,0.0,0.0,0.0,0.0,0.0,-0.8627,-0.8532,-0.8188,0.0,0.0,0.0,0.0,0.0,0.0,-0.7706,-0.7465,0.0,0.0,0.0,0.0,0.0,0.0,0.0,0.0,0.0,0.0,0.0,0.0,0.0,0.0,0.0,0.0,0.0,0.0,0.0,0.0,0.0,0.0,0.0,0.0,0.0,0.0,0.0,0.0,0.0,0.0,0.0,0.0,0.0,0.0,0.0,0.0,0.0,0.0,0.0,0.0,0.0,0.0,0.0,0.0,0.0,0.0,0.0,0.0,0.0,0.0,0.0,0.0,0.0,0.0,0.0,-0.9363,-0.8713,-0.8854,-0.9747,-0.9801,-0.9751,-0.9612,-0.9174,-0.8794,0.0,0.0,0.0,0.0,0.0,0.0,0.0,0.0,0.0,0.0,0.0,0.0,0.0,0.0,0.0,0.0,0.0,0.0,0.0,0.0,0.0,0.0,0.0,0.0,0.0,0.0,0.0,0.0,0.0,0.0,0.0,0.0,0.0,0.0,0.0,0.0,0.0,0.0,0.0,0.0,0.0,-0.8554,-0.8095,-0.8359,0.0,0.0,0.0,0.0,-0.7801,-0.7675,0.0,0.0,0.0,0.0,0.0,0.0,0.0,0.0,0.0,0.0,0.0,0.0,0.0,0.0,0.0,0.0,0.0,0.0,0.0,0.0,0.0,0.0,0.0,0.0,0.0,0.0,0.0,0.0,0.0,0.0,0.0,0.0,0.0,0.0,0.0,0.0,0.0,0.0,0.0,0.0,0.0,0.0,0.0,0.0,0.0,0.0,0.0,0.0,0.0,0.0,0.0,0.0,0.0,0.0,0.0,0.0,-0.9126,-0.8771,-0.8914,-0.9612,-0.9771,-0.9771,-0.9608,-0.9174,-0.8794,0.0,0.0,0.0,0.0,0.0,0.0,0.0,0.0,0.0,0.0,0.0,0.0,0.0,0.0,0.0,0.0,0.0,0.0,0.0,0.0,0.0,0.0,0.0,0.0,0.0,0.0,0.0,0.0,0.0,0.0,0.0,0.0,0.0,0.0,0.0,0.0,0.0,0.0,0.0,0.0,0.0,-0.8821,-0.8348,-0.8499,-0.8528,0.0,0.0,-0.8339,-0.83,-0.8358,0.0,0.0,0.0,0.0,0.0,0.0,0.0,0.0,0.0,0.0,0.0,0.0,0.0,0.0,0.0,0.0,0.0,0.0,0.0,0.0,0.0,0.0,0.0,0.0,0.0,0.0,0.0,0.0,0.0,0.0,0.0,0.0,0.0,0.0,0.0,0.0,0.0,0.0,0.0,0.0,0.0,0.0,0.0,0.0,0.0,0.0,0.0,0.0,0.0,0.0,0.0,0.0,0.0,0.0,0.0,-0.8199,-0.9326,-0.8845,-0.891,-0.9459,-0.954,-0.9462,-0.9232,-0.8794,-0.8496,0.0,0.0,0.0,0.0,0.0,0.0,0.0,0.0,0.0,0.0,0.0,0.0,0.0,0.0,0.0,0.0,0.0,0.0,0.0,0.0,0.0,0.0,0.0,0.0,0.0,0.0,0.0,0.0,0.0,0.0,0.0,0.0,0.0,0.0,0.0,0.0,0.0,0.0,0.0,0.0,0.0,0.0,-0.8346,-0.8507,0.0,0.0,0.0,-0.854,-0.846,0.0,0.0,0.0,0.0,0.0,0.0,0.0,0.0,0.0,0.0,0.0,0.0,0.0,0.0,0.0,0.0,0.0,0.0,0.0,0.0,0.0,0.0,0.0,0.0,0.0,0.0,0.0,0.0,0.0,0.0,0.0,0.0,0.0,0.0,0.0,0.0,0.0,0.0,0.0,0.0,0.0,0.0,0.0,0.0,0.0,0.0,0.0,0.0,0.0,0.0,0.0,0.0,0.0,0.0,0.0,0.0,0.0,-0.9268,-0.8793,-0.8796,-0.9306,-0.9245,-0.9124,-0.8944,-0.8537,0.0,0.0,0.0,0.0,0.0,0.0,0.0,0.0,0.0,0.0,0.0,0.0,0.0,0.0,0.0,0.0,0.0,0.0,0.0,0.0,0.0,0.0,0.0,0.0,0.0,0.0,0.0,-0.6806,0.0,0.0,0.0,0.0,0.0,0.0,0.0,0.0,0.0,0.0,0.0,0.0,0.0,0.0,-0.8834,-0.8364,-0.866,-0.8899,0.0,0.0,-0.8885,-0.8611,-0.8525,-0.8347,0.0,0.0,0.0,0.0,0.0,0.0,0.0,0.0,0.0,0.0,0.0,0.0,0.0,0.0,0.0,0.0,0.0,0.0,0.0,0.0,0.0,0.0,0.0,0.0,0.0,0.0,0.0,0.0,0.0,0.0,0.0,0.0,0.0,0.0,0.0,0.0,0.0,0.0,0.0,0.0,0.0,0.0,0.0,0.0,0.0,0.0,0.0,0.0,0.0,0.0,0.0,0.0,0.0,0.0,0.0,-0.892,-0.8638,-0.8742,-0.9161,-0.9066,-0.8886,-0.8947,-0.8635,-0.8404,0.0,0.0,0.0,0.0,0.0,0.0,0.0,0.0,0.0,0.0,0.0,0.0,0.0,0.0,0.0,0.0,0.0,0.0,0.0,0.0,0.0,0.0,0.0,0.0,0.0,0.0,0.0,0.0,0.0,0.0,0.0,0.0,0.0,0.0,0.0,0.0,0.0,0.0,0.0,0.0,0.0,-0.9038,-0.8663,-0.9172,-0.9448,0.0,0.0,-0.9402,-0.8899,-0.911,-0.8964,-0.796,0.0,0.0,0.0,0.0,0.0,0.0,0.0,0.0,0.0,0.0,0.0,0.0,0.0,0.0,0.0,0.0,0.0,0.0,0.0,0.0,0.0,0.0,0.0,0.0,0.0,0.0,0.0,0.0,0.0,0.0,0.0,0.0,0.0,0.0,0.0,0.0,0.0,0.0,0.0,0.0,0.0,0.0,0.0,0.0,0.0,0.0,0.0,0.0,0.0,0.0,0.0,0.0,0.0,-0.8196,-0.8905,-0.8649,-0.8716,-0.9005,-0.8963,-0.885,-0.8665,-0.8459,-0.8238,0.0,0.0,0.0,0.0,0.0,0.0,0.0,0.0,0.0,0.0,0.0,0.0,0.0,0.0,0.0,0.0,0.0,0.0,0.0,0.0,0.0,0.0,0.0,0.0,0.0,0.0,0.0,0.0,-0.6771,-0.6647,-0.6661,0.0,0.0,0.0,0.0,0.0,0.0,0.0,0.0,0.0,0.0,-0.9172,-0.8793,-0.9143,0.0,0.0,-0.927,-0.9219,-0.896,-0.8954,-0.8771,-0.8187,-0.7913,0.0,0.0,0.0,0.0,0.0,0.0,0.0,0.0,0.0,0.0,0.0,0.0,0.0,0.0,0.0,0.0,0.0,0.0,0.0,0.0,0.0,0.0,0.0,0.0,0.0,0.0,0.0,0.0,0.0,0.0,0.0,0.0,0.0,0.0,0.0,0.0,0.0,0.0,0.0,0.0,0.0,0.0,0.0,0.0,0.0,0.0,0.0,0.0,0.0,0.0,0.0,0.0,-0.8179,-0.88,-0.8591,-0.8632,-0.893,-0.8937,-0.8791,-0.8496,-0.8343,-0.8147,0.0,0.0,0.0,0.0,0.0,0.0,0.0,0.0,0.0,0.0,0.0,0.0,0.0,0.0,0.0,0.0,0.0,0.0,0.0,0.0,0.0,0.0,0.0,0.0,0.0,0.0,0.0,0.0,-0.6864,-0.6759,-0.6994,0.0,0.0,0.0,0.0,0.0,0.0,0.0,0.0,0.0,0.0,-0.912,-0.8991,-0.9222,-0.9361,-0.9296,-0.9211,-0.9117,-0.9018,-0.8876,-0.8648,-0.8265,0.0,0.0,0.0,0.0,0.0,0.0,0.0,0.0,0.0,0.0,0.0,0.0,0.0,0.0,0.0,0.0,0.0,0.0,0.0,0.0,0.0,0.0,0.0,0.0,0.0,0.0,0.0,0.0,0.0,0.0,0.0,0.0,0.0,0.0,0.0,0.0,0.0,0.0,0.0,0.0,0.0,0.0,0.0,0.0,0.0,0.0,0.0,0.0,0.0,0.0,0.0,0.0,0.0,-0.818,-0.8476,-0.8482,-0.8632,-0.8927,-0.8937,-0.8794,-0.8492,-0.8343,-0.8197,-0.8038,0.0,0.0,0.0,0.0,0.0,0.0,0.0,0.0,0.0,0.0,0.0,0.0,0.0,0.0,0.0,0.0,0.0,0.0,0.0,0.0,0.0,0.0,0.0,0.0,0.0,0.0,-0.6725,-0.6705,-0.6853,0.0,0.0,0.0,0.0,0.0,0.0,0.0,0.0,0.0,0.0,-0.8941,-0.9145,-0.9219,-0.9279,-0.9425,-0.9564,-0.934,-0.9147,-0.9137,-0.9018,-0.8733,0.0,0.0,0.0,0.0,0.0,0.0,0.0,0.0,0.0,0.0,0.0,0.0,0.0,0.0,0.0,0.0,0.0,0.0,0.0,0.0,0.0,0.0,0.0,0.0,0.0,0.0,0.0,0.0,-0.1611,0.0,0.0,0.0,0.0,0.0,0.0,0.0,0.0,0.0,0.0,0.0,-0.4736,-0.4048,0.0,0.0,0.0,0.0,0.0,0.0,0.0,0.0,0.0,0.0,0.0,0.0,-0.8184,-0.8465,-0.8482,-0.8632,-0.8927,-0.8937,-0.8794,-0.8492,-0.8435,-0.8292,-0.8048,0.0,0.0,0.0,0.0,0.0,0.0,0.0,0.0,0.0,0.0,0.0,0.0,0.0,0.0,0.0,0.0,0.0,0.0,0.0,0.0,0.0,0.0,0.0,0.0,0.0,-0.6964,0.0,0.0,0.0,0.0,0.0,0.0,0.0,0.0,0.0,0.0,0.0,-0.8265,-0.8628,-0.8824,-0.904,-0.9127,-0.9283,-0.9401,0.0,0.0,0.0,0.0,0.0,0.0,0.0,0.0,0.0,0.0,0.0,0.0,0.0,0.0,-0.8584,-0.828,-0.8243,-0.8337,-0.8637,0.0,0.0,0.0,0.0,0.0,0.0,0.0,0.0,0.0,0.0,0.0,0.0,0.0,0.0,0.0,0.0,-0.1609,0.0,0.0,0.0,0.0,0.0,0.0,0.0,0.0,-0.3399,-0.3717,-0.3658,-0.3015,-0.3007,0.0,-0.3721,-0.4382,0.0,0.0,0.0,0.0,0.0,0.0,0.0,0.0,-0.7775,-0.741,-0.8059,-0.8388,-0.8185,-0.8526,-0.8605,-0.8421,-0.8357,-0.8211,-0.7967,-0.7916,-0.7865,0.0,0.0,0.0,0.0,0.0,0.0,0.0,0.0,0.0,0.0,0.0,0.0,0.0,0.0,0.0,0.0,0.0,0.0,0.0,0.0,0.0,0.0,0.0,-0.716,0.0,0.0,0.0,0.0,0.0,0.0,0.0,0.0,0.0,-0.8269,-0.8227,-0.8268,-0.8832,-0.8845,-0.8947,-0.9198,0.0,0.0,0.0,0.0,0.0,0.0,0.0,-0.8944,-0.894,-0.8903,-0.8906,-0.8998,-0.9059,-0.9042,-0.8889,0.0,0.0,-0.8511,-0.8369,-0.8466,-0.8667,-0.8706,-0.8829,-0.9086,-0.9037,-0.898,0.0,0.0,0.0,0.0,0.0,0.0,0.0,0.0,-0.1721,-0.1738,0.0,-0.163,0.0,0.0,0.0,0.0,0.0,0.0,0.0,0.0,-0.2677,-0.1767,-0.1767,-0.1766,-0.1648,-0.1722,-0.3132,-0.2996,-0.1665,-0.293,0.0,0.0,0.0,0.0,0.0,0.0,-0.6963,-0.5301,-0.7217,-0.7921,-0.6975,-0.7951,-0.8464,-0.8286,-0.8123,-0.7977,-0.7834,-0.796,-0.797,-0.7828,-0.796,0.0,0.0,0.0,0.0,0.0,0.0,0.0,0.0,0.0,0.0,0.0,0.0,0.0,0.0,0.0,0.0,0.0,0.0,0.0,0.0,-0.7156,0.0,0.0,0.0,0.0,0.0,0.0,0.0,0.0,0.0,0.0,-0.8279,-0.8157,-0.8319,-0.9022,0.0,0.0,0.0,0.0,-0.9442,-0.9595,-0.9615,-0.9561,-0.9415,-0.9622,-0.9605,-0.9066,0.0,0.0,-0.9218,-0.9289,-0.9337,-0.9191,-0.9174,-0.9123,-0.8991,-0.8825,-0.8726,-0.8733,-0.8862,-0.891,-0.8791,-0.8889,-0.8937,-0.1611,0.0,0.0,0.0,0.0,-0.168,-0.1692,-0.1708,-0.1667,-0.1665,-0.1689,-0.1639,0.0,0.0,0.0,0.0,0.0,0.0,-0.2561,-0.2673,-0.2725,-0.2431,-0.1692,-0.1692,-0.1686,-0.1676,-0.2895,-0.2745,-0.1592,-0.2752,-0.3541,-0.3781,0.0,0.0,0.0,0.0,-0.5601,-0.5197,-0.5685,-0.6312,-0.699,-0.7774,-0.8239,-0.8275,-0.8119,-0.8018,-0.7977,-0.8018,-0.8021,-0.7974,-0.8018,0.0,0.0,0.0,0.0,0.0,0.0,0.0,0.0,0.0,0.0,0.0,0.0,0.0,0.0,0.0,0.0,0.0,0.0,0.0,-0.7455,-0.7468,-0.7485,0.0,0.0,0.0,0.0,0.0,0.0,0.0,0.0,0.0,-0.8474,-0.8407,-0.8435,0.0,0.0,-0.8957,-0.9188,-0.9405,-0.9595,-0.9741,0.0,0.0,0.0,-0.9803,-0.9772,-0.9578,-0.968,-0.9696,-0.9513,-0.9517,-0.953,-0.9486,-0.9479,-0.9493,-0.9544,-0.9361,-0.9198,-0.9205,-0.9388,-0.9513,-0.9395,-0.9391,-0.9401,-0.1733,-0.1791,-0.1755,-0.1631,-0.1631,-0.1849,-0.1853,-0.1747,-0.1712,-0.1707,-0.1719,-0.1672,-0.1652,-0.165,-0.1635,0.0,0.0,0.0,-0.1677,-0.1799,-0.2354,-0.2375,-0.1739,-0.2158,-0.2149,-0.1823,-0.3794,-0.457,-0.4104,-0.4336,-0.4019,-0.3446,0.0,0.0,-0.3525,-0.4406,-0.4484,-0.3825,-0.4527,-0.5352,-0.6303,-0.7498,-0.8184,-0.8282,-0.818,-0.8102,-0.8041,-0.8038,-0.8038,-0.8038,-0.8038,-0.7997,0.0,0.0,0.0,0.0,0.0,0.0,0.0,0.0,0.0,0.0,0.0,-0.758,-0.7343,0.0,0.0,0.0,-0.7407,-0.7519,-0.7668,-0.7634,0.0,0.0,0.0,0.0,0.0,0.0,0.0,-0.7981,-0.8404,-0.8615,-0.8596,-0.8729,-0.8818,-0.8757,-0.8859,-0.9032,-0.9296,0.0,-0.9785,-1.0046,-0.9958,-0.9958,-1.0086,-1.007,-1.0204,-1.0161,-1.0073,-1.0005,-0.9971,-0.9917,-0.9876,-0.9876,-0.9873,-0.9903,-0.9988,-0.9897,-0.973,-0.953,-0.9707,-0.9839,-0.9652,-0.9652,-0.968,-0.199,-0.2055,-0.1849,-0.1809,-0.1802,-0.1915,-0.1898,-0.1871,-0.1758,-0.1755,-0.1751,-0.1721,-0.16,-0.1702,-0.1673,0.0,0.0,-0.1704,-0.172,-0.175,-0.1752,-0.1768,-0.1905,-0.2975,-0.3058,-0.2182,-0.5356,-0.7349,-0.7899,-0.6793,-0.4749,-0.196,-0.2703,-0.2587,-0.1924,-0.3701,-0.3661,-0.1813,-0.3674,-0.4899,-0.5448,-0.7384,-0.8414,-0.8275,-0.8258,-0.8184,-0.8048,-0.8038,-0.8038,-0.8038,-0.8038,-0.8031,-0.8024,0.0,0.0,0.0,0.0,0.0,0.0,0.0,0.0,0.0,0.0,0.0,0.0,0.0,0.0,0.0,-0.7611,0.0,-0.7818,-0.7712,0.0,0.0,0.0,-0.7743,-0.8028,-0.8058,-0.8174,-0.8465,0.0,0.0,0.0,0.0,-0.933,-0.9188,-0.9066,-0.914,-0.9554,-0.9751,-1.0005,-1.0385,-1.0473,-1.0487,-1.0449,-1.0551,-1.0622,-1.0619,-1.0466,-1.031,-1.0399,-1.0341,-1.028,-1.028,-1.0293,-1.03,-1.031,-1.0385,-1.0321,-0.9771,-0.9897,-1.0002,-0.9741,-0.9758,-0.9798,-0.2045,-0.2155,-0.1984,-0.1926,-0.1981,-0.1981,-0.1976,-0.1967,-0.1829,-0.1806,-0.1782,-0.1752,-0.1618,-0.1597,-0.1696,-0.1803,-0.1705,-0.1728,-0.1742,-0.1751,-0.1774,-0.1788,-0.1906,-0.301,-0.3889,-0.4655,-0.611,-0.7472,-0.8558,-0.7015,-0.5477,-0.4108,-0.2721,-0.2285,-0.2885,-0.262,-0.2241,-0.1738,-0.2309,-0.4289,-0.784,-0.8348,-0.8414,-0.8275,-0.8157,-0.8075,-0.8041,-0.8038,-0.8038,-0.8038,-0.8038,-0.7987,-0.7872,-0.7974,0.0,0.0,0.0,0.0,0.0,0.0,0.0,0.0,0.0,-0.7875,-0.7617,0.0,-0.7617,0.0,-0.7699,-0.7821,-0.797,-0.7957,0.0,0.0,-0.7953,-0.8011,-0.8194,-0.8218,-0.8326,-0.8515,-0.8825,-0.8967,-0.9039,-0.9242,-0.9367,-0.9334,-0.9398,-0.949,-0.9605,-0.9941,-1.0205,-1.0314,-1.0555,-1.0623,-1.05,-1.0517,-1.0551,-1.0544,-1.0399,-1.0297,-1.0324,-1.0304,-1.0314,-1.0415,-1.0439,-1.0483,-1.0578,-1.0558,-1.0409,-1.0188,-1.0266,-1.0297,-1.0008,-0.9968,-0.9944,-0.2227,-0.2212,-0.2066,-0.2022,-0.1964,-0.2058,-0.2039,-0.2024,-0.1888,-0.1864,-0.1834,-0.1804,-0.1669,-0.1654,-0.175,-0.1752,-0.1766,-0.1782,-0.179,-0.1791,-0.1808,-0.1808,-0.1907,-0.3023,-0.4252,-0.5369,-0.5976,-0.7166,-0.8828,-0.7923,-0.6671,-0.5054,-0.288,-0.2019,-0.2548,-0.2037,-0.1733,-0.1859,-0.2879,-0.5216,-0.8716,-0.8669,-0.8513,-0.8367,-0.8221,-0.8109,-0.8041,-0.8038,-0.8038,-0.8038,-0.8038,-0.8001,-0.7919,-0.7994,-0.7967,0.0,0.0,0.0,0.0,0.0,0.0,0.0,0.0,0.0,0.0,0.0,-0.7781,0.0,-0.7865,0.0,-0.8031,-0.8038,-0.8038,-0.8038,-0.8099,-0.8201,-0.835,-0.8425,-0.8557,-0.8672,-0.9001,-0.914,-0.9161,-0.9401,-0.9523,-0.9405,-0.9568,-0.9703,-0.9727,-0.9985,-1.0198,-1.027,-1.0402,-1.0651,-1.0582,-1.0595,-1.0571,-1.0504,-1.0426,-1.0354,-1.0297,-1.0334,-1.0382,-1.0399,-1.0446,-1.0493,-1.0517,-1.0463,-1.0351,-1.0236,-1.0239,-1.0198,-0.9995,-0.9944,-0.9917,-0.214,-0.2247,-0.2243,-0.2093,-0.2065,-0.2007,-0.1967,-0.1943,-0.1939,-0.1919,-0.1889,-0.1859,-0.1846,-0.1844,-0.1819,-0.1821,-0.1846,-0.1847,-0.1846,-0.1847,-0.1846,-0.1832,-0.1919,-0.3042,-0.4052,-0.4946,-0.5272,-0.6277,-0.7961,-0.8304,-0.7247,-0.4928,-0.2804,-0.1834,-0.1754,-0.1756,-0.1755,-0.1864,-0.4216,-0.6482,-0.8517,-0.8669,-0.8618,-0.8486,-0.8326,-0.8177,-0.8045,-0.8038,-0.8038,-0.8038,-0.8038,-0.8038,-0.8038,-0.8038,-0.8038,0.0,-0.8038,0.0,0.0,0.0,0.0,0.0,0.0,0.0,0.0,-0.8038,-0.8038,-0.8038,-0.8038,-0.8038,-0.8038,-0.8038,-0.8045,-0.8069,-0.8187,-0.8333,-0.8492,-0.8632,-0.8771,-0.892,-0.9198,-0.9327,-0.9225,-0.9557,-0.9713,-0.952,-0.9656,-0.9802,-0.9829,-0.9954,-1.0103,-1.0236,-1.0371,-1.0483,-1.0602,-1.068,-1.0663,-1.0531,-1.0487,-1.0443,-1.03,-1.0375,-1.0422,-1.0327,-1.0378,-1.0419,-1.03,-1.0273,-1.0209,-1.0086,-1.0049,-0.9988,-0.9869,-0.9832,-0.9819,-0.2151,-0.2144,-0.2252,-0.2237,-0.2095,-0.2163,-0.2133,-0.2001,-0.1977,-0.1951,-0.1921,-0.189,-0.1877,-0.1877,-0.1871,-0.1754,-0.176,-0.1877,-0.1994,-0.1994,-0.1877,-0.1874,-0.1985,-0.3148,-0.3238,-0.2624,-0.4445,-0.4636,-0.323,-0.5121,-0.4895,-0.2559,-0.1996,-0.1777,0.0,0.0,0.0,0.0,-0.4237,-0.5919,-0.7033,-0.8018,-0.8513,-0.8476,-0.8221,0.0,-0.8041,-0.8038,-0.8038,-0.8038,-0.8038,0.0,0.0,0.0,0.0,0.0,0.0,0.0,0.0,0.0,0.0,0.0,-0.8024,-0.8038,-0.8038,-0.8038,-0.8038,-0.8038,-0.8038,-0.8038,-0.8038,-0.8038,-0.8089,-0.8211,-0.8255,-0.8374,-0.8628,-0.8696,-0.8771,-0.8923,-0.9201,-0.9371,-0.9361,-0.9622,-0.9795,-0.9737,-0.9785,-0.9819,-0.9819,-0.9947,-1.0053,-1.01,-1.0229,-1.0327,-1.0489,-1.0565,-1.0639,-1.0534,-1.0493,-1.0429,-1.03,-1.0287,-1.0317,-1.027,-1.0304,-1.0314,-1.0276,-1.0181,-1.0083,-1.0053,-0.9951,-0.9856,-0.9825,-0.9819,-0.9819,-0.2155,0.0,-0.2138,-0.2131,0.0,-0.2213,-0.2183,-0.2038,-0.1995,-0.1968,-0.1953,-0.1937,-0.1922,-0.1909,-0.1908,-0.19,-0.1885,-0.1885,-0.1995,-0.198,-0.1863,-0.1863,-0.1863,-0.2443,-0.2442,-0.1859,-0.3136,-0.2992,-0.1925,-0.3056,-0.3046,-0.1791,-0.1791,-0.1793,-0.1795,-0.1795,-0.1793,-0.1791,-0.3578,-0.4806,-0.547,-0.6802,-0.7635,-0.7626,0.0,0.0,0.0,0.0,0.0,0.0,0.0,0.0,0.0,0.0,0.0,-0.8038,-0.8038,-0.8038,-0.8038,-0.8038,-0.8038,-0.8038,-0.8038,-0.8038,-0.8038,-0.8038,-0.8038,-0.8038,-0.8038,-0.8038,-0.8038,-0.8038,-0.8102,-0.8252,-0.8333,-0.8465,-0.8672,-0.8777,-0.8852,-0.8947,-0.9201,-0.9381,-0.9384,-0.9635,-0.9808,-0.9819,-0.9819,-0.9819,-0.9825,-0.9886,-0.9954,-1.0032,-1.0107,-1.0195,-1.0276,-1.0388,-1.0453,-1.0314,-1.0273,-1.0212,-1.008,-1.0114,-1.0148,-1.0083,-1.011,-1.0148,-1.0066,-0.9985,-0.9937,-0.993,-0.9873,-0.9822,-0.9819,-0.9819,-0.9819,-0.2155,-0.2155,-0.2155,-0.2155,-0.2153,-0.2255,-0.2092,-0.206,0.0,0.0,0.0,-0.1977,-0.1963,-0.2061,-0.2066,-0.2051,-0.2021,-0.1907,-0.1894,-0.1865,-0.1864,-0.1864,-0.1865,-0.1864,-0.1874,-0.1894,-0.1894,-0.1878,-0.1849,-0.1848,-0.1836,-0.1812,-0.1806,-0.18,-0.1795,-0.1795,-0.1795,-0.1907,-0.3024,-0.3805,-0.4139,-0.562,-0.6469,-0.6682,-0.7376,-0.7839,-0.8038,-0.8038,-0.8038,-0.8038,-0.8038,-0.8038,-0.8038,-0.8038,-0.8038,-0.8038,-0.8038,-0.8038,-0.8038,-0.8038,-0.8038,-0.8038,-0.8038,-0.8038,-0.8038,-0.8038,-0.8038,-0.8038,-0.8038,-0.8038,-0.8038,-0.8065,-0.8143,-0.8292,-0.8435,-0.8584,-0.8733,-0.8859,-0.893,-0.8964,-0.9171,-0.9337,-0.9344,-0.9591,-0.9781,-0.9785,-0.9802,-0.9819,-0.9819,-0.9825,-0.9873,-0.9971,-1.0032,-1.0103,-1.0202,-1.0276,-1.0215,-1.0107,-1.0066,-0.9995,-0.9886,-0.9924,-0.9947,-0.9866,-0.993,-0.9947,-0.9852,-0.9836,-0.9819,-0.9819,-0.9819,-0.9819,-0.9819,-0.9819,-0.9819,-0.2155,-0.2155,-0.2155,-0.2155,-0.2153,-0.2254,-0.2223,-0.2059,-0.2002,-0.1977,-0.1977,-0.1977,-0.1975,-0.1972,-0.1995,-0.1991,-0.1966,-0.1864,-0.186,0.0,-0.1957,-0.1958,-0.1958,-0.1957,-0.1946,-0.1926,-0.1925,-0.1909,-0.2,-0.1879,-0.176,-0.1752,-0.1847,-0.1821,-0.1797,-0.1795,-0.1795,-0.1795,-0.3023,-0.3582,-0.3691,-0.4759,-0.573,-0.6671,-0.6664,-0.7036,-0.7939,-0.8041,-0.8038,-0.8038,-0.8038,-0.8038,-0.8038,-0.8038,-0.8038,-0.8038,-0.8038,-0.8038,-0.8038,-0.8038,-0.8038,-0.8038,-0.8038,-0.8038,-0.8038,-0.8038,-0.8038,-0.8038,-0.8038,-0.8038,-0.8048,-0.8157,-0.8289,-0.8435,-0.8587,-0.8737,-0.8879,-0.892,-0.8937,-0.8944,-0.9079,-0.9191,-0.9225,-0.9456,-0.9639,-0.9656,-0.973,-0.9812,-0.9805,-0.9819,-0.9829,-0.9866,-0.9968,-1.0049,-1.0086,-1.0198,-1.0181,-1.0076,-1.0039,-0.9985,-0.9846,-0.9846,-0.9859,-0.9825,-0.9852,-0.9849,-0.9819,-0.9819,-0.9819,-0.9819,-0.9819,-0.9819,-0.9819,-0.9819,-0.9819,-0.2155,-0.2155,-0.2155,-0.2155,-0.2152,-0.2254,-0.2233,-0.2085,-0.2043,-0.2024,-0.2024,-0.2024,-0.2024,-0.2025,-0.2037,-0.2027,-0.2125,-0.2013,-0.1994,-0.1954,-0.1952,-0.1952,-0.1952,-0.1952,-0.1953,-0.1956,-0.1589,-0.1576,-0.1913,-0.1911,-0.1657,-0.1396,-0.1601,-0.1808,-0.1797,-0.1812,-0.1811,-0.1795,-0.2354,-0.2576,-0.2575,-0.3606,-0.4742,-0.5813,-0.6297,-0.7109,-0.8167,-0.8163,-0.8126,-0.8041,-0.8038,-0.8038,-0.8038,-0.8038,-0.8038,-0.8038,-0.8038,-0.8038,-0.8038,-0.8038,-0.8038,-0.8038,-0.8038,-0.8038,-0.8038,-0.8038,-0.8038,-0.8038,-0.8038,-0.8075,-0.8157,-0.8228,-0.8357,-0.8584,-0.8672,-0.8771,-0.8906,-0.8937,-0.8937,-0.895,-0.9066,-0.9154,-0.9154,-0.9347,-0.9483,-0.9496,-0.9612,-0.9703,-0.9713,-0.9778,-0.9819,-0.9825,-0.9883,-0.992,-0.993,-0.9978,-0.9995,-0.993,-0.9924,-0.9897,-0.9829,-0.9819,-0.9819,-0.9819,-0.9819,-0.9819,-0.9819,-0.9819,-0.9819,-0.9819,-0.9819,-0.9819,-0.9819,-0.9819,-0.9819,-0.2155,-0.2155,-0.2155,-0.2155,-0.2153,-0.2262,-0.2252,-0.2249,-0.2094,-0.2084,-0.2083,-0.207,-0.2064,-0.2064,-0.2071,-0.2057,-0.216,-0.2163,-0.2137,-0.1964,-0.1954,-0.1951,-0.1949,-0.1817,-0.17,-0.1596,-0.1352,-0.1343,-0.1571,-0.1817,-0.1552,-0.1043,-0.1484,-0.1812,-0.1806,-0.1828,-0.1829,-0.1806,-0.1798,-0.1795,-0.1794,-0.2646,-0.3602,-0.4684,-0.5463,-0.6537,-0.7804,-0.7872,-0.7906,-0.8102,-0.8058,-0.8038,-0.8038,-0.8038,-0.7939,-0.7739,-0.7839,-0.8038,-0.8038,-0.8038,-0.8038,-0.8038,-0.8038,-0.8038,-0.8038,-0.8038,-0.8038,-0.8038,-0.8038,-0.8102,-0.8238,-0.8306,-0.8425,-0.8676,-0.8743,-0.8811,-0.8916,-0.8937,-0.8937,-0.895,-0.9039,-0.91,-0.913,-0.9235,-0.9357,-0.9449,-0.9537,-0.9612,-0.9659,-0.9758,-0.9812,-0.9819,-0.9819,-0.9829,-0.9819,-0.9829,-0.9836,-0.9819,-0.9825,-0.9829,-0.9819,-0.9819,-0.9819,-0.9819,-0.9819,-0.9819,-0.9819,-0.9819,-0.9819,-0.9819,-0.9819,-0.9819,-0.9819,-0.9819,-0.9819,-0.2155,-0.2155,-0.2155,-0.2155,-0.2154,-0.2151,-0.2149,-0.2149,-0.2146,-0.2146,-0.2138,-0.2089,-0.2066,-0.2068,-0.2094,-0.222,-0.2194,-0.2219,-0.2212,-0.2049,-0.2023,-0.2011,-0.1881,-0.1346,-0.0725,-0.0485,-0.1334,-0.1214,-0.0364,-0.1225,-0.1456,-0.1061,-0.1526,-0.1862,-0.184,-0.1839,-0.1839,-0.1836,-0.1809,-0.1795,-0.1793,-0.1876,-0.2513,-0.3495,-0.3652,-0.4671,-0.6771,-0.6774,-0.7129,-0.8136,-0.8116,-0.8041,-0.8041,-0.8041,-0.754,-0.6736,-0.7437,-0.8038,-0.8038,-0.8038,-0.7939,-0.8038,-0.8038,-0.8038,-0.8038,-0.8038,-0.8038,-0.8038,-0.8038,-0.8109,-0.8255,-0.8381,-0.8526,-0.8706,-0.8832,-0.8927,-0.8933,-0.8937,-0.8937,-0.8937,-0.896,-0.8957,-0.8988,-0.9093,-0.9273,-0.9462,-0.952,-0.9598,-0.971,-0.9768,-0.9808,-0.9815,-0.9819,-0.9819,-0.9819,-0.9819,-0.9819,-0.9819,-0.9819,-0.9819,-0.9819,-0.9819,-0.9819,-0.9819,-0.9819,-0.9819,-0.9819,-0.9819,-0.9819,-0.9819,-0.9819,-0.9819,-0.9819,-0.9819,-0.9819,-0.1346,-0.2155,-0.2155,-0.2155,-0.2155,-0.2155,-0.2155,-0.2155,-0.1751,-0.1751,-0.2153,-0.2127,-0.2117,-0.2119,-0.2131,-0.2262,-0.2251,-0.2264,-0.2252,-0.2091,-0.2077,-0.2064,-0.1918,-0.1771,-0.1006,-0.0126,-0.0623,0.0,-0.0125,-0.0501,-0.0991,-0.1456,-0.1801,-0.1897,-0.1869,-0.1867,-0.1859,-0.1841,-0.1845,-0.1832,-0.1797,-0.1782,-0.2329,-0.3323,-0.3521,-0.414,-0.5609,-0.6313,-0.6898,-0.7348,-0.784,-0.8174,-0.8174,-0.7485,-0.6836,-0.6437,-0.6232,-0.6628,-0.7939,-0.7437,-0.7338,-0.7939,-0.8038,-0.8038,-0.8038,-0.8038,-0.8038,-0.8038,-0.8038,-0.8133,-0.8353,-0.8448,-0.8577,-0.8798,-0.8903,-0.8937,-0.8937,-0.8937,-0.8937,-0.8937,-0.8937,-0.8937,-0.8944,-0.8991,-0.9076,-0.9208,-0.9279,-0.9412,-0.954,-0.9635,-0.9727,-0.9798,-0.9819,-0.9819,-0.9819,-0.9819,-0.9819,-0.9819,-0.9819,-0.9819,-0.9819,-0.9819,-0.9819,-0.9819,-0.9819,-0.9819,-0.9819,-0.9819,-0.9819,-0.9819,-0.9819,-0.9819,-0.9819,-0.9819,-0.9819,-0.054,-0.1616,-0.202,-0.2155,-0.2155,-0.2155,-0.202,-0.1616,-0.1481,-0.1751,-0.2155,-0.2155,-0.202,-0.1616,-0.1616,-0.1751,-0.2155,-0.2155,-0.2143,-0.2122,-0.1982,-0.1963,-0.1939,-0.1536,-0.1019,0.0,0.0,0.0,0.0,-0.0509,-0.0879,-0.1366,-0.1597,-0.1823,-0.1924,-0.1922,-0.1903,-0.1872,-0.1895,-0.1881,-0.183,-0.1828,-0.2274,-0.3029,-0.3135,-0.356,-0.4616,-0.5465,-0.6067,-0.6305,-0.7249,-0.7808,-0.7804,-0.6989,-0.6329,-0.5918,-0.4976,-0.5179,-0.7036,-0.6735,-0.6822,-0.75,-0.7899,-0.8082,-0.8048,-0.8038,-0.8038,-0.8038,-0.8038,-0.816,-0.8428,-0.8482,-0.8615,-0.8889,-0.8937,-0.8937,-0.8937,-0.8937,-0.8937,-0.8937,-0.8937,-0.8937,-0.8937,-0.8944,-0.8974,-0.9035,-0.911,-0.9208,-0.9361,-0.952,-0.9652,-0.9747,-0.9788,-0.9819,-0.9819,-0.9819,-0.9819,-0.9819,-0.9819,-0.9819,-0.9819,-0.9819,-0.9819,-0.9819,-0.9819,-0.9819,-0.9819,-0.9819,-0.9819,-0.9819,-0.9819,-0.9819,-0.9819,-0.9819,-0.9819,-0.0,0.0,-0.1616,-0.2155,-0.2155,-0.2155,-0.1346,-0.0404,-0.1481,-0.2155,-0.2155,-0.2155,-0.1346,-0.0269,-0.0404,-0.0943,-0.202,-0.2155,-0.2154,-0.2147,-0.1459,-0.1571,-0.2064,-0.0753,0.0,0.0,0.0,0.0,0.0,-0.1275,-0.139,-0.0253,-0.0882,-0.151,-0.1882,-0.2004,-0.1982,-0.1936,-0.1954,-0.1943,-0.1894,-0.191,-0.1883,-0.2037,-0.1908,-0.2465,-0.3458,-0.3633,-0.4038,-0.5118,-0.6206,-0.6779,-0.6777,-0.6663,-0.6018,-0.5067,-0.3962,-0.3852,-0.5059,-0.6013,-0.6604,-0.6727,-0.7623,-0.8191,-0.8055,-0.8038,-0.8038,-0.8038,-0.8038,-0.816,-0.8411,-0.8476,-0.8611,-0.8889,-0.8937,-0.8937,-0.8937,-0.8937,-0.8937,-0.8937,-0.8937,-0.8937,-0.8937,-0.8937,-0.8994,-0.9076,-0.9137,-0.9195,-0.9334,-0.9496,-0.9578,-0.9642,-0.9727,-0.9819,-0.9819,-0.9819,-0.9819,-0.9819,-0.9819,-0.9819,-0.9819,-0.9819,-0.9819,-0.9819,-0.9819,-0.9819,-0.9819,-0.9819,-0.9819,-0.9819,-0.9819,-0.9819,-0.9819,-0.9819,-0.9819,0.0,0.0,-0.054,-0.0812,-0.0818,-0.0811,-0.0539,-0.0135,-0.0539,-0.0808,-0.0808,0.0,-0.0539,-0.0,-0.0943,-0.1751,-0.2155,-0.2155,-0.2155,-0.2153,-0.1875,-0.1466,-0.0795,0.0,0.0,0.0,0.0,0.0,0.0,-0.0525,-0.0524,-0.013,-0.0259,-0.1034,-0.192,-0.2155,-0.2007,-0.1991,-0.1999,-0.1984,-0.1949,-0.1972,-0.1953,-0.1885,-0.1844,-0.204,-0.2466,-0.3117,-0.3772,-0.4101,-0.5122,-0.5719,-0.5607,-0.4914,-0.4357,-0.3825,-0.2856,-0.3064,-0.4667,-0.5413,-0.5901,-0.6529,-0.7651,-0.8211,-0.8079,-0.8038,-0.8038,-0.8038,-0.8038,-0.814,-0.8303,-0.8428,-0.8604,-0.8869,-0.8937,-0.893,-0.8937,-0.8937,-0.8937,-0.8937,-0.8937,-0.8937,-0.8937,-0.8937,-0.8957,-0.9001,-0.9018,-0.9086,-0.9198,-0.9289,-0.9398,-0.9561,-0.9649,-0.9717,-0.9819,-0.9819,-0.9819,-0.9819,-0.9819,-0.9819,-0.9819,-0.9805,-0.9802,-0.9812,-0.9815,-0.9808,-0.9805,-0.9819,-0.9819,-0.9819,-0.9819,-0.9819,-0.9819,-0.9819,-0.9819,0.0,0.0,0.0,0.0,0.0,0.0,0.0,0.0,0.0,0.0,0.0,0.0,0.0,0.0,-0.1474,-0.214,-0.2142,-0.2149,-0.2015,-0.1605,-0.2006,-0.1467,0.0,0.0,0.0,0.0,0.0,0.0,0.0,0.0,0.0,0.0,0.0,-0.066,-0.17,-0.2072,-0.2055,-0.2039,-0.2042,-0.203,-0.1999,-0.2018,-0.201,-0.1962,-0.1918,-0.1868,-0.1814,-0.2612,-0.3054,-0.3136,-0.3984,-0.4616,-0.4501,-0.4006,-0.3335,-0.281,-0.2154,-0.2368,-0.3672,-0.432,-0.504,-0.6005,-0.711,-0.7757,-0.7928,-0.7965,-0.8041,-0.8045,-0.8099,-0.8177,-0.8326,-0.8472,-0.8621,-0.8777,-0.8835,-0.8842,-0.8804,-0.8835,-0.8882,-0.8927,-0.8937,-0.8937,-0.8937,-0.8937,-0.894,-0.8937,-0.8937,-0.8988,-0.9059,-0.9184,-0.9279,-0.95,-0.9632,-0.9724,-0.9798,-0.9819,-0.9819,-0.9819,-0.9819,-0.9819,-0.9808,-0.9795,-0.9791,-0.9802,-0.9802,-0.9791,-0.9798,-0.9815,-0.9819,-0.9819,-0.9819,-0.9819,-0.9819,-0.9819,-0.9819,0.0,0.0,0.0,0.0,0.0,0.0,0.0,0.0,0.0,0.0,0.0,0.0,0.0,0.0,-0.1591,-0.2241,-0.2246,-0.2003,-0.1467,-0.066,-0.145,-0.131,0.0,0.0,0.0,0.0,0.0,0.0,0.0,0.0,0.0,0.0,0.0,0.0,-0.1076,-0.1873,-0.2119,-0.2082,-0.209,-0.2077,-0.2031,-0.2052,-0.2052,-0.202,-0.2015,-0.1964,-0.1855,-0.199,-0.1979,-0.2041,-0.2925,-0.3586,-0.3576,-0.3746,-0.3409,-0.2223,-0.1875,-0.1876,-0.2009,-0.3123,-0.4197,-0.4996,-0.6102,-0.7264,-0.7869,-0.8056,-0.8085,-0.8113,-0.8201,-0.8323,-0.8459,-0.8598,-0.8652,-0.854,-0.8679,-0.871,-0.8601,-0.8638,-0.8774,-0.8903,-0.8937,-0.8937,-0.8937,-0.8937,-0.8937,-0.8937,-0.894,-0.8957,-0.9015,-0.9181,-0.9337,-0.9449,-0.9591,-0.9737,-0.9785,-0.9819,-0.9819,-0.9819,-0.9819,-0.9819,-0.9802,-0.9785,-0.9781,-0.9788,-0.9771,-0.9764,-0.9805,-0.9819,-0.9819,-0.9819,-0.9819,-0.9819,-0.9819,-0.9819,-0.9819,0.0,0.0,0.0,0.0,0.0,0.0,0.0,0.0,0.0,0.0,0.0,0.0,0.0,0.0,-0.157,-0.2212,-0.2083,-0.1186,-0.0922,-0.1303,-0.0911,0.0,0.0,0.0,0.0,0.0,0.0,0.0,0.0,0.0,0.0,0.0,0.0,0.0,-0.1076,-0.175,-0.2133,-0.2104,-0.2125,-0.2111,-0.2061,-0.2099,-0.21,-0.2061,-0.2089,-0.2065,-0.1971,-0.1954,-0.1939,-0.1917,-0.2255,-0.2453,-0.24,-0.2469,-0.2343,-0.1904,-0.1787,-0.1783,-0.1904,-0.2911,-0.3667,-0.4271,-0.5636,-0.7183,-0.8033,-0.8163,-0.8227,-0.8336,-0.8387,-0.8334,-0.8496,-0.8618,-0.8682,-0.8645,-0.8774,-0.8794,-0.8672,-0.876,-0.8872,-0.8923,-0.8937,-0.8937,-0.8937,-0.8937,-0.8937,-0.8937,-0.8937,-0.896,-0.9076,-0.9167,-0.933,-0.9503,-0.9639,-0.9741,-0.9791,-0.9819,-0.9819,-0.9819,-0.9819,-0.9819,-0.9802,-0.9758,-0.9761,-0.9764,-0.9744,-0.9764,-0.9805,-0.9819,-0.9819,-0.9819,-0.9819,-0.9819,-0.9819,-0.9819,-0.9819,0.0,0.0,0.0,0.0,0.0,0.0,0.0,0.0,0.0,0.0,0.0,0.0,0.0,0.0,-0.0929,-0.1323,-0.1323,-0.0398,-0.0529,-0.118,-0.0521,0.0,0.0,0.0,0.0,0.0,0.0,0.0,0.0,0.0,0.0,0.0,-0.0539,-0.0805,-0.1204,-0.1745,-0.2136,-0.2102,-0.2109,-0.2097,-0.2065,-0.2084,-0.2086,-0.2059,-0.2095,-0.2095,-0.2052,-0.2024,-0.1999,-0.1979,-0.1958,-0.1919,-0.1863,-0.1838,-0.1819,-0.1799,-0.1795,-0.1795,-0.1907,-0.2465,-0.3124,-0.3642,-0.4817,-0.6519,-0.7846,-0.8008,-0.7629,-0.8377,-0.853,-0.8458,-0.8591,-0.8706,-0.8764,-0.8713,-0.8781,-0.8808,-0.8737,-0.8682,-0.8766,-0.891,-0.8937,-0.8937,-0.8937,-0.8937,-0.8937,-0.8937,-0.894,-0.8991,-0.9117,-0.9205,-0.9388,-0.9554,-0.9673,-0.9751,-0.9805,-0.9819,-0.9819,-0.9819,-0.9819,-0.9819,-0.9812,-0.9734,-0.97,-0.9724,-0.972,-0.9778,-0.9819,-0.9819,-0.9819,-0.9819,-0.9819,-0.9819,-0.9819,-0.9819,-0.9819,0.0,0.0,0.0,0.0,0.0,0.0,0.0,0.0,0.0,0.0,0.0,0.0,0.0,0.0,0.0,0.0,0.0,0.0,0.0,0.0,0.0,0.0,0.0,0.0,0.0,0.0,0.0,0.0,0.0,0.0,0.0,0.0,-0.1211,-0.1738,-0.1459,-0.187,-0.2119,-0.2069,-0.2066,-0.2054,-0.2021,-0.2027,-0.2026,-0.2024,-0.2054,-0.2078,-0.2086,-0.2067,-0.2033,-0.1988,-0.198,-0.1953,-0.1904,-0.1891,-0.1866,-0.1814,-0.1802,-0.1799,-0.1797,-0.1907,-0.2353,-0.3237,-0.3643,-0.4811,-0.7533,-0.7451,-0.7387,-0.8461,-0.8655,-0.8615,-0.8747,-0.8835,-0.8852,-0.8754,-0.8747,-0.8733,-0.873,-0.8632,-0.8709,-0.891,-0.8937,-0.8937,-0.8937,-0.8937,-0.8944,-0.8967,-0.8977,-0.9055,-0.9208,-0.9351,-0.9459,-0.9591,-0.973,-0.9768,-0.9819,-0.9819,-0.9819,-0.9819,-0.9819,-0.9819,-0.9819,-0.9747,-0.97,-0.9717,-0.973,-0.9788,-0.9819,-0.9819,-0.9819,-0.9819,-0.9819,-0.9819,-0.9819,-0.9819,-0.9819,0.0,0.0,0.0,0.0,0.0,0.0,0.0,0.0,0.0,0.0,0.0,0.0,0.0,0.0,0.0,0.0,0.0,0.0,0.0,0.0,0.0,0.0,0.0,0.0,0.0,0.0,0.0,0.0,0.0,0.0,0.0,0.0,-0.1348,-0.2007,-0.1851,-0.1989,-0.2088,-0.2043,-0.2054,-0.2038,-0.2003,-0.203,-0.204,-0.2022,-0.2047,-0.2065,-0.2075,-0.2069,-0.2048,-0.2012,-0.2133,-0.1992,-0.1954,-0.195,-0.1924,-0.1872,-0.1859,-0.184,-0.1806,-0.1796,-0.2019,-0.2241,-0.3008,-0.4334,-0.6107,-0.7529,-0.8169,-0.8832,-0.8862,-0.8872,-0.8879,-0.891,-0.8906,-0.8879,-0.8788,-0.876,-0.8842,-0.8879,-0.8789,-0.8933,-0.8937,-0.8937,-0.8937,-0.8954,-0.8984,-0.9059,-0.911,-0.9181,-0.9367,-0.9442,-0.9527,-0.9683,-0.9798,-0.9808,-0.9819,-0.9819,-0.9819,-0.9819,-0.9819,-0.9819,-0.9819,-0.9795,-0.9781,-0.9788,-0.9778,-0.9815,-0.9819,-0.9819,-0.9819,-0.9819,-0.9819,-0.9819,-0.9819,-0.9819,-0.9819,0.0,0.0,0.0,0.0,0.0,0.0,0.0,0.0,0.0,0.0,0.0,0.0,0.0,0.0,0.0,0.0,0.0,0.0,0.0,0.0,0.0,0.0,0.0,0.0,0.0,0.0,0.0,0.0,0.0,0.0,0.0,0.0,-0.0817,-0.1488,-0.2153,-0.2145,-0.211,-0.2055,-0.2054,-0.2036,-0.1986,-0.2008,-0.2015,-0.2005,-0.202,-0.2027,-0.1648,-0.191,-0.204,-0.2039,-0.2046,-0.2033,-0.1985,-0.2001,-0.1979,-0.1913,-0.1905,-0.1883,-0.1842,-0.1822,-0.1807,-0.191,-0.2576,-0.3357,-0.4804,-0.6604,-0.7946,-0.8039,-0.8605,-0.8826,-0.8937,-0.8937,-0.8937,-0.892,-0.8859,-0.8845,-0.8933,-0.893,-0.8937,-0.8937,-0.8937,-0.8937,-0.8944,-0.8988,-0.9062,-0.914,-0.9215,-0.9361,-0.953,-0.9551,-0.9588,-0.9724,-0.9778,-0.9761,-0.9802,-0.9819,-0.9819,-0.9819,-0.9819,-0.9819,-0.9819,-0.9819,-0.9815,-0.9812,-0.9819,-0.9819,-0.9819,-0.9819,-0.9819,-0.9819,-0.9819,-0.9819,-0.9819,-0.9819,-0.9819,0.0,0.0,0.0,0.0,0.0,0.0,0.0,0.0,0.0,0.0,0.0,0.0,0.0,0.0,0.0,0.0,0.0,0.0,0.0,0.0,0.0,0.0,0.0,0.0,0.0,0.0,0.0,0.0,0.0,0.0,0.0,0.0,0.0,-0.0826,-0.178,-0.2056,-0.2151,-0.2084,-0.2071,-0.2049,-0.2006,-0.2003,-0.2003,-0.1994,-0.1861,-0.1614,-0.1368,-0.1627,-0.2023,-0.2052,-0.2083,-0.2051,-0.1996,-0.2035,-0.1768,-0.1717,-0.1822,-0.1929,-0.1899,-0.1874,-0.1846,-0.1828,-0.1823,-0.2367,-0.3837,-0.5539,-0.6914,-0.7421,-0.8291,-0.8853,-0.8937,-0.8937,-0.8937,-0.894,-0.894,-0.896,-0.894,-0.8937,-0.8937,-0.8944,-0.8944,-0.8964,-0.8998,-0.9076,-0.9188,-0.931,-0.9364,-0.9462,-0.9557,-0.9554,-0.9615,-0.972,-0.9727,-0.9686,-0.9751,-0.9819,-0.9819,-0.9819,-0.9819,-0.9819,-0.9819,-0.9819,-0.9819,-0.9819,-0.9819,-0.9819,-0.9819,-0.9819,-0.9819,-0.9819,-0.9819,-0.9819,-0.9819,-0.9819,-0.9819,0.0,0.0,0.0,0.0,0.0,0.0,0.0,0.0,0.0,0.0,0.0,0.0,0.0,0.0,0.0,0.0,0.0,0.0,0.0,0.0,0.0,0.0,0.0,0.0,0.0,0.0,0.0,0.0,0.0,0.0,0.0,0.0,0.0,-0.0417,-0.138,-0.2069,-0.2169,-0.2111,-0.21,-0.2081,-0.2052,-0.2039,-0.203,-0.2011,-0.1492,-0.1236,-0.1236,-0.1611,-0.1989,-0.2001,-0.202,-0.2028,-0.1891,-0.1659,-0.1147,-0.088,-0.1498,-0.1986,-0.1962,-0.1945,-0.1932,-0.1902,-0.2027,-0.2383,-0.3555,-0.49,-0.629,-0.7233,-0.8423,-0.8729,-0.8785,-0.8843,-0.888,-0.8917,-0.9083,-0.9089,-0.8977,-0.895,-0.8967,-0.8971,-0.9045,-0.9106,-0.9113,-0.9242,-0.9357,-0.9469,-0.953,-0.9574,-0.9578,-0.9578,-0.9639,-0.973,-0.9683,-0.9663,-0.9761,-0.9819,-0.9819,-0.9819,-0.9819,-0.9819,-0.9819,-0.9819,-0.9819,-0.9819,-0.9819,-0.9819,-0.9819,-0.9819,-0.9819,-0.9819,-0.9819,-0.9819,-0.9819,-0.9819,-0.9819,0.0,0.0,0.0,0.0,0.0,0.0,0.0,0.0,0.0,0.0,0.0,0.0,0.0,0.0,0.0,0.0,0.0,0.0,0.0,0.0,0.0,0.0,0.0,0.0,0.0,0.0,0.0,0.0,0.0,0.0,0.0,0.0,-0.0568,-0.1135,-0.1271,-0.1968,-0.2222,-0.2178,-0.2143,-0.2116,-0.209,-0.207,-0.2059,-0.191,-0.1385,-0.0876,-0.0631,-0.087,-0.1242,-0.1495,-0.1874,-0.1875,-0.1758,-0.153,-0.1024,-0.038,-0.0636,-0.1518,-0.1879,-0.1995,-0.1982,-0.1956,-0.1969,-0.2312,-0.2988,-0.408,-0.489,-0.576,-0.6635,-0.7623,-0.8208,-0.8217,-0.8459,-0.9238,-0.9415,-0.9398,-0.9276,-0.9077,-0.8997,-0.9093,-0.9174,-0.9235,-0.9303,-0.9405,-0.9473,-0.9564,-0.9666,-0.9707,-0.9676,-0.9673,-0.9673,-0.9703,-0.9652,-0.9663,-0.9771,-0.9819,-0.9819,-0.9819,-0.9819,-0.9819,-0.9819,-0.9819,-0.9819,-0.9819,-0.9819,-0.9819,-0.9819,-0.9819,-0.9819,-0.9819,-0.9819,-0.9819,-0.9819,-0.9819,-0.9819,0.0,0.0,0.0,0.0,0.0,0.0,0.0,0.0,0.0,0.0,0.0,0.0,0.0,0.0,0.0,0.0,0.0,0.0,0.0,0.0,0.0,0.0,0.0,0.0,0.0,0.0,0.0,0.0,0.0,0.0,0.0,0.0,-0.1155,-0.144,-0.145,-0.1877,-0.2273,-0.223,-0.2193,-0.2153,-0.2121,-0.2226,-0.2082,-0.1938,-0.1533,-0.0892,0.0,0.0,-0.0376,-0.1012,-0.1624,-0.1613,-0.1496,-0.1387,-0.1408,0.0,0.0,-0.077,-0.1662,-0.2039,-0.2033,-0.2001,-0.2006,-0.1996,-0.2353,-0.3202,-0.3921,-0.4363,-0.5161,-0.6327,-0.7103,-0.7682,-0.8216,-0.9147,-0.9569,-0.9788,-0.9666,-0.9412,-0.9432,-0.9242,-0.9317,-0.9401,-0.9462,-0.9544,-0.9598,-0.9656,-0.9754,-0.9805,-0.9764,-0.973,-0.9707,-0.9683,-0.9632,-0.9676,-0.9781,-0.9819,-0.9819,-0.9819,-0.9819,-0.9819,-0.9819,-0.9819,-0.9819,-0.9819,-0.9819,-0.9819,-0.9819,-0.9819,-0.9819,-0.9819,-0.9819,-0.9819,-0.9819,-0.9819,-0.9819,0.0,0.0,0.0,0.0,0.0,0.0,0.0,0.0,0.0,0.0,0.0,0.0,0.0,0.0,0.0,0.0,0.0,0.0,0.0,0.0,0.0,0.0,0.0,0.0,0.0,0.0,0.0,0.0,0.0,0.0,0.0,0.0,0.0,0.0,-0.1749,-0.2181,-0.2296,-0.2256,-0.2226,-0.2191,-0.2155,-0.2136,-0.2254,-0.2101,-0.1943,-0.1291,-0.0387,0.0,-0.0257,-0.0899,-0.1649,-0.1892,-0.1634,-0.1003,0.0,0.0,0.0,-0.0387,-0.1298,-0.1845,-0.211,-0.2101,-0.2099,-0.2074,-0.2299,-0.3063,-0.3554,-0.401,-0.4723,-0.5694,-0.5882,-0.6644,-0.7612,-0.8267,-0.9094,-0.9731,-0.9628,-0.9724,-0.9647,-0.9278,-0.9304,-0.9571,-0.9615,-0.9656,-0.97,-0.973,-0.9778,-0.9781,-0.9727,-0.9693,-0.9666,-0.9642,-0.9615,-0.9696,-0.9795,-0.9812,-0.9819,-0.9819,-0.9819,-0.9819,-0.9819,-0.9819,-0.9819,-0.9819,-0.9819,-0.9819,-0.9819,-0.9819,-0.9819,-0.9819,-0.9819,-0.9819,-0.9819,-0.9819,-0.9819,0.0,0.0,0.0,0.0,0.0,0.0,0.0,0.0,0.0,0.0,0.0,0.0,0.0,0.0,0.0,0.0,0.0,0.0,0.0,0.0,0.0,0.0,0.0,0.0,0.0,0.0,0.0,0.0,0.0,0.0,0.0,0.0,0.0,0.0,-0.1019,-0.1593,-0.2012,-0.2125,-0.2239,-0.2211,-0.2178,-0.2166,-0.2145,-0.213,-0.2107,-0.1835,-0.1184,-0.0259,-0.013,-0.065,-0.1416,-0.192,-0.1655,0.0,0.0,0.0,0.0,-0.0385,-0.1042,-0.1717,-0.2125,-0.2135,-0.2147,-0.2128,-0.222,-0.2605,-0.3127,-0.3211,-0.3314,-0.4205,-0.4844,-0.5597,-0.626,-0.7072,-0.8269,-0.8742,-0.856,-0.9469,-0.9424,-0.8948,-0.9156,-0.9385,-0.9724,-0.9764,-0.9805,-0.9819,-0.9704,-0.9533,-0.9349,-0.9456,-0.9447,-0.9703,-0.9703,-0.9744,-0.9825,-0.9839,-0.9829,-0.9822,-0.9842,-0.9842,-0.9819,-0.9819,-0.9819,-0.9819,-0.9819,-0.9819,-0.9819,-0.9819,-0.9819,-0.9819,-0.9819,-0.9819,-0.9819,-0.9819,-0.9819,0.0,0.0,0.0,0.0,0.0,0.0,0.0,0.0,0.0,0.0,0.0,0.0,0.0,0.0,0.0,0.0,0.0,0.0,0.0,0.0,0.0,0.0,0.0,0.0,0.0,0.0,0.0,0.0,0.0,0.0,0.0,0.0,0.0,0.0,0.0,0.0,-0.1582,-0.2134,-0.2248,-0.2219,-0.2204,-0.2181,-0.2164,-0.2161,-0.2001,-0.1996,-0.1872,-0.066,0.0,0.0,-0.0916,-0.1687,-0.1682,-0.0767,0.0,0.0,0.0,0.0,-0.0899,-0.1692,-0.2108,-0.2119,-0.2132,-0.212,-0.211,-0.2226,-0.2233,-0.2086,-0.2214,-0.2743,-0.368,-0.4222,-0.489,-0.5826,-0.7028,-0.7822,-0.7437,-0.7773,-0.8506,-0.8486,-0.8762,-0.9082,-0.9442,-0.8576,-0.8248,-0.8682,-0.8559,-0.8127,-0.8083,-0.8927,-0.9048,-0.9562,-0.9819,-0.9829,-0.9863,-0.9886,-0.9859,-0.9822,-0.9869,-0.9903,-0.9859,-0.9819,-0.9819,-0.9819,-0.9819,-0.9819,-0.9819,-0.9819,-0.9819,-0.9819,-0.9819,-0.9819,-0.9819,-0.9819,-0.9819,0.0,0.0,0.0,0.0,0.0,0.0,0.0,0.0,0.0,0.0,0.0,0.0,0.0,0.0,0.0,0.0,0.0,0.0,0.0,0.0,0.0,0.0,0.0,0.0,0.0,0.0,0.0,0.0,0.0,0.0,0.0,0.0,0.0,0.0,0.0,0.0,-0.1593,-0.2151,-0.228,-0.2121,-0.2097,-0.2208,-0.2197,-0.2047,-0.1761,-0.1478,-0.175,0.0,0.0,0.0,0.0,0.0,-0.1575,-0.0779,0.0,0.0,0.0,0.0,0.0,-0.1285,-0.2074,-0.2084,-0.2084,-0.2074,-0.2083,-0.2097,-0.2112,-0.2146,-0.214,-0.2271,-0.2808,-0.3615,-0.4267,-0.4898,-0.5799,-0.628,-0.6219,-0.6608,-0.7229,-0.6974,-0.6993,-0.8267,-0.9037,-0.7767,-0.6749,-0.7193,-0.7378,-0.6953,-0.703,-0.7869,-0.8477,-0.8976,-0.9519,-0.9536,-0.9017,-0.9164,-0.9642,-0.9592,-0.9869,-0.9927,-0.9873,-0.9819,-0.9819,-0.9819,-0.9819,-0.9819,-0.9819,-0.9819,-0.9819,-0.9819,-0.9819,-0.9819,-0.9819,-0.9819,-0.9819,0.0,0.0,0.0,0.0,0.0,0.0,0.0,0.0,0.0,0.0,0.0,0.0,0.0,0.0,0.0,0.0,0.0,0.0,0.0,0.0,0.0,0.0,0.0,0.0,0.0,0.0,0.0,0.0,0.0,0.0,0.0,0.0,0.0,0.0,0.0,0.0,-0.1872,-0.2145,-0.2132,-0.1976,-0.1824,-0.1953,-0.2217,-0.2201,-0.1504,-0.1222,0.0,0.0,0.0,0.0,0.0,0.0,-0.067,0.0,0.0,0.0,0.0,0.0,0.0,0.0,-0.1538,-0.1933,-0.2067,-0.2074,-0.2083,-0.2086,-0.2106,-0.215,-0.2154,-0.2153,-0.2147,-0.2671,-0.2919,-0.3423,-0.4432,-0.4275,-0.4761,-0.5793,-0.605,-0.5549,-0.5302,-0.6447,-0.7466,-0.6688,-0.588,-0.6183,-0.6387,-0.61,-0.6427,-0.7373,-0.7864,-0.8241,-0.8667,-0.91,-0.8441,-0.8055,-0.8916,-0.9127,-0.971,-0.9747,-0.9849,-0.9819,-0.9819,-0.9819,-0.9819,-0.9819,-0.9819,-0.9819,-0.9819,-0.9819,-0.9819,-0.9819,-0.9819,-0.9819,-0.9819,0.0,0.0,0.0,0.0,0.0,0.0,0.0,0.0,0.0,0.0,0.0,0.0,0.0,0.0,0.0,0.0,0.0,0.0,0.0,0.0,0.0,0.0,0.0,0.0,0.0,0.0,0.0,0.0,0.0,0.0,0.0,0.0,0.0,0.0,0.0,-0.087,-0.1586,-0.2305,-0.1716,-0.128,-0.1135,-0.1838,-0.2105,-0.209,-0.1521,0.0,0.0,0.0,0.0,0.0,0.0,0.0,0.0,0.0,0.0,0.0,0.0,0.0,0.0,-0.0902,-0.1411,-0.181,-0.2076,-0.2083,-0.2085,-0.2076,-0.2075,-0.2123,-0.2125,-0.2127,-0.2127,-0.2239,-0.2223,-0.2596,-0.3091,-0.2693,-0.2685,-0.3837,-0.4476,-0.3965,-0.3724,-0.414,-0.4781,-0.4913,-0.5003,-0.5306,-0.5388,-0.5238,-0.57,-0.6521,-0.6768,-0.7025,-0.7578,-0.7865,-0.7439,-0.7175,-0.7915,-0.8532,-0.912,-0.9589,-0.9704,-0.97,-0.9819,-0.9819,-0.9819,-0.9819,-0.9819,-0.9819,-0.9819,-0.9819,-0.9819,-0.9819,-0.9819,-0.9819,-0.9819,0.0,0.0,0.0,0.0,0.0,0.0,0.0,0.0,0.0,0.0,0.0,0.0,0.0,0.0,0.0,0.0,0.0,0.0,0.0,0.0,0.0,0.0,0.0,0.0,0.0,0.0,0.0,0.0,0.0,0.0,0.0,0.0,0.0,0.0,0.0,0.0,0.0,-0.1599,-0.1159,-0.058,-0.0722,-0.1294,-0.2141,-0.2132,-0.1549,0.0,0.0,0.0,0.0,0.0,0.0,0.0,0.0,0.0,0.0,0.0,0.0,0.0,0.0,-0.0911,-0.1947,-0.211,-0.2123,-0.2099,-0.2092,-0.2076,-0.2074,-0.2092,-0.211,-0.2095,-0.2086,-0.2067,-0.2065,-0.2183,-0.2429,-0.229,-0.2159,-0.2289,-0.2669,-0.2284,-0.2423,-0.296,-0.3099,-0.3486,-0.3721,-0.4044,-0.3753,-0.361,-0.4222,-0.4817,-0.5188,-0.5573,-0.6114,-0.6365,-0.6177,-0.6421,-0.6953,-0.7685,-0.827,-0.8989,-0.9464,-0.9582,-0.9697,-0.9819,-0.9819,-0.9819,-0.9819,-0.9819,-0.9819,-0.9819,-0.9819,-0.9819,-0.9819,-0.9819,-0.9819,0.0,0.0,0.0,0.0,0.0,0.0,0.0,0.0,0.0,0.0,0.0,0.0,0.0,0.0,0.0,0.0,0.0,0.0,0.0,0.0,0.0,0.0,0.0,0.0,0.0,0.0,0.0,0.0,0.0,0.0,0.0,0.0,0.0,0.0,0.0,0.0,0.0,-0.0876,-0.1168,-0.1022,-0.0146,-0.0436,-0.1299,-0.2146,-0.2141,-0.1129,0.0,0.0,0.0,0.0,0.0,0.0,0.0,0.0,0.0,0.0,0.0,0.0,0.0,0.0,-0.1183,-0.2133,-0.2142,-0.2132,-0.1986,-0.2119,-0.2131,-0.2136,-0.2125,-0.2112,-0.2119,-0.2089,-0.2061,-0.2046,-0.2037,-0.2031,-0.2031,-0.2041,-0.2035,-0.2164,-0.2043,-0.2312,-0.2316,-0.2189,-0.2554,-0.2657,-0.2381,-0.2241,-0.2863,-0.336,-0.3736,-0.4109,-0.4636,-0.4504,-0.4337,-0.4971,-0.599,-0.6708,-0.7291,-0.8258,-0.8973,-0.9339,-0.9457,-0.9576,-0.9819,-0.9819,-0.9819,-0.9819,-0.9819,-0.9697,-0.9697,-0.9819,-0.9819,-0.9825,-0.9846,0.0,0.0,0.0,0.0,0.0,0.0,0.0,0.0,0.0,0.0,0.0,0.0,0.0,0.0,0.0,0.0,0.0,0.0,0.0,0.0,0.0,0.0,0.0,0.0,0.0,0.0,0.0,0.0,0.0,0.0,0.0,0.0,0.0,0.0,0.0,0.0,0.0,0.0,-0.073,-0.1168,-0.0,0.0,0.0,-0.1586,-0.1873,-0.143,0.0,0.0,0.0,0.0,0.0,0.0,0.0,0.0,0.0,0.0,0.0,0.0,0.0,0.0,0.0,-0.123,-0.165,-0.1777,-0.2038,-0.2032,-0.217,-0.2169,-0.2161,-0.2155,-0.2153,-0.2119,-0.2101,-0.2096,-0.2089,-0.2082,-0.2074,-0.2076,-0.2057,-0.2045,-0.2052,-0.2059,-0.206,-0.2063,-0.2189,-0.2302,-0.2164,-0.2026,-0.2276,-0.2525,-0.252,-0.2769,-0.3021,-0.2757,-0.2367,-0.3359,-0.4346,-0.5696,-0.6535,-0.7633,-0.8358,-0.8845,-0.9214,-0.9457,-0.9579,-0.97,-0.9822,-0.9829,-0.9704,-0.9576,-0.971,-0.9612,-0.9849,-0.9863,-0.991,0.0,0.0,0.0,0.0,0.0,0.0,0.0,0.0,0.0,0.0,0.0,0.0,0.0,0.0,0.0,0.0,0.0,0.0,0.0,0.0,0.0,0.0,0.0,0.0,0.0,0.0,0.0,0.0,0.0,0.0,0.0,0.0,0.0,0.0,0.0,0.0,0.0,0.0,0.0,0.0,0.0,0.0,0.0,-0.0582,-0.1309,-0.1011,0.0,0.0,0.0,0.0,0.0,0.0,0.0,0.0,0.0,0.0,0.0,0.0,0.0,0.0,0.0,-0.056,-0.1265,-0.1258,-0.1933,-0.2196,-0.2187,-0.2179,-0.216,-0.2155,-0.2153,-0.2148,-0.2139,-0.2133,-0.2123,-0.2129,-0.212,-0.2129,-0.2116,-0.2087,-0.2071,-0.2066,-0.2067,-0.2068,-0.2073,-0.2069,-0.2065,-0.1931,-0.1924,-0.1918,-0.1911,-0.1527,-0.1778,-0.1774,-0.1637,-0.1865,-0.2843,-0.4315,-0.554,-0.6396,-0.7622,-0.8482,-0.8851,-0.922,-0.9585,-0.971,-0.9836,-0.9839,-0.9777,-0.9718,-0.9536,-0.9536,-0.9652,-0.993,-1.0005,0.0,0.0,0.0,0.0,0.0,0.0,0.0,0.0,0.0,0.0,0.0,0.0,0.0,0.0,0.0,0.0,0.0,0.0,0.0,0.0,0.0,0.0,0.0,0.0,0.0,0.0,0.0,0.0,0.0,0.0,0.0,0.0,0.0,0.0,0.0,0.0,0.0,0.0,0.0,0.0,0.0,0.0,0.0,0.0,0.0,0.0,0.0,0.0,0.0,0.0,0.0,0.0,0.0,0.0,0.0,0.0,0.0,0.0,0.0,0.0,0.0,-0.0856,-0.0994,-0.0845,-0.0697,-0.1795,-0.2058,-0.2184,-0.2171,-0.2166,-0.2289,-0.2267,-0.2123,-0.2125,-0.2127,-0.2156,-0.2166,-0.2191,-0.2192,-0.2151,-0.2125,-0.2107,-0.21,-0.2102,-0.2104,-0.2097,-0.2093,-0.1688,-0.1422,-0.1677,-0.1672,-0.0772,-0.0642,-0.0769,-0.102,-0.1638,-0.2003,-0.3004,-0.3976,-0.4803,-0.6031,-0.7544,-0.8526,-0.8919,-0.9384,-0.9727,-0.9811,-0.9891,-0.9972,-0.988,-0.9728,-0.9666,-0.9885,-1.0076,-1.0178,0.0,0.0,0.0,0.0,0.0,0.0,0.0,0.0,0.0,0.0,0.0,0.0,0.0,0.0,0.0,0.0,0.0,0.0,0.0,0.0,0.0,0.0,0.0,0.0,0.0,0.0,0.0,0.0,0.0,0.0,0.0,0.0,0.0,0.0,0.0,0.0,0.0,0.0,0.0,0.0,0.0,0.0,0.0,0.0,0.0,0.0,0.0,0.0,0.0,0.0,0.0,0.0,0.0,0.0,0.0,0.0,0.0,0.0,0.0,0.0,0.0,-0.1016,-0.0854,-0.0562,-0.028,-0.0835,-0.1666,-0.1934,-0.1917,-0.1913,-0.1904,-0.1881,-0.1879,-0.1882,-0.2163,-0.2056,-0.2204,-0.2227,-0.2222,-0.2184,-0.2161,-0.2146,-0.2131,-0.214,-0.2142,-0.2132,-0.2122,-0.171,-0.1175,-0.1175,-0.1434,-0.0781,-0.052,-0.1037,-0.1419,-0.1662,-0.1909,-0.2035,-0.2773,-0.3617,-0.4888,-0.6434,-0.7528,-0.8629,-0.9162,-0.958,-0.9886,-0.9959,-0.9888,-0.9947,-0.9976,-0.9895,-1.0032,-1.0096,-1.0213,0.0,0.0,0.0,0.0,0.0,0.0,0.0,0.0,0.0,0.0,0.0,0.0,0.0,0.0,0.0,0.0,0.0,0.0,0.0,0.0,0.0,0.0,0.0,0.0,0.0,0.0,0.0,0.0,0.0,0.0,0.0,0.0,0.0,0.0,0.0,0.0,0.0,0.0,0.0,0.0,0.0,0.0,0.0,0.0,0.0,0.0,0.0,0.0,0.0,0.0,0.0,0.0,0.0,0.0,0.0,0.0,0.0,0.0,0.0,0.0,0.0,0.0,-0.1279,-0.0985,-0.07,-0.0557,-0.083,-0.1383,-0.1653,-0.1386,-0.1249,-0.1246,-0.1381,-0.1522,-0.194,-0.195,-0.2092,-0.2094,-0.2085,-0.2205,-0.2189,-0.2172,-0.2152,-0.2155,-0.2155,-0.2149,-0.214,-0.1871,-0.1329,-0.0533,-0.0797,-0.1188,-0.1053,-0.1573,-0.1825,-0.1945,-0.1809,-0.1807,-0.2054,-0.2804,-0.41,-0.5255,-0.6499,-0.7635,-0.8721,-0.9407,-0.9937,-0.9983,-0.9909,-0.9834,-0.9745,-1.0068,-1.0065,-0.9883,-0.985,0.0,0.0,0.0,0.0,0.0,0.0,0.0,0.0,0.0,0.0,0.0,0.0,0.0,0.0,0.0,0.0,0.0,0.0,0.0,0.0,0.0,0.0,0.0,0.0,0.0,0.0,0.0,0.0,0.0,0.0,0.0,0.0,0.0,0.0,0.0,0.0,0.0,0.0,0.0,0.0,0.0,0.0,0.0,0.0,0.0,0.0,0.0,0.0,0.0,0.0,0.0,0.0,0.0,0.0,0.0,0.0,0.0,0.0,0.0,0.0,0.0,0.0,0.0,0.0,-0.0978,-0.0693,0.0,0.0,0.0,-0.1098,0.0,0.0,0.0,0.0,0.0,-0.1384,-0.1526,-0.2088,-0.1941,-0.1793,-0.1781,-0.2174,-0.2157,-0.2155,-0.2155,-0.2155,-0.2155,-0.202,-0.1481,-0.0673,-0.0268,-0.0798,-0.1465,-0.1856,-0.1987,-0.1978,-0.1839,-0.1701,-0.1954,-0.2205,-0.2977,-0.4138,-0.5419,-0.6337,-0.7284,-0.8748,-1.0214,-1.0127,-0.9642,-0.9554,-0.9456,-0.9783,-1.0133,-0.9917,-0.9955,0.0,0.0,0.0,0.0,0.0,0.0,0.0,0.0,0.0,0.0,0.0,0.0,0.0,0.0,0.0,0.0,0.0,0.0,0.0,0.0,0.0,0.0,0.0,0.0,0.0,0.0,0.0,0.0,0.0,0.0,0.0,0.0,0.0,0.0,0.0,0.0,0.0,0.0,0.0,0.0,0.0,0.0,0.0,0.0,0.0,0.0,0.0,0.0,0.0,0.0,0.0,0.0,0.0,0.0,0.0,0.0,0.0,0.0,0.0,0.0,0.0,0.0,0.0,0.0,-0.0701,-0.0417,0.0,0.0,0.0,0.0,0.0,0.0,0.0,0.0,0.0,0.0,-0.11,-0.1801,-0.1658,-0.1374,-0.1637,-0.2029,-0.2155,-0.2155,-0.2155,-0.2155,-0.2155,-0.2155,-0.1616,-0.0808,-0.0401,-0.0531,-0.1335,-0.2143,-0.214,-0.2002,-0.173,-0.1592,-0.1989,-0.2243,-0.2493,-0.2755,-0.3551,-0.4477,-0.5405,-0.7135,-0.8998,-0.9444,-0.9221,-0.9114,-0.9114,-0.9729,-1.009,-1.0116,-1.0151,0.0,0.0,0.0,0.0,0.0,0.0,0.0,0.0,0.0,0.0,0.0,0.0,0.0,0.0,0.0,0.0,0.0,0.0,0.0,0.0,0.0,0.0,0.0,0.0,0.0,0.0,0.0,0.0,0.0,0.0,0.0,0.0,0.0,0.0,0.0,0.0,0.0,0.0,0.0,0.0,0.0,0.0,0.0,0.0,0.0,0.0,0.0,0.0,0.0,0.0,0.0,0.0,0.0,0.0,0.0,0.0,0.0,0.0,0.0,0.0,0.0,0.0,0.0,0.0,0.0,0.0,0.0,0.0,0.0,0.0,0.0,0.0,0.0,0.0,0.0,0.0,0.0,0.0,-0.1779,-0.1635,-0.1765,-0.2156,-0.2155,-0.2155,-0.202,-0.202,-0.2155,-0.2155,-0.1616,-0.0808,0.0,0.0,0.0,0.0,-0.2142,-0.2006,-0.1612,-0.1612,-0.1878,-0.2144,-0.2395,-0.2003,-0.1612,-0.2408,-0.3459,-0.5471,-0.7091,-0.7641,-0.8043,-0.8046,-0.8446,-0.9383,-0.9782,-0.9507,-0.9775,0.0,0.0,0.0,0.0,0.0,0.0,0.0,0.0,0.0,0.0,0.0,0.0,0.0,0.0,0.0,0.0,0.0,0.0,0.0,0.0,0.0,0.0,0.0,0.0,0.0,0.0,0.0,0.0,0.0,0.0,0.0,0.0,0.0,0.0,0.0,0.0,0.0,0.0,0.0,0.0,0.0,0.0,0.0,0.0,0.0,0.0,0.0,0.0,0.0,0.0,0.0,0.0,0.0,0.0,0.0,0.0,0.0,0.0,0.0,0.0,0.0,0.0,0.0,0.0,0.0,0.0,0.0,0.0,0.0,0.0,0.0,0.0,0.0,0.0,0.0,0.0,0.0,0.0,0.0,-0.1893,-0.1889,-0.2022,-0.2155,-0.202,-0.1885,-0.1885,-0.2155,-0.202,-0.1616,0.0,0.0,0.0,0.0,0.0,0.0,-0.2009,-0.1748,-0.1616,-0.1882,-0.2018,-0.2155,-0.175,-0.1346,-0.0807,-0.1476,-0.3623,-0.5233,-0.5767,-0.617,-0.6706,-0.7107,-0.7907,-0.7638,-0.7236,-0.8038,0.0,0.0,0.0,0.0,0.0,0.0,0.0,0.0,0.0,0.0,0.0,0.0,0.0,0.0,0.0,0.0,0.0,0.0,0.0,0.0,0.0,0.0,0.0,0.0,0.0,0.0,0.0,0.0,0.0,0.0,0.0,0.0,0.0,0.0,0.0,0.0,0.0,0.0,0.0,0.0,0.0,0.0,0.0,0.0,0.0,0.0,0.0,0.0,0.0,0.0,0.0,0.0,0.0,0.0,0.0,0.0,0.0,0.0,0.0,0.0,0.0,0.0,0.0,0.0,0.0,0.0,0.0,0.0,0.0,0.0,0.0,0.0,0.0,0.0,0.0,0.0,0.0,0.0,-0.1755,-0.2024,-0.2021,-0.2156,-0.2155,-0.2155,-0.202,-0.1751,-0.1885,0.0,0.0,0.0,0.0,0.0,0.0,0.0,0.0,-0.2151,-0.2019,-0.202,-0.1885,-0.202,-0.2155,-0.1481,-0.1077,-0.1076,-0.1211,-0.2151,-0.3358,-0.4309,-0.5238,-0.6038,-0.617,-0.6299,-0.5767,-0.5371,-0.6046,0.0,0.0,0.0,0.0,0.0,0.0,0.0,0.0,0.0,0.0,0.0,0.0,0.0,0.0,0.0,0.0,0.0,0.0,0.0,0.0,0.0,0.0,0.0,0.0,0.0,0.0,0.0,0.0,0.0,0.0,0.0,0.0,0.0,0.0,0.0,0.0,0.0,0.0,0.0,0.0,0.0,0.0,0.0,0.0,0.0,0.0,0.0,0.0,0.0,0.0,0.0,0.0,0.0,0.0,0.0,0.0,0.0,0.0,0.0,0.0,0.0,0.0,0.0,0.0,0.0,0.0,0.0,0.0,0.0,0.0,0.0,0.0,0.0,0.0,0.0,0.0,0.0,0.0,-0.1485,-0.189,-0.2156,-0.2156,-0.2156,-0.2156,-0.2021,-0.1751,0.0,0.0,0.0,0.0,0.0,0.0,0.0,0.0,-0.2155,-0.2155,-0.2155,-0.2155,-0.202,-0.2155,-0.202,-0.1481,-0.1347,-0.1887,-0.2155,-0.2299,-0.2713,-0.3536,-0.4468,-0.4992,-0.4728,-0.4597,-0.4707,-0.4442,-0.4585,0.0,0.0,0.0,0.0,0.0,0.0,0.0,0.0,0.0,0.0,0.0,0.0,0.0,0.0,0.0,0.0,0.0,0.0,0.0,0.0,0.0,0.0,0.0,0.0,0.0,0.0,0.0,0.0,0.0,0.0,0.0,0.0,0.0,0.0,0.0,0.0,0.0,0.0,0.0,0.0,0.0,0.0,0.0,0.0,0.0,0.0,0.0,0.0,0.0,0.0,0.0,0.0,0.0,0.0,0.0,0.0,0.0,0.0,0.0,0.0,0.0,0.0,0.0,0.0,0.0,0.0,0.0,0.0,0.0,0.0,0.0,0.0,0.0,0.0,0.0,0.0,0.0,0.0,-0.0818,-0.1493,-0.2159,-0.216,-0.2161,-0.2159,-0.2022,-0.1618,-0.081,0.0,0.0,0.0,0.0,0.0,0.0,-0.1481,-0.2155,-0.2155,-0.2155,-0.2155,-0.2157,-0.2159,-0.2024,-0.1481,-0.1482,-0.1766,-0.2047,-0.2193,-0.2746,-0.302,-0.3023,-0.329,-0.2877,-0.2735,-0.3123,-0.3385,-0.3536]}]]